[[{"header":{"parameterUnit":"m.s-1","parameterCategory":1,"la1":30.6,"la2":29.2853,"lo1":-89.7004,"lo2":-87.6739,"dy":0.0162,"dx":0.0183,"nx":112,"ny":82,"refTime":"2023-08-15T06:00:00:Z","depth":0,"parameterNumber":2,"parameterNumberName":"U-component_of_WINDS"},"data":[0.0,0.0,0.0,0.0,0.0,0.0,0.0,0.0,0.0,0.0,0.0,0.0,0.0,0.0,0.0,0.0,0.0,0.0,0.0,0.0,0.0,0.0,0.0,0.0,0.0,0.0,0.0,0.0,0.0,0.0,0.0,0.0,0.0,0.0,0.0,0.0,0.0,0.0,0.0,0.0,0.0,0.0,0.0,0.0,0.0,0.0,0.0,0.0,0.0,0.0,0.0,0.0,0.0,0.0,0.0,0.0,0.0,0.0,0.0,0.0,0.0,0.0,0.0,0.0,0.0,0.0,0.0,0.0,0.0,0.0,0.0,0.0,0.0,0.0,0.0,0.0,0.0,0.0,0.0,0.0,0.0,0.0,0.0,0.0,0.0,0.0,0.0,0.0,0.0,0.0,1.5248,1.7988,2.1815,2.4539,2.5403,2.4505,2.3293,2.1869,0.0,0.0,0.0,0.0,0.0,0.0,0.0,0.0,0.0,0.0,0.0,0.0,0.0,0.0,0.0,0.0,0.0,0.0,0.0,0.0,0.0,0.0,0.0,0.0,0.0,0.0,0.0,0.0,0.0,0.0,0.0,0.0,0.0,0.0,0.0,0.0,0.0,0.0,0.0,0.0,0.0,0.0,0.0,0.0,0.0,0.0,0.0,0.0,0.0,0.0,0.0,0.0,0.0,0.0,0.0,0.0,0.0,0.0,0.0,0.0,0.0,0.0,0.0,0.0,0.0,0.0,0.0,0.0,0.0,0.0,0.0,0.0,0.0,0.0,0.0,0.0,0.0,0.0,0.0,0.0,0.0,0.0,0.0,0.0,0.0,0.0,0.0,0.0,0.0,0.0,0.0,0.0,0.0,0.0,0.0,0.0,0.0,0.0,0.0,0.0,0.0,0.0,0.0,0.0,1.6363,1.9671,2.188,2.3494,2.4423,2.3023,2.1993,2.1725,0.0,0.0,0.0,0.0,0.0,0.0,0.0,0.0,0.0,0.0,0.0,0.0,0.0,0.0,0.0,0.0,0.0,0.0,0.0,0.0,0.0,0.0,0.0,0.0,0.0,0.0,0.0,0.0,0.0,0.0,0.0,0.0,0.0,0.0,0.0,0.0,0.0,0.0,0.0,0.0,0.0,0.0,0.0,0.0,0.0,0.0,0.0,0.0,0.0,0.0,0.0,0.0,0.0,0.0,0.0,0.0,0.0,0.0,0.0,0.0,0.0,0.0,0.0,0.0,0.0,0.0,0.0,0.0,0.0,0.0,0.0,0.0,0.0,0.0,0.0,0.0,0.0,0.0,0.0,0.0,0.0,0.0,0.0,0.0,0.0,0.0,0.0,0.0,0.0,0.0,0.0,0.0,0.0,0.0,0.0,0.0,0.0,0.0,0.0,0.0,0.0,0.0,0.0,1.6441,1.7954,1.9477,2.1636,2.312,2.3562,2.2394,2.1657,2.1702,2.125,0.0,0.0,0.0,0.0,0.0,0.0,0.0,0.0,0.0,0.0,0.0,0.0,0.0,0.0,0.0,0.0,0.0,0.0,0.0,0.0,0.0,0.0,0.0,0.0,0.0,0.0,0.0,0.0,0.0,0.0,0.0,0.0,0.0,0.0,0.0,0.0,0.0,0.0,0.0,0.0,0.0,0.0,0.0,0.0,0.0,0.0,0.0,0.0,0.0,0.0,0.0,0.0,0.0,0.0,0.0,0.0,0.0,0.0,0.0,0.0,0.0,0.0,0.0,0.0,0.0,0.0,0.0,0.0,0.0,0.0,0.0,0.0,0.0,0.0,0.0,0.0,0.0,0.0,0.0,0.0,0.0,0.0,0.0,0.0,0.0,0.0,0.0,0.0,0.0,0.0,0.0,0.0,0.0,0.0,0.0,0.0,0.0,0.0,0.0,0.0,0.0,0.0,1.6975,1.8461,1.8621,2.0804,2.2282,2.2301,2.1655,2.1288,2.1349,2.0488,0.0,0.0,0.0,0.0,0.0,0.0,0.0,0.0,0.0,0.0,0.0,0.0,0.0,0.0,0.0,0.0,0.0,0.0,0.0,0.0,0.0,0.0,0.0,0.0,0.0,0.0,0.0,0.0,0.0,0.0,0.0,0.0,0.0,0.0,0.0,0.0,0.0,0.0,0.0,0.0,0.0,0.0,0.0,0.0,0.0,0.0,0.0,0.0,0.0,0.0,0.0,0.0,0.0,0.0,0.0,0.0,0.0,0.0,0.0,0.0,0.0,0.0,0.0,0.0,0.0,0.0,0.0,0.0,0.0,0.0,0.0,0.0,0.0,0.0,0.0,0.0,0.0,0.0,0.0,0.0,0.0,0.0,0.0,0.0,0.0,0.0,0.0,0.0,0.0,0.0,0.0,0.0,0.0,0.0,0.0,0.0,0.0,0.0,0.0,0.0,0.0,0.0,1.5733,1.663,1.7425,1.9085,2.0162,2.0287,2.024,2.0257,2.0396,1.9576,0.0,0.0,0.0,0.0,0.0,0.0,0.0,0.0,0.0,0.0,0.0,0.0,0.0,0.0,0.0,0.0,0.0,0.0,0.0,0.0,0.0,0.0,0.0,0.0,0.0,0.0,0.0,0.0,0.0,0.0,0.0,0.0,0.0,0.0,0.0,0.0,0.0,0.0,0.0,0.0,0.0,0.0,0.0,0.0,0.0,0.0,0.0,0.0,0.0,0.0,0.0,0.0,0.0,0.0,0.0,0.0,0.0,0.0,0.0,0.0,0.0,0.0,0.0,0.0,0.0,0.0,0.0,0.0,0.0,0.0,0.0,0.0,0.0,0.0,0.0,0.0,0.0,0.0,0.0,0.0,0.0,0.0,0.0,0.0,0.0,0.0,0.0,0.0,0.0,0.0,0.0,0.0,0.0,0.0,0.0,0.0,0.0,0.0,0.0,0.0,0.0,0.0,1.5865,1.6422,0.0,1.8394,1.9314,1.9869,1.9918,1.9962,2.0106,0.0,0.0,0.0,0.0,0.0,0.0,0.0,0.0,0.0,0.0,0.0,0.0,0.0,0.0,0.0,0.0,0.0,0.0,0.0,0.0,0.0,0.0,0.0,0.0,0.0,0.0,0.0,0.0,0.0,0.0,0.0,0.0,0.0,0.0,0.0,0.0,0.0,0.0,0.0,0.0,0.0,0.0,0.0,0.0,0.0,0.0,0.0,0.0,0.0,0.0,0.0,0.0,0.0,0.0,0.0,0.0,0.0,0.0,0.0,0.0,0.0,0.0,0.0,0.0,0.0,0.0,0.0,0.0,0.0,0.0,0.0,0.0,0.0,0.0,0.0,0.0,0.0,0.0,0.0,0.0,0.0,0.0,0.0,0.0,0.0,0.0,0.0,0.0,0.0,0.0,0.0,0.0,0.0,0.0,0.0,0.0,0.0,0.0,0.0,0.0,0.0,0.0,1.6245,1.6283,1.6545,0.0,1.7931,1.8689,1.9288,1.9587,1.979,1.9933,0.0,0.0,0.0,0.0,0.0,0.0,0.0,0.0,0.0,0.0,0.0,0.0,0.0,0.0,0.0,0.0,0.0,0.0,0.0,0.0,0.0,0.0,0.0,0.0,0.0,0.0,0.0,0.0,0.0,0.0,0.0,0.0,0.0,0.0,0.0,0.0,0.0,0.0,0.0,0.0,0.0,0.0,0.0,0.0,0.0,0.0,0.0,0.0,0.0,0.0,0.0,0.0,0.0,0.0,0.0,0.0,0.0,0.0,0.0,0.0,0.0,0.0,0.0,0.0,0.0,0.0,0.0,0.0,0.0,0.0,0.0,0.0,0.0,0.0,0.0,0.0,0.0,0.0,0.0,0.0,0.0,0.0,0.0,0.0,0.0,0.0,0.0,0.0,0.0,0.0,0.0,0.0,0.0,0.0,0.0,0.0,0.0,0.0,0.0,0.0,0.0,0.0,1.6968,1.6844,1.683,1.6904,1.7628,1.8167,1.8398,1.9151,1.9645,0.0,0.0,0.0,0.0,0.0,0.0,0.0,0.0,0.0,0.0,0.0,0.0,0.0,0.0,0.0,0.0,0.0,0.0,0.0,0.0,0.0,0.0,0.0,0.0,0.0,0.0,0.0,0.0,0.0,0.0,0.0,0.0,0.0,0.0,0.0,0.0,0.0,0.0,0.0,0.0,0.0,0.0,0.0,0.0,0.0,0.0,0.0,0.0,0.0,0.0,0.0,0.0,0.0,0.0,0.0,0.0,0.0,0.0,0.0,0.0,0.0,0.0,0.0,0.0,0.0,0.0,0.0,0.0,0.0,0.0,0.0,0.0,0.0,0.0,0.0,0.0,0.0,0.0,0.0,0.0,0.0,0.0,0.0,0.0,0.0,0.0,0.0,0.0,0.0,0.0,0.0,0.0,0.0,0.0,0.0,0.0,0.0,0.0,0.0,0.0,0.0,0.0,0.0,1.7272,1.6738,1.6574,1.7057,1.7407,1.7925,1.8695,1.9018,1.9512,2.0259,0.0,0.0,0.0,0.0,0.0,0.0,0.0,0.0,0.0,0.0,0.0,0.0,0.0,0.0,0.0,0.0,0.0,0.0,0.0,0.0,0.0,0.0,0.0,0.0,0.0,0.0,0.0,0.0,0.0,0.0,0.0,0.0,0.0,0.0,0.0,0.0,0.0,0.0,0.0,0.0,0.0,0.0,0.0,0.0,0.0,0.0,0.0,0.0,0.0,0.0,0.0,0.0,0.0,0.0,0.0,0.0,0.0,0.0,0.0,0.0,0.0,0.0,0.0,0.0,0.0,0.0,0.0,0.0,0.0,0.0,0.0,0.0,0.0,0.0,0.0,0.0,0.0,0.0,0.0,0.0,0.0,0.0,0.0,0.0,0.0,0.0,0.0,0.0,0.0,0.0,0.0,0.0,0.0,0.0,0.0,0.0,0.0,0.0,0.0,0.0,0.0,0.0,1.7896,1.7453,1.724,1.7559,1.7736,1.8091,1.8735,1.8807,1.9237,2.0154,0.0,0.0,0.0,0.0,0.0,0.0,0.0,0.0,0.0,0.0,0.0,0.0,0.0,0.0,0.0,0.0,0.0,0.0,0.0,0.0,0.0,0.0,0.0,0.0,0.0,0.0,0.0,0.0,0.0,0.0,0.0,0.0,0.0,0.0,0.0,0.0,0.0,0.0,0.0,0.0,0.0,0.0,0.0,0.0,0.0,0.0,0.0,0.0,0.0,0.0,0.0,0.0,0.0,0.0,0.0,0.0,0.0,0.0,0.0,0.0,0.0,0.0,0.0,0.0,0.0,0.0,0.0,0.0,0.0,0.0,0.0,0.0,0.0,0.0,0.0,0.0,0.0,0.0,0.0,0.0,0.0,0.0,0.0,0.0,0.0,0.0,0.0,0.0,0.0,0.0,0.0,0.0,0.0,0.0,0.0,0.0,0.0,0.0,0.0,0.0,0.0,0.0,1.857,1.8508,1.8368,1.8173,1.8336,1.8454,1.8528,1.8547,1.8939,1.9828,0.0,0.0,0.0,0.0,0.0,0.0,0.0,0.0,0.0,0.0,0.0,0.0,0.0,0.0,0.0,0.0,0.0,0.0,0.0,0.0,0.0,0.0,0.0,0.0,0.0,0.0,0.0,0.0,0.0,0.0,0.0,0.0,0.0,0.0,0.0,0.0,0.0,0.0,0.0,0.0,0.0,0.0,0.0,0.0,0.0,0.0,0.0,0.0,0.0,0.0,0.0,0.0,0.0,0.0,0.0,0.0,0.0,0.0,0.0,0.0,1.3168,0.0,0.0,0.0,0.0,0.0,0.0,0.0,0.0,0.0,0.0,0.0,0.0,0.0,0.0,0.0,0.0,0.0,0.0,0.0,0.0,0.0,0.0,0.0,0.0,0.0,0.0,0.0,0.0,0.0,0.0,0.0,0.0,0.0,0.0,0.0,0.0,0.0,0.0,0.0,0.0,0.0,1.8044,1.7971,1.7927,1.7883,1.791,1.7992,1.804,1.8187,1.8885,2.035,2.0636,0.0,0.0,0.0,0.0,0.0,0.0,0.0,0.0,0.0,0.0,0.0,0.0,0.0,0.0,0.0,0.0,0.0,0.0,0.0,0.0,0.0,0.0,0.0,0.0,0.0,0.0,0.0,0.0,0.0,0.0,0.0,0.0,0.0,0.0,0.0,0.0,0.0,0.0,0.0,0.0,0.0,0.0,0.0,0.0,0.0,0.0,0.0,0.0,0.0,0.0,0.0,0.0,0.0,0.0,0.0,0.0,0.0,0.0,0.0,0.0,1.296,0.0,0.0,0.0,0.0,0.0,0.0,0.0,0.0,0.0,0.0,0.0,0.0,0.0,0.0,0.0,0.0,0.0,0.0,0.0,0.0,0.0,0.0,0.0,0.0,0.0,0.0,0.0,0.0,0.0,0.0,0.0,0.0,0.0,0.0,0.0,0.0,0.0,0.0,0.0,0.0,1.7538,1.7455,1.7662,1.8111,1.8387,1.8629,1.889,1.9001,1.9458,2.0343,2.0924,0.0,0.0,0.0,0.0,0.0,0.0,0.0,0.0,0.0,0.0,0.0,0.0,0.0,0.0,0.0,0.0,0.0,0.0,0.0,0.0,0.0,0.0,0.0,0.0,0.0,0.0,0.0,0.0,0.0,0.0,0.0,0.0,0.0,0.0,0.0,0.0,0.0,0.0,0.0,0.0,0.0,0.0,0.0,0.0,0.0,0.0,0.0,0.0,0.0,0.0,0.0,0.0,0.0,1.5591,1.5718,1.5707,1.4137,1.329,1.3077,1.2914,1.2862,1.2892,1.3123,0.0,0.0,0.0,0.0,0.0,0.0,0.0,0.0,0.0,0.0,0.0,0.0,0.0,0.0,0.0,0.0,0.0,0.0,0.0,0.0,0.0,0.0,0.0,0.0,1.7199,1.7719,1.8382,0.0,0.0,0.0,0.0,0.0,0.0,0.0,0.0,0.0,0.0,0.0,1.7393,1.727,1.7627,1.8702,1.9098,1.9411,1.9772,1.9857,2.0018,2.0264,2.107,2.1614,0.0,0.0,0.0,0.0,0.0,0.0,0.0,0.0,0.0,0.0,0.0,0.0,0.0,0.0,0.0,0.0,0.0,0.0,0.0,0.0,0.0,0.0,0.0,0.0,0.0,0.0,0.0,0.0,0.0,0.0,0.0,0.0,1.4777,1.8012,0.0,0.0,0.0,0.0,0.0,0.0,0.0,0.0,0.0,0.0,0.0,0.0,0.0,1.2675,1.2113,1.2665,1.3064,1.3316,1.4733,1.5455,1.5461,1.5445,1.4906,1.3994,1.4666,0.0,1.1225,1.1263,0.0,0.0,0.0,0.0,0.0,0.0,0.0,0.0,0.0,0.0,0.0,0.0,0.0,0.0,0.0,0.0,0.0,0.0,0.0,0.0,0.0,0.0,1.6316,1.5145,1.5166,1.5461,0.0,1.7446,1.9075,1.943,1.9557,0.0,0.0,0.0,0.0,0.0,0.0,0.0,1.8269,1.7892,1.8229,1.9569,1.9377,1.91,1.9054,1.9318,1.9805,2.0611,2.1029,2.1652,2.2522,2.259,0.0,0.0,0.0,0.0,0.0,0.0,0.0,0.0,0.0,0.0,0.0,0.0,0.0,0.0,0.0,0.0,0.0,0.0,0.0,0.0,0.0,0.0,0.0,0.0,0.0,0.0,0.0,0.0,0.0,1.5074,1.5039,1.4611,1.5573,1.6318,0.0,0.0,0.0,0.0,0.0,0.0,0.0,0.0,0.0,1.4161,1.3344,1.334,1.4297,1.4307,1.4307,1.4316,1.5059,1.5686,1.6196,1.4551,1.3219,1.2126,1.255,1.1928,1.0777,1.1658,1.2508,1.3248,0.0,0.0,0.0,0.0,1.343,1.3233,1.3292,1.3806,1.4336,1.3368,0.0,0.0,0.0,0.0,0.0,0.0,0.0,0.0,0.0,0.0,1.568,1.5501,1.5162,1.4967,1.5422,1.625,1.7234,0.0,1.845,1.8359,1.8702,0.0,0.0,0.0,0.0,1.8933,1.8084,1.799,1.8295,1.8983,1.9511,1.9891,2.0064,2.0215,2.0378,2.0517,2.1097,2.1519,2.1727,2.2207,2.2527,0.0,0.0,0.0,0.0,0.0,0.0,0.0,0.0,0.0,0.0,0.0,0.0,0.0,0.0,0.0,0.0,0.0,0.0,0.0,0.0,0.0,0.0,0.0,0.0,0.0,0.0,0.0,0.0,1.5299,1.4962,1.3303,1.4832,1.5969,0.0,0.0,0.0,0.0,0.0,0.0,1.4743,1.4962,1.4554,1.3336,1.37,1.4514,1.575,1.577,1.577,1.577,1.4994,1.4967,1.5683,1.3382,1.183,1.1009,1.1009,1.1009,1.1084,1.1643,1.1909,1.2058,1.2276,1.2463,1.256,1.256,1.2384,1.2058,1.2058,1.2058,1.2166,1.2725,1.2998,1.3089,1.2998,0.0,0.0,0.0,0.0,1.2513,1.4109,1.4514,1.4789,1.5869,1.513,1.4398,1.496,1.504,1.5576,0.0,1.7407,1.7144,1.7312,0.0,0.0,0.0,0.0,1.8238,1.778,1.7975,1.825,1.839,1.9381,2.0177,2.0632,2.0764,2.0703,2.0453,2.1075,2.1351,2.1139,2.1747,2.2152,2.2282,0.0,0.0,0.0,0.0,0.0,0.0,0.0,0.0,0.0,0.0,0.0,0.0,0.0,0.0,0.0,0.0,0.0,0.0,0.0,0.0,0.0,0.0,0.0,0.0,0.0,0.0,0.0,0.0,0.0,1.6284,1.6139,0.0,0.0,0.0,0.0,1.5659,1.4082,1.3056,1.3057,1.543,1.6046,1.4501,1.5872,1.6766,1.6849,1.6849,1.6849,1.678,1.3856,1.2458,1.2519,1.2372,1.2271,1.2211,1.2211,1.2211,1.2037,0.9921,0.9316,0.9718,0.9211,0.9361,0.9814,0.9814,0.9762,0.9762,0.9762,0.9762,1.0123,1.2215,1.2919,1.2898,1.289,1.2861,0.0,0.0,1.2909,1.2871,1.2958,1.3017,1.3478,1.5379,1.4362,1.3027,1.3017,1.3525,1.4479,0.0,1.6479,1.6405,1.6522,0.0,1.6951,1.7932,1.784,1.7693,1.7786,1.7972,1.8207,1.8482,1.8765,1.9192,1.9711,2.0124,2.0366,2.0501,2.0846,2.1165,2.1458,2.1538,2.1768,2.2214,2.2214,0.0,0.0,0.0,0.0,0.0,0.0,0.0,0.0,0.0,0.0,0.0,0.0,0.0,0.0,0.0,0.0,0.0,0.0,0.0,0.0,0.0,0.0,0.0,0.0,0.0,0.0,0.0,0.0,1.5827,1.6087,0.0,1.5455,1.43,1.3552,1.3447,1.3729,1.4391,1.5448,1.6352,1.6364,1.5126,1.5241,1.5257,1.5087,1.432,1.432,1.5102,1.4003,1.3447,1.3447,1.3447,1.3447,1.3447,1.3447,1.3447,1.3387,1.2552,1.1438,1.0223,1.0052,1.0112,1.0223,1.0223,1.0223,1.0223,1.0223,1.0223,1.0394,1.1143,1.0895,1.0541,1.1968,1.2382,1.2236,1.1583,1.1434,1.148,1.1798,1.1973,1.2537,1.4063,1.413,1.3806,1.3904,1.4072,1.4204,1.4189,1.4755,1.5299,1.5332,1.5976,1.6637,1.6993,1.6951,1.6921,1.6976,1.7131,1.7256,1.7214,1.7894,1.8525,1.9087,1.9303,1.9651,2.0224,2.0431,2.0731,2.1119,2.1166,2.126,2.1432,2.1631,2.1781,0.0,0.0,0.0,0.0,0.0,0.0,0.0,0.0,0.0,0.0,0.0,0.0,0.0,0.0,0.0,0.0,0.0,0.0,0.0,0.0,0.0,0.0,0.0,0.0,0.0,0.0,1.5571,1.5701,1.6242,1.642,1.6061,1.5269,1.4307,1.2998,1.4405,1.6019,1.7633,1.7715,1.6675,1.4464,1.498,1.4924,1.4068,1.33,1.3307,1.4088,1.4088,1.3913,1.3652,1.3652,1.3652,1.3652,1.3652,1.3652,1.3652,1.3652,1.1945,0.9537,1.074,1.1149,1.1149,1.1149,1.1149,1.1089,1.0759,1.0624,1.0624,1.0624,1.0033,0.9673,1.1146,1.1581,1.1447,1.0759,1.0434,1.0397,1.1085,1.1258,1.1639,1.2985,1.3503,1.3763,1.3848,1.3998,1.3975,1.3326,1.3914,1.4479,1.4165,1.4755,1.5299,1.5299,1.5844,1.6262,1.6262,1.6491,1.662,1.6595,1.7297,1.7948,1.8408,1.8741,1.9043,1.9413,1.9687,1.9989,2.0382,2.0434,2.0601,2.0975,2.126,2.1415,2.1399,0.0,0.0,0.0,0.0,0.0,0.0,0.0,0.0,0.0,0.0,0.0,0.0,0.0,0.0,0.0,0.0,0.0,0.0,0.0,0.0,0.0,0.0,0.0,1.484,1.4702,1.4894,1.6182,1.667,1.6608,1.5798,1.6137,1.5916,1.4676,1.6083,1.7588,1.9052,1.9054,1.7002,1.2466,1.5246,1.5931,1.4075,1.4088,1.4088,1.4088,1.4088,1.3568,1.2705,1.2705,1.2705,1.2705,1.2613,1.2528,1.2528,1.2528,1.0356,0.7425,1.0795,1.2077,1.2077,1.2077,1.215,1.2131,1.0969,1.0588,1.0608,1.0575,1.0561,1.0561,1.0561,1.0588,1.0608,1.0568,1.006,0.9796,1.0797,1.0861,1.0877,1.2151,1.2468,1.2545,1.2554,1.3164,1.3659,1.3659,1.3993,1.4005,1.3095,1.291,1.291,1.2881,1.4547,0.0,1.5703,1.6057,1.6392,1.671,1.7018,1.7338,1.7747,1.8419,1.8612,1.8145,1.8574,1.9029,1.9353,1.9339,1.9818,2.0828,2.1103,2.1166,2.1007,0.0,0.0,0.0,0.0,0.0,0.0,0.0,0.0,0.0,0.0,0.0,0.0,0.0,0.0,0.0,0.0,0.0,0.0,0.0,0.0,0.0,0.0,1.169,1.2866,1.3795,1.462,1.5106,1.528,1.5549,1.5918,1.6714,1.7171,1.7128,1.8073,1.7465,1.4664,1.4518,1.3881,1.2605,1.3391,1.3625,1.313,1.3052,1.3052,1.3052,1.3052,1.296,1.2705,1.2705,1.2705,1.2528,0.9836,0.8619,0.8619,0.8619,0.8009,0.7169,0.7748,0.7927,0.7927,0.7927,0.9442,1.1254,1.0176,1.0312,1.0839,1.0052,0.9798,0.9798,0.9798,1.0343,1.0802,1.0021,0.999,1.0201,1.0299,1.0353,1.0522,1.0792,1.1195,1.1628,1.187,1.2704,1.3379,1.3371,1.3956,1.4179,1.3407,1.3549,1.3584,1.2969,1.4547,0.0,1.3905,1.5006,1.5824,1.5599,1.6194,1.6723,1.7034,1.7449,1.7733,1.7867,1.8066,1.8249,1.8468,1.8468,1.8873,1.9783,1.9958,2.0366,0.0,0.0,0.0,0.0,0.0,0.0,0.0,0.0,0.0,0.0,0.0,0.0,0.0,0.0,0.0,0.0,0.0,0.0,0.0,0.0,0.0,0.0,1.1303,1.1563,1.2108,1.3315,1.423,1.4689,1.4942,1.5232,1.5623,1.639,1.6879,1.6966,1.6686,1.5426,1.2869,1.2705,1.2705,1.2705,1.2705,1.2705,1.2705,1.2705,1.2705,1.2705,1.2705,1.2705,1.2705,1.2705,1.1655,0.9657,0.7485,0.6526,0.6526,0.6526,0.6526,0.0,0.0,0.0,0.0,0.0,0.748,0.9,0.8355,0.8582,0.915,0.9415,0.9484,0.9562,1.0,1.0321,1.0417,1.0248,1.0104,1.0073,1.0226,1.0182,1.0155,1.0179,1.0792,1.1326,1.1417,1.2183,1.2873,1.285,1.345,0.0,1.3258,1.3784,1.4181,1.3961,1.4293,1.4176,1.3065,1.3905,1.4674,1.4971,1.5421,1.5744,1.5852,1.6416,0.0,0.0,0.0,1.7585,1.772,1.7947,0.0,0.0,0.0,1.9507,2.0019,2.0227,0.0,0.0,2.0878,2.1087,0.0,0.0,0.0,0.0,0.0,0.0,0.0,0.0,0.0,0.0,0.0,0.0,0.0,0.0,0.0,0.0,1.1343,1.2071,1.2211,1.2947,1.3809,1.458,1.4925,1.5117,1.5021,1.5383,1.544,1.5137,1.3626,1.2619,1.2534,0.0,0.0,0.0,0.0,1.2653,1.2534,1.2534,1.2534,1.2534,1.2534,1.2534,1.2534,1.2534,1.0009,0.5733,0.5733,0.5733,0.5733,0.5733,0.5733,0.5775,0.6009,0.6183,0.6183,0.6183,0.6227,0.6205,0.6205,0.0,0.0,0.8381,0.8997,0.9247,1.0176,1.0053,0.9716,1.0706,1.0283,0.9742,1.0305,1.0123,0.9833,1.0042,1.0699,1.117,1.0987,1.1625,1.224,1.2242,1.276,1.3099,1.284,1.3779,1.4638,1.5071,1.3883,1.29,1.2842,1.2881,1.3382,1.4503,0.0,0.0,1.4457,1.5407,1.5804,1.5332,1.6306,1.6956,1.7067,1.7718,1.8098,1.8193,1.8618,1.8829,1.8906,1.9194,1.9315,1.9353,2.0224,2.0565,0.0,0.0,0.0,0.0,0.0,0.0,0.0,0.0,0.0,0.0,0.0,0.0,0.0,0.0,0.0,1.1369,1.1621,1.1746,1.2238,1.258,1.3157,1.3814,1.353,1.3629,1.4522,1.3848,1.3288,1.3209,1.2875,1.2369,1.1602,1.1602,1.2314,1.396,1.3237,1.2395,1.1613,1.1602,1.1602,1.1602,0.0,0.0,1.1602,1.1602,0.9414,0.5733,0.5733,0.5733,0.5733,0.5733,0.5733,0.5687,0.5367,0.5249,0.5249,0.5249,0.5507,0.5854,0.5854,0.559,0.5309,0.5736,0.6162,0.6476,0.6672,0.815,0.0,1.0093,1.016,1.0149,0.9867,0.9831,0.982,0.9663,0.9915,1.0244,1.0405,1.0969,1.149,1.1678,1.201,1.2235,1.2173,1.3562,1.4359,1.3532,1.3246,1.294,1.2487,1.289,1.3304,1.3494,1.3935,1.4261,1.4258,1.4492,1.4664,1.4687,1.5718,1.6368,1.638,1.7439,1.8241,1.8648,1.887,1.9179,1.9611,1.9211,1.9001,1.9028,1.9715,2.0019,0.0,0.0,0.0,0.0,0.0,0.0,0.0,0.0,0.0,0.0,0.0,0.7569,0.0,0.0,0.8648,0.9798,1.0312,1.0725,1.1369,1.2221,1.2822,1.3165,1.2875,1.2971,1.3502,1.2823,1.2454,1.2705,1.2283,1.1986,1.2032,1.2059,1.2554,1.3516,1.305,1.2538,1.2064,1.2059,1.1822,1.1262,1.1262,1.043,0.887,0.8613,0.7492,0.5733,0.5733,0.5733,0.5733,0.5733,0.5733,0.5687,0.5205,0.5018,0.5018,0.5018,0.5167,0.5374,0.5374,0.5219,0.5056,0.5298,0.5537,0.5733,0.5733,0.8037,1.0536,1.0056,0.9985,1.02,1.0313,0.9935,0.9563,0.9736,0.9814,0.9878,1.0203,1.056,1.0805,1.0873,1.1283,1.1536,1.1272,1.2385,1.3441,1.3659,1.3109,1.254,1.2262,1.2501,1.2686,1.2745,1.3016,1.3246,1.3324,1.3684,1.4003,1.434,1.5216,1.582,1.6162,1.7003,1.7773,1.8401,1.8668,1.8976,1.9293,1.9249,1.9216,1.9216,1.954,1.9695,0.0,0.0,0.0,0.0,0.0,0.0,0.0,0.0,0.5948,0.6802,0.673,0.66,0.6921,0.7111,0.74,0.7858,0.8949,0.9921,1.0428,1.1424,1.2123,1.2406,1.2553,1.2682,1.2734,1.2394,1.2323,1.2663,1.2059,1.1957,1.2721,1.2764,1.2764,1.2764,1.2764,1.2764,1.2764,1.2764,1.2382,1.1623,1.0721,0.8878,0.6287,0.5907,0.5733,0.5738,0.5831,0.5817,0.5733,0.5733,0.5733,0.5695,0.5309,0.5156,0.5146,0.505,0.5018,0.5018,0.5018,0.5078,0.5219,0.5608,0.5733,0.5733,0.5733,0.7841,1.0062,0.9284,0.9581,1.0188,1.0692,1.0131,0.9559,0.9835,0.9923,0.9961,1.0295,1.0343,1.0353,1.0349,1.0642,1.0763,1.0347,1.1029,1.2074,1.3514,1.2653,1.1879,1.1877,1.1868,1.1968,1.2224,1.2274,1.2323,1.2431,1.3017,1.3552,1.3973,1.4774,1.5472,1.5961,1.6612,1.7329,1.8044,1.8455,1.8741,1.8956,1.9258,1.9375,1.9375,1.9375,1.9456,0.3406,0.3432,0.348,0.368,0.3685,0.3757,0.0,0.0,0.4678,0.5509,0.599,0.6179,0.5835,0.6966,0.7858,0.7625,0.8935,1.0104,1.0134,0.9674,0.978,1.1225,1.2195,1.2769,1.2753,1.272,1.2699,1.2794,1.2699,1.2651,1.2759,1.2764,1.2764,1.2764,1.2764,1.2764,1.2764,1.2764,1.2711,1.2603,0.8796,0.6545,0.5812,0.5757,0.5733,0.5757,0.6176,0.6119,0.5733,0.5733,0.5733,0.5727,0.5676,0.5654,0.5602,0.5175,0.5018,0.5018,0.5018,0.5298,0.5662,0.5716,0.5733,0.5733,0.5733,0.5997,0.6337,0.6189,0.8275,1.0455,1.0106,1.0215,1.021,0.9513,0.9976,1.0558,1.0502,1.0507,1.0502,1.0713,1.0219,0.985,0.9922,0.9999,1.0212,1.0758,1.102,1.1106,1.1099,1.1124,1.1384,1.2076,1.2126,1.2175,1.2323,1.2802,1.3164,1.3215,1.4576,1.5399,1.5506,1.6678,1.7607,1.8265,1.8548,1.8967,1.9533,1.9208,1.9005,1.8894,1.9018,1.9214,0.2306,0.2818,0.3144,0.0,0.3187,0.3377,0.3628,0.3708,0.3944,0.4845,0.4877,0.4949,0.5182,0.5548,0.5819,0.0,0.6623,0.7117,0.7415,0.6921,0.6722,0.7419,0.7908,0.9387,1.2467,1.2764,1.2273,1.0998,1.2078,1.2764,1.2764,1.0386,0.9103,0.9103,0.9103,0.8803,0.8103,0.8103,0.8103,0.8103,0.6326,0.5347,0.5179,0.4945,0.4926,0.4935,0.5104,0.5083,0.4945,0.5092,0.5188,0.5188,0.5188,0.5044,0.4905,0.5251,0.5257,0.5018,0.5018,0.5148,0.5317,0.5317,0.5317,0.5317,0.5317,0.5513,0.5676,0.5396,0.6447,0.7688,0.7548,0.759,0.7623,0.7277,0.8718,1.0405,1.0869,1.0721,1.0519,1.0599,1.011,0.9713,0.9624,0.9581,0.9487,0.9512,1.0172,1.0725,1.0965,1.0783,1.0845,1.141,1.1957,1.2364,1.2517,1.301,1.3359,1.3359,1.4215,1.4968,1.5389,1.6175,1.7,1.7776,1.8201,1.8632,1.8951,1.9135,1.9191,1.9128,1.9191,1.9309,0.1073,0.0,0.0,0.2364,0.2533,0.2773,0.267,0.2816,0.3151,0.3891,0.3725,0.3709,0.4407,0.4083,0.3925,0.4505,0.472,0.4935,0.5334,0.5035,0.4798,0.47,0.46,0.6081,1.0044,1.0446,0.987,0.8411,0.9698,1.0574,1.0574,0.7617,0.5937,0.5937,0.5937,0.5634,0.4834,0.4834,0.4834,0.4834,0.4834,0.4783,0.4677,0.4418,0.43,0.43,0.43,0.43,0.4318,0.4579,0.4685,0.4685,0.4685,0.4589,0.4539,0.5189,0.5282,0.5018,0.5018,0.5018,0.5018,0.5018,0.5018,0.5018,0.5018,0.526,0.5464,0.5116,0.5268,0.5534,0.5534,0.5534,0.5534,0.5534,0.7177,0.9194,1.0735,1.063,1.0225,1.045,0.9946,0.9471,0.9559,0.9464,0.9274,0.9163,0.9644,1.016,1.0534,1.0406,1.0416,1.0824,1.1479,1.2061,1.2493,1.2978,1.3332,1.3626,1.411,1.4668,1.5193,1.5646,1.6218,1.7056,1.7556,1.7929,1.8201,1.8697,1.8869,1.8869,1.8869,1.8869,0.0,0.0,0.1236,0.1425,0.1408,0.1462,0.158,0.1732,0.1859,0.2479,0.2584,0.2662,0.3161,0.3189,0.3211,0.3251,0.4084,0.4834,0.4834,0.4834,0.4706,0.4357,0.4008,0.4014,0.0,0.4582,0.4642,0.4908,0.5033,0.5033,0.5033,0.4935,0.4834,0.4834,0.4834,0.4834,0.4834,0.4834,0.4834,0.4834,0.4834,0.4651,0.4314,0.4304,0.43,0.43,0.43,0.43,0.43,0.431,0.4314,0.4314,0.4314,0.4522,0.4818,0.4818,0.4917,0.5018,0.5018,0.5018,0.5018,0.5018,0.5018,0.5018,0.5018,0.5026,0.5034,0.5021,0.5026,0.5037,0.5037,0.5037,0.5037,0.5037,0.5466,0.6689,0.9911,0.9921,0.9509,1.029,0.9483,0.8963,0.9908,0.9708,0.9462,0.9633,0.9319,0.9166,0.9437,0.9758,1.0098,1.0409,1.0447,1.0911,1.1917,1.2387,1.3018,1.3798,1.4406,1.4697,1.4746,1.5079,1.5498,1.6114,1.6436,1.6821,1.7435,1.7578,1.7589,1.7435,1.7578,1.7578,-0.171,0.0,-0.1434,-0.1361,-0.086,-0.0299,0.0104,0.0938,0.1766,0.1973,0.1954,0.2,0.2437,0.2233,0.2228,0.2909,0.3276,0.3428,0.3428,0.3026,0.2791,0.3096,0.2615,0.0,0.0,0.0,0.0,0.4469,0.47,0.4834,0.4834,0.4834,0.4834,0.4834,0.4834,0.4834,0.4834,0.4834,0.4834,0.4834,0.4834,0.4647,0.43,0.43,0.43,0.43,0.43,0.43,0.43,0.43,0.43,0.43,0.43,0.4373,0.4508,0.4747,0.4718,0.4509,0.4245,0.4233,0.4233,0.4233,0.4233,0.4233,0.4233,0.4548,0.5018,0.5018,0.5018,0.5018,0.5018,0.5018,0.5018,0.5018,0.514,0.5557,0.6655,0.7789,0.8509,0.8265,0.8908,0.9373,0.8993,0.9241,0.9475,0.948,0.9294,0.9109,0.9094,0.9489,0.9792,1.0003,1.0544,1.111,1.1573,1.1944,1.251,1.3246,1.3614,1.3983,1.4529,1.4775,1.502,1.5371,1.5874,1.6275,1.656,1.6989,1.7213,1.7268,1.7313,1.7313,-0.3372,-0.3865,-0.4183,-0.3452,-0.2891,-0.2238,-0.1392,-0.0319,0.0524,0.0608,0.0794,0.0955,0.1309,0.12,0.1276,0.1828,0.207,0.2228,0.231,0.1919,0.1754,0.2105,0.1873,0.19,0.0,0.0,0.0,0.4293,0.4632,0.4834,0.4834,0.4834,0.4834,0.4834,0.4834,0.4834,0.4834,0.4834,0.4834,0.4834,0.4834,0.4647,0.43,0.43,0.43,0.43,0.43,0.43,0.43,0.43,0.43,0.43,0.43,0.43,0.4328,0.4559,0.4498,0.4246,0.3887,0.3763,0.3763,0.3763,0.3763,0.3763,0.3763,0.4155,0.4626,0.494,0.5018,0.5018,0.5018,0.5018,0.5018,0.5018,0.5018,0.5018,0.5018,0.608,0.6911,0.6451,0.7344,0.8116,0.8062,0.8906,0.9536,0.931,0.9355,0.9294,0.8838,0.9022,0.9304,0.9459,1.004,1.0678,1.1141,1.1399,1.1888,1.2573,1.2757,1.3191,1.4052,1.4222,1.446,1.4902,1.5362,1.5594,1.572,1.6104,1.6322,1.6425,1.6425,1.6425,-0.5578,-0.6429,-0.6695,-0.4813,-0.4419,-0.4229,-0.2953,-0.2173,-0.1694,-0.1356,-0.0839,-0.0444,0.0,0.0,0.0387,-0.0076,0.0731,0.1427,0.149,0.1615,0.1615,0.0,0.0,0.0,0.0,0.0,0.0,0.4036,0.0,0.4734,0.4834,0.4834,0.4834,0.4834,0.4834,0.4834,0.4834,0.4834,0.4834,0.4834,0.4834,0.4657,0.4326,0.4308,0.43,0.43,0.43,0.43,0.43,0.43,0.43,0.43,0.43,0.43,0.43,0.43,0.43,0.4251,0.391,0.3779,0.3763,0.3763,0.3763,0.3763,0.3763,0.3763,0.3999,0.4781,0.5018,0.5018,0.4937,0.494,0.4937,0.4937,0.5018,0.5018,0.5018,0.5018,0.5021,0.5031,0.5034,0.5569,0.7161,0.8775,0.9654,0.9029,0.9466,0.9513,0.8731,0.8595,0.8657,0.8886,0.9027,0.955,1.062,1.071,1.108,1.1888,1.195,1.2328,1.3199,1.3364,1.3777,1.4588,1.4843,1.4911,1.497,1.497,1.497,1.497,1.497,1.497,-0.5923,-0.6476,-0.6907,-0.6406,-0.6245,-0.593,-0.4473,-0.3418,-0.2439,-0.1782,-0.1371,-0.1005,0.0,0.0,0.0,-0.0512,0.0155,0.0,0.0667,0.1191,0.0,0.1555,0.0,0.1817,0.1784,0.1784,0.0,0.0,0.2371,0.3127,0.4734,0.4834,0.4834,0.4834,0.4834,0.4834,0.4834,0.4834,0.4834,0.4834,0.4834,0.4785,0.4687,0.442,0.43,0.43,0.43,0.43,0.43,0.43,0.43,0.43,0.43,0.43,0.43,0.43,0.43,0.4285,0.4193,0.3987,0.3763,0.3763,0.3763,0.3763,0.3763,0.3763,0.3999,0.4781,0.5018,0.4859,0.4233,0.4075,0.4153,0.4465,0.4779,0.5018,0.5018,0.5018,0.5069,0.5246,0.5764,0.6337,0.674,0.8125,0.9009,0.8534,0.9135,0.9439,0.884,0.8969,0.9121,0.9,0.8983,0.9197,0.964,0.9716,1.0028,1.085,1.1024,1.1454,1.2143,1.232,1.281,1.3631,1.3692,1.4052,1.4775,1.4775,1.4843,1.497,1.497,1.497,-0.6325,-0.6722,-0.7059,-0.7059,-0.7062,-0.6764,-0.5617,-0.4614,-0.3667,-0.2857,-0.2373,0.0,-0.1674,0.0,0.0,0.0,0.0,0.0,-0.0179,0.0752,0.1351,0.0,0.1379,0.0,0.1543,0.1566,0.1583,0.0,0.1605,0.212,0.3328,0.3428,0.3428,0.3428,0.3428,0.383,0.4834,0.4834,0.4834,0.4834,0.4834,0.4834,0.4822,0.4463,0.43,0.43,0.0,0.43,0.43,0.43,0.43,0.43,0.43,0.43,0.43,0.43,0.43,0.43,0.43,0.4167,0.3997,0.3997,0.3891,0.3763,0.3763,0.3763,0.3919,0.4311,0.4603,0.454,0.3961,0.3961,0.4068,0.4088,0.4465,0.4779,0.4937,0.4856,0.4838,0.528,0.5688,0.5922,0.6045,0.7107,0.7902,0.8088,0.8739,0.914,0.8961,0.917,0.9203,0.9062,0.902,0.9017,0.9145,0.9145,0.9402,0.9913,1.0091,1.0521,1.1337,1.1454,1.1888,1.2704,1.3009,1.3442,1.3983,1.4359,1.4556,1.4675,1.4743,1.4803,-0.6714,-0.6986,-0.7149,-0.7135,-0.7097,-0.6885,-0.6214,-0.5537,-0.4825,-0.4128,0.0,-0.3029,-0.2846,-0.2334,-0.204,-0.2375,0.0,-0.0423,-0.0933,0.0356,0.1117,0.0601,0.1212,0.1617,0.1617,0.1617,0.1617,0.1617,0.1617,0.1617,0.1617,0.1617,0.1617,0.1617,0.1617,0.2523,0.4332,0.4332,0.4332,0.4332,0.4332,0.4332,0.4323,0.4043,0.3915,0.3913,0.3959,0.3941,0.3941,0.3941,0.3941,0.3941,0.3941,0.403,0.43,0.43,0.43,0.43,0.43,0.43,0.43,0.43,0.4087,0.3834,0.3834,0.3834,0.3824,0.3777,0.4006,0.4197,0.391,0.4118,0.4223,0.3887,0.4086,0.4384,0.4781,0.4529,0.4474,0.5032,0.51,0.5039,0.5292,0.6112,0.6965,0.7634,0.8389,0.8946,0.928,0.9204,0.9091,0.9058,0.8969,0.8952,0.8952,0.8952,0.9081,0.9274,0.9274,0.9646,1.0584,1.0584,1.1017,1.1826,1.2389,1.2757,1.2879,1.37,1.4148,1.4139,1.4327,1.4446,-0.6931,-0.7051,-0.7133,-0.7037,-0.679,-0.6461,-0.6032,-0.5376,0.0,0.0,-0.3945,-0.3561,-0.3126,-0.3159,-0.3121,-0.272,0.0,0.0,0.0,0.0,0.0864,0.0,0.0,0.0,0.0,0.0,0.0,0.0,0.0,0.1617,0.1617,0.1617,0.1617,0.1617,0.1617,0.1818,0.2121,0.2121,0.2121,0.2121,0.2121,0.2121,0.212,0.2092,0.208,0.2073,0.194,0.0,0.1883,0.1883,0.1883,0.1883,0.1883,0.2867,0.43,0.43,0.43,0.43,0.43,0.43,0.43,0.43,0.4257,0.4206,0.4206,0.4206,0.4144,0.3846,0.3916,0.4102,0.4185,0.4085,0.3893,0.3891,0.3914,0.3919,0.3997,0.4012,0.4026,0.4084,0.4473,0.4767,0.4783,0.6143,0.7234,0.7507,0.8737,0.9739,0.9809,0.941,0.914,0.895,0.8717,0.8641,0.8835,0.8835,0.8894,0.9017,0.9081,0.921,0.9524,0.9588,1.0021,1.1017,1.1142,1.1516,1.2197,1.2887,1.326,1.326,1.3821,1.4198,-0.704,-0.7114,-0.7127,-0.7013,-0.6711,-0.6282,-0.567,0.0,0.0,0.0,-0.3789,-0.3648,-0.3423,0.0,0.0,0.0,0.0,0.0,0.0,0.0,0.0,0.0,0.0,0.0,0.0,0.0,0.0,0.0,0.0,0.1617,0.1617,0.1617,0.1617,0.1617,0.1617,0.1617,0.1617,0.1617,0.1617,0.1617,0.1617,0.1617,0.1617,0.1617,0.1582,0.1519,0.1461,0.1436,0.1436,0.1436,0.1436,0.1436,0.1436,0.2598,0.43,0.43,0.43,0.43,0.43,0.43,0.43,0.43,0.43,0.43,0.43,0.43,0.4263,0.4091,0.4106,0.4148,0.4046,0.403,0.401,0.3879,0.3805,0.3814,0.4001,0.3963,0.3887,0.3861,0.4036,0.4266,0.4482,0.5207,0.6162,0.7173,0.8003,0.8846,0.9765,0.9615,0.9308,0.9066,0.8834,0.8712,0.8652,0.8641,0.8705,0.8894,0.8894,0.9022,0.9274,0.9274,0.9588,1.0098,1.0478,1.0843,1.1219,1.202,1.2389,1.2389,1.313,1.3511,-0.7059,-0.7135,-0.7122,-0.698,-0.6632,-0.6116,-0.533,-0.4833,0.0,0.0,-0.3585,-0.3585,-0.3585,0.0,0.0,0.0,0.0,0.0,0.0,0.0,0.0,0.0,0.0,0.0,0.0,0.0,0.0,0.0,0.0,0.1617,0.1617,0.1617,0.1617,0.1617,0.1617,0.1617,0.1617,0.1617,0.1617,0.1617,0.1617,0.1617,0.1617,0.1617,0.1551,0.1437,0.1463,0.1474,0.1472,0.1446,0.1436,0.1436,0.1436,0.2331,0.3762,0.4119,0.43,0.43,0.43,0.43,0.43,0.43,0.43,0.43,0.43,0.43,0.43,0.43,0.43,0.4234,0.395,0.4059,0.4161,0.384,0.3822,0.3955,0.4238,0.4048,0.3844,0.3926,0.3861,0.3942,0.4311,0.4462,0.5157,0.6777,0.7314,0.8003,0.9544,0.9691,0.9556,0.9308,0.9034,0.877,0.8533,0.8517,0.8582,0.8705,0.8705,0.8899,0.921,0.921,0.928,0.9478,0.9977,1.0231,1.0295,1.1094,1.1524,1.1524,1.2328,1.2696,-0.6964,-0.7076,-0.71,-0.6874,-0.6382,-0.579,-0.5173,0.0,0.0,-0.3664,-0.3585,-0.3585,-0.3585,-0.3309,-0.3033,0.0,0.0,-0.2179,0.0,0.0,0.0,0.0,0.0,0.0,0.0,0.0,0.0,0.0,0.1617,0.1617,0.1617,0.1617,0.1617,0.1617,0.1617,0.1617,0.1617,0.1617,0.1617,0.1617,0.1617,0.1617,0.1617,0.1617,0.1551,0.1442,0.1552,0.16,0.0,0.1481,0.1436,0.1436,0.1436,0.1524,0.1883,0.3671,0.43,0.43,0.43,0.43,0.43,0.43,0.43,0.43,0.43,0.43,0.43,0.43,0.43,0.4291,0.4259,0.4157,0.401,0.381,0.4012,0.4259,0.4291,0.4146,0.3997,0.395,0.3912,0.3941,0.4095,0.4771,0.5538,0.6465,0.7536,0.8537,0.9241,0.9679,0.9798,0.9572,0.9136,0.877,0.8533,0.8517,0.8517,0.8517,0.8517,0.8641,0.8835,0.8835,0.9022,0.9338,0.9402,0.9466,0.9606,1.0295,1.0604,1.0611,1.1337,1.1764,-0.6763,-0.6907,-0.6921,-0.6825,-0.6298,-0.5662,-0.5137,0.0,0.0,-0.3659,-0.3585,-0.3527,-0.3357,-0.3077,-0.2824,0.0,0.0,0.0,0.0,0.0,0.0,0.0,0.0,0.0,0.0,0.0,0.0,0.0,0.1617,0.1617,0.1617,0.1617,0.1617,0.1617,0.1617,0.1617,0.1617,0.1617,0.1617,0.1617,0.1617,0.1617,0.1617,0.1617,0.159,0.1543,0.1518,0.1549,0.0,0.1485,0.1436,0.1436,0.1436,0.1436,0.1614,0.3583,0.43,0.43,0.43,0.43,0.43,0.43,0.43,0.43,0.43,0.43,0.43,0.43,0.43,0.43,0.43,0.4246,0.4175,0.4102,0.4195,0.43,0.43,0.4244,0.4165,0.4067,0.404,0.3991,0.3949,0.4241,0.477,0.5628,0.6542,0.7391,0.8318,0.8856,0.9225,0.9228,0.9129,0.8974,0.8743,0.8597,0.8517,0.8517,0.8646,0.8788,0.8981,0.9131,0.9344,0.9541,0.9541,0.9541,0.9614,0.9778,0.9896,0.9968,1.0544,1.0939,-0.6401,-0.6641,-0.6738,-0.6703,-0.6157,-0.551,0.0,0.0,0.0,-0.3642,-0.3585,-0.3471,-0.3188,-0.2854,-0.2691,0.0,0.0,-0.1918,0.0,0.0,0.0,0.0,0.0,0.0,0.0,0.0,0.0,0.0,0.1111,0.1617,0.1617,0.1617,0.1617,0.1617,0.1617,0.1617,0.1617,0.1617,0.1617,0.1617,0.1617,0.1617,0.1617,0.1617,0.1617,0.1612,0.1526,0.1538,0.0,0.1485,0.1436,0.1436,0.1436,0.1436,0.1614,0.3583,0.43,0.43,0.43,0.43,0.43,0.43,0.43,0.43,0.43,0.43,0.43,0.43,0.43,0.43,0.43,0.43,0.43,0.43,0.43,0.43,0.43,0.43,0.4267,0.4157,0.4114,0.4055,0.3922,0.3877,0.4152,0.5015,0.5777,0.6549,0.7472,0.8241,0.8722,0.8867,0.8949,0.8936,0.8985,0.8754,0.8646,0.8716,0.8872,0.9026,0.9094,0.9333,0.9502,0.9642,0.9642,0.9637,0.9706,0.9593,0.9508,0.9643,1.0042,1.0515,-0.5847,-0.626,-0.6592,-0.6469,-0.5904,-0.5279,0.0,0.0,-0.3782,-0.3607,-0.3585,-0.3471,-0.3188,-0.2854,-0.2577,-0.224,-0.1964,0.0,0.0,0.0,0.0,0.0,0.0,0.0,0.0,0.0,0.0,0.0,-0.0202,0.0,0.1617,0.1617,0.1617,0.1617,0.1617,0.1617,0.1617,0.1617,0.1617,0.1617,0.1617,0.1617,0.1617,0.1617,0.1617,0.1617,0.1615,0.1615,0.0,0.1485,0.1436,0.1436,0.1436,0.1436,0.1614,0.3583,0.43,0.43,0.43,0.43,0.43,0.43,0.43,0.43,0.43,0.43,0.43,0.43,0.43,0.43,0.43,0.43,0.43,0.43,0.43,0.43,0.43,0.43,0.4273,0.4189,0.4099,0.4008,0.3916,0.3824,0.3999,0.4623,0.5547,0.6472,0.7088,0.8084,0.8703,0.8699,0.8519,0.8602,0.9152,0.899,0.8958,0.9179,0.92,0.92,0.92,0.9206,0.9281,0.9508,0.9508,0.9572,0.9706,0.9701,0.9701,0.9701,0.991,1.0453,-0.5189,-0.5407,-0.5532,-0.5572,-0.5165,-0.4705,-0.4512,0.0,-0.3719,-0.3322,-0.3244,-0.3077,-0.2573,-0.2408,-0.2242,-0.1964,-0.1853,0.0,0.0,0.0,0.0,0.0,0.0,0.0,0.0,0.0,0.0,0.0,-0.222,-0.1716,-0.1716,0.0404,0.1617,0.1617,0.1617,0.1617,0.1617,0.1617,0.1617,0.1617,0.1617,0.1617,0.1617,0.1617,0.1617,0.1617,0.1617,0.1617,0.1607,0.1485,0.1436,0.1436,0.1436,0.1436,0.1435,0.2061,0.3135,0.43,0.43,0.43,0.43,0.43,0.3403,0.2331,0.2331,0.3224,0.43,0.43,0.43,0.43,0.43,0.43,0.43,0.43,0.43,0.43,0.43,0.43,0.4273,0.4189,0.4195,0.4148,0.3936,0.3928,0.3989,0.4095,0.4698,0.5395,0.6009,0.6784,0.7557,0.825,0.8071,0.8217,0.9021,0.8816,0.8852,0.92,0.9367,0.9459,0.9459,0.961,0.9696,0.9775,0.9775,0.9775,0.9843,0.9685,0.9597,0.9578,0.9882,1.0242,0.0,-0.4811,-0.4966,-0.5034,-0.4727,0.0,0.0,0.0,-0.3437,-0.3144,-0.3021,-0.2798,-0.2294,-0.2184,-0.2128,-0.1853,-0.1797,0.0,0.0,0.0,0.0,0.0,0.0,0.0,0.0,0.0,0.0,-0.323,-0.323,-0.323,-0.323,-0.1312,0.0303,0.1516,0.1617,0.1617,0.1617,0.1617,0.1617,0.1617,0.1617,0.1617,0.1617,0.1617,0.1617,0.1617,0.1617,0.1591,0.0,0.1467,0.1436,0.1436,0.1436,0.1436,0.1436,0.1436,0.2152,0.3226,0.3226,0.3226,0.3226,0.3226,0.2419,0.1436,0.1436,0.2777,0.43,0.43,0.43,0.43,0.43,0.43,0.43,0.43,0.43,0.43,0.43,0.43,0.4283,0.423,0.421,0.4146,0.3979,0.3942,0.3893,0.3779,0.4309,0.4932,0.5544,0.617,0.6945,0.7795,0.7761,0.7913,0.8589,0.8544,0.8739,0.9186,0.9406,0.9564,0.9707,0.9841,0.9922,0.9922,0.9922,0.9922,0.9922,0.9776,0.9704,0.978,0.9997,1.0211,0.0,0.0,0.0,0.0,0.0,0.0,0.0,0.0,0.0,-0.3019,-0.2856,-0.2577,-0.224,-0.2184,-0.2074,-0.1853,0.0,0.0,0.0,0.0,0.0,0.0,0.0,0.0,0.0,0.0,0.0,-0.323,-0.323,-0.323,-0.323,-0.323,-0.1817,0.1212,0.1313,0.1415,0.1617,0.1617,0.1617,0.1617,0.1617,0.1617,0.1616,0.1608,0.1604,0.0,0.1613,0.1548,0.1436,0.1436,0.1436,0.1436,0.1436,0.1436,0.1436,0.1436,0.1436,0.1436,0.1436,0.1436,0.1436,0.1436,0.1436,0.1436,0.1436,0.2777,0.43,0.43,0.43,0.43,0.43,0.43,0.43,0.43,0.43,0.43,0.43,0.43,0.43,0.43,0.4163,0.404,0.4028,0.3885,0.3771,0.3765,0.4309,0.4854,0.5467,0.6093,0.6791,0.7407,0.7484,0.7638,0.8025,0.8234,0.8659,0.9236,0.9322,0.9473,0.9846,0.9922,0.9922,0.9922,0.9922,0.9922,0.9922,0.9922,0.9992,1.0143,1.0143,1.0293,-0.3316,0.0,-0.3762,-0.3854,-0.3814,0.0,0.0,0.0,0.0,0.0,0.0,0.0,-0.1964,0.0,0.0,0.0,0.0,0.0,0.0,0.0,0.0,0.0,0.0,0.0,0.0,0.0,-0.323,-0.323,-0.323,-0.323,-0.323,-0.323,-0.2826,-0.2119,-0.1311,-0.0101,0.1617,0.1617,0.1617,0.1617,0.1617,0.1617,0.1613,0.1521,0.1478,0.1483,0.1577,0.1548,0.1436,0.1436,0.1436,0.1436,0.1436,0.1436,0.1436,0.1436,0.1436,0.1436,0.1436,0.1436,0.1436,0.1436,0.1436,0.1436,0.1436,0.2777,0.43,0.43,0.43,0.43,0.43,0.43,0.43,0.43,0.43,0.43,0.43,0.43,0.43,0.43,0.4212,0.4095,0.3957,0.3895,0.3844,0.3773,0.3919,0.4231,0.4851,0.547,0.6089,0.6714,0.7253,0.7561,0.7638,0.7982,0.8509,0.9246,0.9322,0.9473,0.9846,0.9922,0.9922,0.9922,0.9922,0.9922,0.9922,0.9922,0.9916,0.9997,0.9997,0.9992,-0.2941,-0.3205,-0.343,-0.3553,-0.3585,-0.3527,0.0,0.0,0.0,0.0,0.0,0.0,0.0,0.0,0.0,0.0,0.0,0.0,0.0,0.0,0.0,0.0,0.0,0.0,0.0,0.0,-0.323,-0.323,-0.323,-0.323,-0.323,-0.323,-0.323,-0.323,-0.2623,-0.1513,0.0101,0.1111,0.1617,0.1617,0.1617,0.1617,0.1613,0.1491,0.1436,0.1439,0.1505,0.1496,0.1436,0.1436,0.1436,0.1436,0.1436,0.1436,0.1436,0.1436,0.1436,0.1436,0.1436,0.1436,0.1436,0.1436,0.1436,0.1436,0.1436,0.2152,0.2956,0.2956,0.2956,0.2956,0.2956,0.2956,0.2956,0.2956,0.2956,0.3224,0.4119,0.43,0.43,0.43,0.4218,0.4099,0.3946,0.3908,0.3883,0.3834,0.3826,0.4079,0.4763,0.5308,0.5883,0.6585,0.7146,0.7484,0.7484,0.7714,0.8102,0.8713,0.8713,0.9018,0.962,0.962,0.9695,0.9922,0.9922,0.9922,0.9922,0.9922,0.9922,0.9922,0.9922,0.9922,-0.269,-0.299,-0.33,-0.3492,-0.3527,-0.3527,0.0,0.0,0.0,0.0,0.0,0.0,0.0,0.0,0.0,0.0,0.0,0.0,0.0,0.0,0.0,0.0,0.0,0.0,0.0,-0.323,-0.323,-0.323,-0.323,-0.323,-0.323,-0.323,-0.323,-0.323,-0.323,-0.2722,-0.1807,-0.0,0.0909,0.0909,0.0909,0.0903,0.0892,0.0834,0.0718,0.0807,0.0,0.0,0.1436,0.1436,0.1436,0.1436,0.1436,0.1436,0.1436,0.1436,0.1436,0.1436,0.1436,0.1436,0.1436,0.1436,0.1436,0.1436,0.1436,0.1436,0.1436,0.1436,0.1436,0.1436,0.1436,0.1436,0.1436,0.1436,0.1436,0.1883,0.3494,0.3851,0.3941,0.4208,0.4216,0.4106,0.3977,0.3914,0.3891,0.3928,0.3932,0.4114,0.4748,0.5236,0.5771,0.643,0.7028,0.7407,0.7484,0.7484,0.7638,0.7949,0.8102,0.8408,0.917,0.9246,0.9392,0.969,0.9771,0.9846,0.9846,0.9846,0.9922,0.9922,0.9922,0.9922,-0.2372,-0.2528,-0.2633,-0.3028,-0.3074,-0.3074,0.0,0.0,0.0,0.0,0.0,0.0,0.0,0.0,0.0,0.0,0.0,0.0,0.0,0.0,0.0,0.0,0.0,0.0,-0.3229,-0.323,-0.323,-0.323,-0.323,-0.323,-0.323,-0.323,-0.323,-0.323,-0.323,-0.3106,-0.2858,-0.2603,-0.2423,-0.2423,-0.2423,-0.2343,-0.2195,-0.2257,-0.2243,-0.2064,0.0,0.1436,0.1436,0.1436,0.1436,0.1436,0.1436,0.1436,0.1436,0.1436,0.1436,0.1436,0.1436,0.1436,0.1436,0.1436,0.1436,0.1436,0.1436,0.1436,0.1436,0.1436,0.1436,0.1436,0.1436,0.1436,0.1436,0.1436,0.1436,0.1524,0.1793,0.1883,0.2331,0.3941,0.4283,0.4218,0.405,0.3889,0.3852,0.4057,0.4087,0.4046,0.4097,0.4534,0.5121,0.5743,0.6338,0.6945,0.7484,0.7484,0.7561,0.7561,0.7949,0.8331,0.878,0.878,0.8856,0.8851,0.9241,0.9397,0.9397,0.9695,0.9922,0.9922,0.9922,0.9922,-0.2199,-0.2316,-0.2368,-0.2336,-0.2575,-0.2912,-0.3137,0.0,0.0,0.0,0.0,0.0,0.0,0.0,0.0,0.0,0.0,0.0,0.0,0.0,0.0,0.0,0.0,-0.3158,-0.3224,-0.323,-0.323,-0.323,-0.323,-0.323,-0.323,-0.323,-0.323,-0.323,-0.323,-0.3217,-0.3189,-0.3089,-0.308,-0.3165,-0.3079,-0.2981,-0.2873,-0.1256,-0.1436,-0.2784,0.0,-0.0897,-0.0807,0.0718,0.1436,0.1436,0.1436,0.1436,0.1436,0.1436,0.1436,0.1436,0.1436,0.1436,0.1436,0.1436,0.1436,0.1436,0.1436,0.1436,0.1436,0.1436,0.1436,0.1436,0.1436,0.1436,0.1436,0.1436,0.1436,0.1436,0.1436,0.1436,0.1973,0.3941,0.43,0.4273,0.4191,0.4055,0.3993,0.4104,0.4136,0.414,0.4118,0.4661,0.5208,0.5684,0.6581,0.7176,0.7484,0.7484,0.7484,0.7484,0.7872,0.8178,0.8403,0.8551,0.8703,0.8703,0.8856,0.9089,0.9322,0.9473,0.9695,0.9922,0.9922,0.9992,-0.2047,-0.2106,-0.2156,-0.1847,0.0,-0.2635,-0.3081,0.0,0.0,0.0,0.0,0.0,0.0,0.0,0.0,0.0,0.0,0.0,0.0,0.0,-0.335,-0.3041,-0.3074,-0.3128,-0.3221,-0.323,-0.323,-0.323,-0.323,-0.323,-0.323,-0.3217,-0.321,-0.321,-0.3195,-0.3181,-0.3166,-0.2985,-0.2958,-0.3082,-0.2941,-0.2875,-0.2784,-0.0628,-0.0807,-0.2875,-0.2875,-0.2875,-0.2694,-0.0538,0.0807,0.1345,0.0628,0.0807,0.1436,0.1436,0.1436,0.1436,0.1436,0.1436,0.1436,0.1436,0.1436,0.1436,0.1436,0.1436,0.1436,0.1436,0.1436,0.1436,0.1436,0.1436,0.1436,0.1436,0.1436,0.1436,0.1436,0.1436,0.1883,0.3315,0.3583,0.3762,0.421,0.4224,0.4163,0.4163,0.4185,0.4226,0.4291,0.4716,0.5152,0.5567,0.6384,0.7055,0.7371,0.7451,0.75,0.7545,0.7816,0.7949,0.7949,0.8246,0.8399,0.8399,0.8623,0.8856,0.9165,0.9322,0.9651,1.0008,1.0008,1.0137,-0.1715,-0.1728,-0.1752,-0.1778,0.0,0.0,-0.1909,-0.1853,0.0,0.0,0.0,0.0,0.0,0.0,0.0,0.0,0.0,0.0,0.0,0.0,-0.3207,-0.3213,-0.3215,-0.3221,-0.323,-0.323,-0.323,-0.323,-0.323,-0.323,-0.323,-0.3177,-0.3146,-0.3146,-0.3091,-0.3035,-0.2978,-0.2961,-0.2969,-0.3,-0.2914,-0.2875,-0.2875,-0.2694,-0.2694,-0.2875,-0.2875,-0.2875,-0.2873,-0.2694,-0.0987,0.1166,-0.1525,-0.0987,0.1436,0.1436,0.1436,0.1436,0.1436,0.1436,0.1436,0.1436,0.1436,0.1436,0.1436,0.1436,0.1436,0.1436,0.1436,0.1436,0.1436,0.1436,0.1436,0.1436,0.1436,0.1436,0.1436,0.1436,0.1436,0.1614,0.1614,0.2152,0.403,0.4291,0.4285,0.4285,0.4287,0.4291,0.4297,0.4303,0.4429,0.4811,0.503,0.5667,0.6908,0.7356,0.7557,0.7732,0.7655,0.7561,0.7561,0.7557,0.7561,0.7561,0.8322,0.8703,0.878,0.9463,0.9964,1.0266,1.0266,1.039,-0.1736,-0.1749,-0.1758,-0.1789,0.0,0.0,0.0,0.0,0.0,0.0,0.0,0.0,0.0,0.0,0.0,0.0,0.0,0.0,0.0,-0.3207,-0.323,-0.323,-0.3196,-0.3174,-0.3174,-0.3139,-0.3117,-0.3117,-0.3117,-0.3117,-0.3117,-0.3095,-0.3083,-0.3083,-0.3061,-0.3133,-0.3109,-0.2977,-0.2962,-0.297,-0.2906,-0.2875,-0.2875,-0.2875,-0.2875,-0.2875,-0.2875,-0.2875,-0.2875,-0.2875,-0.2243,-0.1166,-0.0538,0.0448,0.1436,0.1436,0.1436,0.1436,0.1436,0.1436,0.1436,0.1436,0.1436,0.1436,0.1436,0.1436,0.1436,0.1436,0.1436,0.1436,0.1436,0.1436,0.1436,0.1436,0.1436,0.1436,0.1436,0.1436,0.1436,0.1436,0.1436,0.1614,0.233,0.3494,0.43,0.43,0.43,0.43,0.43,0.4271,0.4463,0.4917,0.571,0.644,0.694,0.7485,0.7797,0.776,0.7586,0.7484,0.7484,0.7484,0.7484,0.7484,0.7787,0.8308,0.8985,0.9218,0.9802,1.0509,1.0509,1.0632,-0.1786,-0.1797,-0.1797,0.0,0.0,0.0,0.0,0.0,0.0,0.0,0.0,0.0,0.0,0.0,0.0,0.0,0.0,0.0,0.0,-0.3158,-0.3188,-0.3174,-0.3125,-0.3098,-0.3109,-0.3074,-0.3144,-0.3144,-0.3144,-0.3144,-0.3144,-0.3126,-0.3115,-0.3115,-0.3003,-0.2993,-0.2993,-0.2952,-0.2921,-0.2902,-0.2864,-0.2845,-0.2845,-0.2838,-0.2834,-0.2835,-0.2862,-0.2875,-0.2875,-0.2875,-0.2875,-0.2604,0.0269,0.1436,0.1256,0.0359,0.0628,0.1436,0.1436,0.1436,0.1436,0.1436,0.1436,0.1436,0.1436,0.1436,0.1436,0.1436,0.1436,0.1436,0.1436,0.1436,0.1436,0.1436,0.1436,0.1436,0.1436,0.1436,0.1436,0.1436,0.1436,0.1436,0.1436,0.2509,0.3583,0.421,0.43,0.43,0.43,0.43,0.4452,0.4823,0.5794,0.6479,0.6824,0.7329,0.7718,0.7849,0.7671,0.7545,0.7484,0.7484,0.7484,0.7484,0.7638,0.8117,0.8867,0.9025,0.9487,1.0254,1.0418,1.0621,-0.1797,-0.1797,-0.1797,0.0,0.0,0.0,0.0,0.0,0.0,0.0,0.0,0.0,0.0,0.0,0.0,-0.2733,-0.2879,-0.2978,-0.3134,-0.3086,-0.3095,-0.3053,-0.3015,-0.3007,-0.3139,-0.3141,-0.314,-0.314,-0.314,-0.314,-0.314,-0.2988,-0.2955,-0.2955,-0.2902,-0.2873,-0.2873,-0.2873,-0.2842,-0.2782,-0.2782,-0.2782,-0.2782,-0.2758,-0.2834,-0.2838,-0.2835,-0.2871,-0.2871,-0.2871,-0.2871,-0.2601,0.0269,0.1345,0.0987,-0.1792,-0.1075,0.1345,0.1346,0.1436,0.1436,0.1436,0.1436,0.1436,0.1436,0.1436,0.1436,0.1436,0.1436,0.1436,0.1436,0.1436,0.1436,0.1436,0.1436,0.1436,0.1436,0.1436,0.1436,0.1436,0.1436,0.1436,0.1436,0.1436,0.2063,0.3942,0.43,0.43,0.43,0.43,0.43,0.43,0.4739,0.5376,0.6319,0.6783,0.7274,0.793,0.7854,0.7679,0.7492,0.7484,0.7484,0.7484,0.7868,0.8194,0.8383,0.8788,0.9242,0.9649,1.007,1.0434,-0.1797,-0.1797,0.0,0.0,0.0,0.0,0.0,0.0,0.0,0.0,0.0,0.0,0.0,0.0,0.0,-0.2605,-0.2715,-0.2857,-0.2991,-0.3068,-0.3086,-0.3018,-0.295,-0.2914,-0.2925,-0.2849,-0.2798,-0.2798,-0.2798,-0.2798,-0.2798,-0.2781,-0.2771,-0.2771,-0.2755,-0.2747,-0.2747,-0.2747,-0.2737,-0.2719,-0.2719,-0.2733,-0.2756,-0.2694,-0.2681,-0.2706,-0.2644,-0.2619,-0.2619,-0.2619,-0.2619,-0.2536,-0.1717,-0.1445,-0.1514,-0.0335,-0.0681,-0.1345,0.0718,0.1436,0.1436,0.1436,0.1436,0.1436,0.1436,0.1436,0.1436,0.1436,0.1436,0.1436,0.1436,0.1436,0.1436,0.1436,0.1436,0.1436,0.1436,0.1436,0.1436,0.1436,0.1436,0.1436,0.1436,0.1506,0.1725,0.2171,0.3403,0.43,0.43,0.43,0.43,0.43,0.487,0.5385,0.563,0.6708,0.7343,0.7285,0.7722,0.7801,0.7496,0.7484,0.7484,0.7484,0.7638,0.7947,0.8594,0.8756,0.9123,0.9861,1.0029,1.0235,-0.1797,0.0,0.0,0.0,0.0,0.0,0.0,0.0,0.0,0.0,0.0,0.0,0.0,-0.2677,0.0,-0.2679,-0.2736,-0.2832,-0.2932,-0.2988,-0.2999,-0.2951,-0.2875,-0.2812,-0.2779,-0.2726,-0.2683,-0.2658,-0.2679,-0.2681,-0.2657,-0.2679,-0.2692,-0.2692,-0.2692,-0.2692,-0.2692,-0.2692,-0.268,-0.2655,-0.2655,-0.2655,-0.2653,-0.2629,-0.2619,-0.2616,-0.2542,-0.2511,-0.2511,-0.2511,-0.2511,-0.252,-0.2617,-0.2745,-0.2666,-0.0894,-0.1332,-0.2694,-0.0897,0.0448,0.1256,0.009,0.0438,0.1365,0.1365,0.1397,0.1436,0.1436,0.1436,0.1436,0.1436,0.1436,0.1436,0.1436,0.1436,0.1436,0.1436,0.1436,0.1436,0.1436,0.1474,0.1508,0.1508,0.1528,0.152,0.1446,0.3047,0.43,0.43,0.43,0.43,0.43,0.4656,0.5104,0.5371,0.6166,0.6686,0.6709,0.7282,0.7581,0.7307,0.7469,0.7594,0.7594,0.7659,0.7998,0.8546,0.8546,0.8869,0.9432,0.9607,0.9864,0.0,0.0,0.0,0.0,0.0,0.0,0.0,0.0,0.0,0.0,0.0,0.0,0.0,-0.2875,-0.2872,-0.2864,-0.2869,-0.2875,-0.2875,-0.2875,-0.2875,-0.2875,-0.2786,-0.2698,-0.2625,-0.2653,-0.265,-0.2587,-0.264,-0.2649,-0.2585,-0.2635,-0.2664,-0.2659,-0.2665,-0.2668,-0.2668,-0.2668,-0.2643,-0.2593,-0.2587,-0.2556,-0.2504,-0.2565,-0.2563,-0.2511,-0.2511,-0.2511,-0.2511,-0.2511,-0.2511,-0.2531,-0.2755,-0.2841,-0.2813,-0.2593,-0.2665,-0.2875,-0.2875,-0.116,0.062,-0.2041,-0.1093,0.1021,0.1257,0.1333,0.1419,0.1419,0.1419,0.1422,0.1432,0.1436,0.1436,0.1436,0.1436,0.1436,0.1436,0.1436,0.1438,0.145,0.1541,0.1617,0.1617,0.1525,0.1448,0.1437,0.2956,0.4212,0.422,0.4304,0.4302,0.431,0.4304,0.4567,0.5282,0.5371,0.5585,0.6061,0.6744,0.702,0.6947,0.7462,0.7784,0.7784,0.7935,0.8105,0.8292,0.8292,0.8385,0.8568,0.8999,0.9262,0.0,0.0,0.0,0.0,0.0,0.0,0.0,0.0,0.0,0.0,0.0,0.0,0.0,-0.2875,-0.2853,-0.2873,-0.2831,-0.2875,-0.2875,-0.2875,-0.2875,-0.2875,-0.2689,-0.2555,-0.2538,-0.2544,-0.2518,-0.2443,-0.2507,-0.2516,-0.244,-0.2448,-0.2443,-0.2413,-0.2455,-0.2478,-0.2478,-0.2478,-0.2496,-0.2529,-0.2481,-0.2451,-0.2441,-0.2501,-0.2523,-0.2511,-0.2511,-0.2511,-0.2511,-0.2511,-0.2511,-0.2515,-0.2568,-0.2589,-0.2582,-0.253,-0.2665,-0.2875,-0.2875,-0.2318,-0.1779,-0.2345,-0.2154,-0.1333,0.0707,0.1275,0.1296,0.1296,0.1296,0.1317,0.1411,0.1436,0.1436,0.1436,0.1436,0.1436,0.1436,0.1436,0.1463,0.1559,0.1599,0.1617,0.1617,0.1595,0.1545,0.145,0.2419,0.3336,0.3758,0.4074,0.4326,0.4398,0.4342,0.4387,0.4567,0.5104,0.5411,0.5376,0.6055,0.6336,0.6117,0.7319,0.7959,0.7959,0.7996,0.8105,0.8292,0.8292,0.8385,0.8568,0.874,0.8915,0.0,0.0,0.0,0.0,0.0,0.0,0.0,0.0,0.0,0.0,0.0,0.0,-0.2745,-0.2774,-0.2778,-0.2838,-0.2753,-0.2743,-0.2706,-0.27,-0.27,-0.27,-0.2589,-0.2488,-0.2432,-0.2426,-0.2397,-0.2327,-0.2403,-0.2414,-0.2326,-0.2349,-0.2356,-0.2337,-0.2364,-0.2379,-0.2379,-0.2379,-0.2395,-0.2426,-0.2394,-0.2379,-0.2382,-0.244,-0.2467,-0.2469,-0.2497,-0.2511,-0.2511,-0.2511,-0.2511,-0.2511,-0.2511,-0.2511,-0.2511,-0.2511,-0.2591,-0.27,-0.27,-0.2617,-0.2511,-0.2511,-0.2511,-0.2275,-0.0941,0.0314,0.1335,0.1335,0.1299,0.1356,0.1419,0.1436,0.1436,0.1436,0.1436,0.1436,0.1436,0.1436,0.1454,0.1517,0.1577,0.1598,0.154,0.1578,0.1681,0.185,0.2405,0.2884,0.3239,0.3663,0.4019,0.397,0.4174,0.43,0.43,0.4656,0.4812,0.4757,0.5452,0.5776,0.5628,0.6649,0.7381,0.7644,0.8062,0.8325,0.8422,0.8422,0.8475,0.8568,0.8568,0.874,0.0,0.0,0.0,0.0,0.0,0.0,0.0,0.0,0.0,0.0,0.0,0.0,-0.2636,-0.2659,-0.2687,-0.2718,-0.2658,-0.2586,-0.2519,-0.2493,-0.2488,-0.2508,-0.2511,-0.2455,-0.2317,-0.2304,-0.2283,-0.2233,-0.2323,-0.2337,-0.2234,-0.2277,-0.2304,-0.2304,-0.2315,-0.2248,-0.2248,-0.2248,-0.2324,-0.2335,-0.2252,-0.2248,-0.2249,-0.2368,-0.2395,-0.2407,-0.2459,-0.248,-0.2481,-0.2491,-0.2495,-0.2496,-0.2506,-0.2511,-0.2511,-0.2511,-0.2511,-0.2511,-0.2511,-0.2511,-0.2511,-0.2511,-0.2511,-0.2511,-0.2511,-0.102,0.0628,0.0628,0.1007,0.1436,0.1436,0.1436,0.1436,0.1436,0.1436,0.1436,0.1436,0.1436,0.1436,0.1436,0.1525,0.1573,0.1482,0.1545,0.1782,0.2274,0.2392,0.2497,0.2812,0.3251,0.3612,0.3623,0.4,0.43,0.43,0.43,0.43,0.43,0.4835,0.5193,0.5193,0.5899,0.6467,0.6873,0.7785,0.8208,0.8208,0.8388,0.8388,0.8388,0.8388,0.8476,0.0,0.0,0.0,0.0,0.0,0.0,0.0,0.0,0.0,0.0,0.0,-0.2559,-0.2664,-0.2646,-0.2616,-0.262,-0.2568,-0.2522,-0.2512,-0.2422,-0.2397,-0.2499,-0.2511,-0.2422,-0.22,-0.2246,-0.2242,-0.2234,-0.2277,-0.2292,-0.2172,-0.2241,-0.2246,-0.2246,-0.2229,-0.2186,-0.2186,-0.2186,-0.2212,-0.2335,-0.2211,-0.2186,-0.2187,-0.2194,-0.2225,-0.2347,-0.2356,-0.2358,-0.2362,-0.2411,-0.2432,-0.2437,-0.2491,-0.2511,-0.2511,-0.2511,-0.2511,-0.2511,-0.2511,-0.2511,-0.2511,-0.2511,-0.2511,-0.2511,-0.2511,-0.2275,-0.196,-0.196,-0.0335,0.1436,0.1436,0.1436,0.1436,0.1436,0.1436,0.1436,0.1436,0.1436,0.1436,0.1436,0.1491,0.155,0.1586,0.1577,0.1659,0.1744,0.2019,0.2305,0.2429,0.3118,0.3632,0.3786,0.4124,0.43,0.43,0.43,0.43,0.43,0.4389,0.4478,0.4478,0.5102,0.5542,0.5614,0.6334,0.6697,0.6697,0.7312,0.7669,0.7669,0.7669,0.8028,0.0,0.0,0.0,0.0,0.0,0.0,0.0,0.0,0.0,0.0,0.0,-0.2388,-0.2476,-0.247,-0.2452,-0.2452,-0.2429,-0.2403,-0.238,-0.2371,-0.2353,-0.2315,-0.2311,-0.227,-0.2232,-0.2221,-0.2207,-0.2172,-0.2143,-0.2134,-0.212,-0.2116,-0.2116,-0.2116,-0.2078,-0.2108,-0.2143,-0.2143,-0.2173,-0.2233,-0.2206,-0.2194,-0.2194,-0.2194,-0.2228,-0.2215,-0.2248,-0.2322,-0.2307,-0.2387,-0.2413,-0.2411,-0.2482,-0.2511,-0.2511,-0.2511,-0.2511,-0.2511,-0.2511,-0.2511,-0.2511,-0.2511,-0.2511,-0.2511,-0.2511,-0.2511,-0.2511,-0.2511,-0.1761,-0.0628,0.0987,0.1436,0.1436,0.1436,0.1436,0.1436,0.1436,0.1436,0.1436,0.1436,0.1474,0.1524,0.1575,0.1559,0.154,0.154,0.1756,0.1863,0.1935,0.2689,0.3343,0.3333,0.3988,0.4355,0.4304,0.43,0.43,0.43,0.43,0.43,0.43,0.4567,0.4746,0.4746,0.5811,0.6428,0.6428,0.6694,0.6871,0.6871,0.6871,0.7051,0.0,0.0,0.0,0.0,0.0,0.0,0.0,0.0,0.0,0.0,-0.2101,-0.2189,-0.2234,-0.2293,-0.2335,-0.2335,-0.2322,-0.2307,-0.229,-0.2313,-0.2294,-0.2265,-0.2234,-0.2221,-0.2221,-0.2192,-0.2166,-0.2152,-0.2035,-0.2001,-0.1996,-0.1981,-0.1971,-0.1971,-0.1971,-0.1993,-0.2103,-0.2103,-0.2135,-0.2197,-0.2197,-0.2197,-0.2199,-0.2214,-0.2246,-0.2291,-0.227,-0.2271,-0.2251,-0.2356,-0.239,-0.2386,-0.2476,-0.2511,-0.2511,-0.2511,-0.2511,-0.2511,-0.2511,-0.2511,-0.2511,-0.2511,-0.2511,-0.2511,-0.2511,-0.2553,-0.259,-0.2527,-0.2685,-0.2243,0.0628,0.1436,0.1436,0.1436,0.1436,0.1438,0.1448,0.1451,0.1453,0.1464,0.1492,0.1523,0.1553,0.1553,0.1547,0.1538,0.1583,0.16,0.1748,0.2537,0.3121,0.3172,0.3959,0.4432,0.434,0.4334,0.4324,0.43,0.43,0.43,0.43,0.43,0.43,0.43,0.5364,0.5897,0.5897,0.6077,0.6166,0.6166,0.6166,0.6254,0.0,0.0,0.0,0.0,0.0,0.0,0.0,0.0,0.0,0.0,-0.1941,-0.1988,-0.1991,-0.218,-0.2335,-0.2335,-0.2216,-0.2198,-0.2324,-0.2236,-0.2259,-0.2259,-0.2269,-0.2221,-0.2221,-0.2113,-0.2092,-0.2207,-0.2008,-0.1962,-0.2117,-0.2067,-0.1971,-0.1971,-0.1971,-0.1973,-0.1977,-0.1977,-0.2008,-0.2133,-0.2133,-0.2133,-0.2134,-0.2193,-0.2356,-0.2626,-0.2363,-0.223,-0.2237,-0.229,-0.2339,-0.235,-0.2466,-0.2511,-0.2511,-0.2511,-0.2511,-0.2511,-0.2511,-0.2511,-0.2511,-0.2511,-0.2511,-0.2511,-0.2511,-0.2672,-0.2807,-0.2575,-0.2685,-0.2243,0.0628,0.1436,0.1436,0.1436,0.1436,0.1446,0.1483,0.1491,0.1504,0.1543,0.156,0.1565,0.1559,0.1588,0.1602,0.1574,0.1596,0.1817,0.2315,0.2776,0.3333,0.3816,0.4328,0.4528,0.4436,0.4428,0.4391,0.4304,0.43,0.43,0.43,0.43,0.43,0.43,0.4389,0.4387,0.4387,0.5102,0.546,0.546,0.546,0.5813,0.0,0.0,0.0,0.0,0.0,0.0,0.0,0.0,0.0,0.0,-0.1873,-0.1914,-0.1914,-0.2016,-0.2102,-0.2102,-0.2117,-0.2135,-0.2157,-0.2157,-0.2232,-0.2262,-0.2239,-0.2221,-0.2221,-0.2144,-0.2096,-0.21,-0.1948,-0.1892,-0.1892,-0.1872,-0.186,-0.186,-0.186,-0.1877,-0.1913,-0.1952,-0.2003,-0.2127,-0.2127,-0.2148,-0.2187,-0.2211,-0.2354,-0.2686,-0.2554,-0.2622,-0.2833,-0.2661,-0.2655,-0.2633,-0.2497,-0.2476,-0.2511,-0.2511,-0.2511,-0.2511,-0.2511,-0.2511,-0.2511,-0.2511,-0.2511,-0.2511,-0.2511,-0.268,-0.2823,-0.2579,-0.2629,-0.2417,-0.0784,-0.0354,-0.0269,0.0359,0.0987,0.1439,0.1453,0.1487,0.1523,0.1552,0.1565,0.1564,0.1541,0.1549,0.1555,0.1544,0.1568,0.1785,0.2378,0.2887,0.338,0.3828,0.4384,0.4622,0.453,0.4469,0.4422,0.4387,0.4332,0.43,0.43,0.43,0.4326,0.4385,0.4385,0.4357,0.43,0.4567,0.4656,0.4656,0.4656,0.4835,0.0,0.0,0.0,0.0,0.0,0.0,0.0,0.0,0.0,0.0,-0.1827,-0.1853,-0.1853,-0.1886,-0.1926,-0.1966,-0.2007,-0.2096,-0.2096,-0.2131,-0.2158,-0.2158,-0.2158,-0.2158,-0.2158,-0.2102,-0.1993,-0.1973,-0.1898,0.0,-0.1827,-0.1808,-0.1797,-0.1797,-0.1797,-0.1824,-0.188,-0.1903,-0.1954,-0.2096,-0.2096,-0.2128,-0.219,-0.2211,-0.2354,-0.2686,-0.2686,-0.2889,-0.3167,-0.2908,-0.2829,-0.2813,-0.2537,-0.2444,-0.2482,-0.2503,-0.2511,-0.2511,-0.2511,-0.2511,-0.2511,-0.2511,-0.2511,-0.2511,-0.2511,-0.2624,-0.2736,-0.2655,-0.2661,-0.2538,-0.1995,-0.1858,-0.1525,0.009,0.0987,0.1439,0.1453,0.1476,0.1509,0.1553,0.1567,0.1562,0.1531,0.1543,0.1549,0.1529,0.1561,0.1784,0.2376,0.2904,0.3414,0.3864,0.4453,0.4714,0.4626,0.4563,0.45,0.4438,0.4379,0.4344,0.4344,0.4344,0.4387,0.4479,0.4481,0.4451,0.4389,0.4359,0.4344,0.4344,0.4344,0.4361,0.0,0.0,0.0,0.0,0.0,0.0,0.0,0.0,0.0,-0.1797,-0.1797,-0.1797,-0.1797,-0.1797,-0.1834,-0.1948,-0.1969,-0.1969,-0.1969,-0.197,-0.1971,-0.1971,-0.1971,-0.1971,-0.1971,-0.1917,-0.1906,-0.1965,-0.1862,-0.1822,-0.1876,-0.1827,-0.1797,-0.1797,-0.1797,-0.1823,-0.1879,-0.1824,-0.1856,-0.1971,-0.1971,-0.2005,-0.2133,-0.2193,-0.2354,-0.2686,-0.2686,-0.2889,-0.3167,-0.2904,-0.2799,-0.2744,-0.2519,-0.2418,-0.2426,-0.2488,-0.2511,-0.2511,-0.2511,-0.2511,-0.2511,-0.2511,-0.2511,-0.2511,-0.2511,-0.2511,-0.2561,-0.2801,-0.2786,-0.2725,-0.2843,-0.2873,-0.2154,0.0718,0.1346,0.1447,0.1486,0.1466,0.1466,0.1555,0.1573,0.1563,0.1533,0.1577,0.1596,0.1536,0.1578,0.1817,0.2321,0.2826,0.343,0.3932,0.4433,0.4802,0.4718,0.471,0.4632,0.4455,0.444,0.4438,0.4438,0.4438,0.4483,0.4575,0.4577,0.4577,0.4577,0.4483,0.4438,0.4438,0.4438,0.4487,-0.1629,0.0,0.0,0.0,0.0,0.0,0.0,0.0,0.0,-0.1797,-0.1797,-0.1797,-0.1797,-0.1797,-0.1808,-0.1841,-0.188,-0.1906,-0.1906,-0.1944,-0.1971,-0.1971,-0.1971,-0.1971,-0.1971,-0.1917,-0.1888,0.0,-0.1838,-0.1804,-0.182,-0.1805,-0.1797,-0.1797,-0.1797,-0.1805,-0.182,-0.1805,-0.1856,-0.1971,-0.1971,-0.2091,-0.2196,-0.2213,-0.2354,-0.2686,-0.2686,-0.2889,-0.3161,-0.2845,-0.2749,-0.274,-0.2474,-0.2384,-0.2426,-0.2488,-0.2511,-0.2511,-0.2511,-0.2511,-0.2511,-0.2511,-0.2511,-0.2511,-0.2511,-0.2511,-0.2542,-0.2699,-0.2782,-0.2831,-0.2865,-0.1884,-0.0718,-0.0269,0.0728,0.1481,0.1492,0.151,0.154,0.1594,0.1605,0.1594,0.1564,0.1573,0.1579,0.1562,0.1573,0.179,0.2317,0.2826,0.343,0.3932,0.4433,0.4824,0.4802,0.4743,0.4687,0.4636,0.4571,0.4534,0.4534,0.4534,0.4577,0.4669,0.4671,0.4671,0.4671,0.4579,0.4534,0.4534,0.4534,0.4549,0.0,0.0,0.0,0.0,0.0,0.0,-0.1797,-0.1797,-0.1797,0.0,-0.1797,-0.1797,-0.1797,-0.1797,-0.1797,-0.1797,-0.1824,-0.1846,-0.1846,-0.1877,-0.1899,-0.1899,-0.1899,-0.1899,-0.1899,-0.1867,-0.1846,-0.1846,-0.1815,-0.1797,-0.1797,-0.1797,-0.1797,-0.1797,-0.1797,-0.1797,-0.1797,-0.182,-0.1879,-0.1971,-0.1997,-0.2124,-0.2221,-0.2221,-0.2287,-0.2487,-0.2487,-0.2622,-0.2757,-0.2554,-0.2578,-0.2694,-0.2445,-0.2356,-0.2395,-0.2478,-0.2511,-0.2511,-0.2511,-0.2511,-0.2511,-0.2511,-0.2511,-0.2511,-0.2511,-0.2511,-0.2525,-0.2597,-0.274,-0.2875,-0.2875,-0.2064,-0.0987,-0.009,0.0363,0.0737,0.1398,0.1514,0.1545,0.159,0.1598,0.1592,0.1575,0.1582,0.1586,0.1573,0.1582,0.1696,0.2017,0.2523,0.3027,0.3632,0.4133,0.4533,0.4734,0.479,0.4747,0.471,0.4659,0.4628,0.4628,0.4628,0.4671,0.4759,0.4761,0.4761,0.4761,0.4671,0.4628,0.463,0.4665,0.4681,0.0,0.0,0.0,0.0,0.0,0.0,-0.1797,-0.1797,-0.1797,-0.1797,-0.1797,-0.1797,-0.1908,-0.1908,-0.1908,-0.1908,-0.1908,-0.1852,-0.1797,-0.1797,-0.1797,-0.1797,-0.1797,-0.1797,-0.1797,-0.1797,-0.1797,-0.1797,-0.1797,-0.1797,-0.1797,-0.1797,-0.1797,-0.1797,-0.1797,-0.18,-0.1807,-0.1856,-0.1916,-0.1982,-0.21,-0.2161,-0.2221,-0.2221,-0.2221,-0.2221,-0.2221,-0.2221,-0.2221,-0.2221,-0.2354,-0.2634,-0.235,-0.2253,-0.2339,-0.2456,-0.25,-0.2501,-0.2508,-0.2511,-0.2511,-0.2511,-0.2511,-0.2511,-0.2511,-0.2511,-0.2516,-0.2544,-0.2707,-0.2875,-0.2875,-0.2875,-0.2243,0.0448,0.018,-0.0272,0.1022,0.1401,0.1508,0.1554,0.1565,0.1568,0.157,0.1594,0.1604,0.158,0.1599,0.1617,0.1617,0.2019,0.2623,0.313,0.3632,0.4234,0.4734,0.4834,0.4802,0.4728,0.4722,0.4722,0.4722,0.4722,0.4757,0.4832,0.4834,0.4834,0.4834,0.4759,0.4722,0.4724,0.48,0.4834,0.0,0.0,0.0,0.0,0.0,0.0,-0.1797,-0.1797,-0.1797,0.0,-0.1797,-0.1964,-0.2462,-0.2516,-0.2516,-0.2516,-0.2516,-0.235,-0.1852,-0.1797,-0.1797,-0.1797,-0.1797,-0.1797,-0.1797,-0.1797,-0.1797,-0.1797,-0.1797,-0.1797,-0.1797,-0.1797,-0.1797,-0.1797,-0.1797,-0.1819,-0.1864,-0.1876,-0.1936,-0.2109,-0.2121,-0.2161,-0.2221,-0.2221,-0.2221,-0.2221,-0.2221,-0.2221,-0.2221,-0.2221,-0.2221,-0.2296,-0.2233,-0.2191,-0.2206,-0.2394,-0.2437,-0.2444,-0.2493,-0.2511,-0.2511,-0.2511,-0.2511,-0.2511,-0.2511,-0.2511,-0.2552,-0.2748,-0.2838,-0.2875,-0.2875,-0.2875,-0.2513,-0.1166,-0.0456,-0.0,0.028,0.0934,0.1498,0.1508,0.1523,0.1543,0.1567,0.1577,0.1586,0.1605,0.1613,0.1617,0.1617,0.2019,0.2623,0.313,0.3632,0.4234,0.4734,0.4834,0.4826,0.4812,0.481,0.481,0.481,0.481,0.4818,0.4834,0.4834,0.4834,0.4834,0.4818,0.481,0.481,0.4826,0.4834,0.0,0.0,0.0,-0.2697,0.0,0.0,0.0,-0.2685,-0.2685,-0.2685,-0.2685,-0.2796,-0.307,-0.2903,-0.2681,-0.2681,-0.2462,-0.2128,-0.1853,-0.1797,-0.1797,-0.1797,-0.1797,-0.1797,-0.1797,-0.1797,-0.1797,-0.1797,-0.1797,-0.1797,-0.1797,-0.1797,-0.1797,-0.1797,-0.1797,-0.1824,-0.188,-0.1911,-0.1973,-0.2128,-0.2159,-0.219,-0.2221,-0.2221,-0.2221,-0.2221,-0.2221,-0.2221,-0.2221,-0.2221,-0.2221,-0.2228,-0.2221,-0.2192,-0.2228,-0.2387,-0.2439,-0.2469,-0.25,-0.2511,-0.2511,-0.2511,-0.2511,-0.2511,-0.2511,-0.2595,-0.2718,-0.2839,-0.2875,-0.2875,-0.2875,-0.2875,-0.2604,-0.1615,-0.1466,-0.1216,-0.0565,-0.0,0.0566,0.1321,0.1494,0.1498,0.1555,0.1581,0.1599,0.1614,0.1617,0.1617,0.1617,0.1818,0.2221,0.2725,0.333,0.3831,0.4334,0.4634,0.4834,0.4834,0.4834,0.4834,0.4834,0.4834,0.4834,0.4834,0.4834,0.4834,0.4834,0.4834,0.4834,0.4834,0.4834,0.4834,0.0,0.0,0.0,0.0,0.0,-0.3624,0.0,0.0,0.0,0.0,0.0,0.0,0.0,0.0,0.0,0.0,0.0,0.0,0.0,-0.2074,0.0,-0.1797,-0.1797,-0.1797,-0.1797,-0.1797,-0.1797,-0.1797,-0.1797,-0.1797,-0.1797,-0.1797,-0.1797,-0.1797,-0.1797,-0.183,-0.1898,-0.1947,-0.2071,-0.2147,-0.2197,-0.2221,-0.2221,-0.2221,-0.2221,-0.2221,-0.2221,-0.2221,-0.2221,-0.2221,-0.2221,-0.2227,-0.2207,-0.2258,-0.2309,-0.2377,-0.2435,-0.248,-0.2503,-0.2511,-0.2511,-0.2511,-0.2511,-0.2519,-0.2567,-0.2718,-0.2875,-0.2875,-0.2875,-0.2875,-0.2875,-0.2875,-0.2694,-0.1885,-0.2383,-0.2722,-0.1521,-0.1144,-0.0382,0.1156,0.1494,0.1475,0.1545,0.1577,0.1598,0.1614,0.1612,0.161,0.1616,0.1617,0.1818,0.2321,0.2826,0.333,0.3932,0.4433,0.4734,0.4834,0.4834,0.4834,0.4834,0.4834,0.4834,0.4834,0.4834,0.4834,0.4834,0.4834,0.4834,0.4834,0.4834,0.4834,0.0,0.0,0.0,0.0,-0.3707,0.0,0.0,0.0,-0.3624,-0.3624,0.0,0.0,0.0,0.0,0.0,0.0,0.0,0.0,-0.3461,-0.2961,-0.2406,-0.1853,-0.1797,-0.1797,-0.1797,-0.1797,-0.1797,-0.1797,-0.1797,-0.1797,-0.1797,-0.1797,-0.1797,-0.1797,-0.1797,-0.185,-0.1961,-0.1969,-0.2093,-0.221,-0.2217,-0.2221,-0.2221,-0.2221,-0.2221,-0.2221,-0.2221,-0.2221,-0.2221,-0.2221,-0.2221,-0.2221,-0.223,-0.2237,-0.2188,-0.2303,-0.2349,-0.2371,-0.2474,-0.2511,-0.2511,-0.2511,-0.2511,-0.255,-0.2767,-0.2853,-0.2875,-0.2875,-0.2875,-0.2875,-0.2875,-0.2875,-0.2873,-0.2784,-0.2843,-0.3003,-0.2851,-0.1811,-0.0385,0.1297,0.1558,0.1525,0.1553,0.153,0.1533,0.1606,0.1594,0.1586,0.1613,0.1617,0.1818,0.2321,0.2422,0.2925,0.3932,0.4033,0.4332,0.4734,0.4834,0.4834,0.4834,0.4834,0.4834,0.4834,0.4834,0.4834,0.4834,0.4834,0.4834,0.4834,0.4834,0.4834,0.0,0.0,0.0,0.0,0.0,0.0,-0.478,0.0,-0.4731,0.0,0.0,0.0,0.0,0.0,0.0,0.0,-0.4184,0.0,0.0,0.0,-0.2625,0.0,0.0,0.0,-0.1797,-0.1797,-0.1797,-0.1797,-0.1797,-0.1797,-0.1797,-0.1797,-0.1797,-0.1797,-0.1797,-0.1837,-0.1918,-0.1955,-0.2078,-0.2166,-0.2204,-0.2221,-0.2221,-0.2221,-0.2221,-0.2221,-0.2221,-0.2221,-0.2221,-0.2221,-0.2221,-0.2221,-0.2221,-0.2198,-0.2266,-0.2316,-0.2379,-0.2444,-0.2493,-0.2511,-0.2511,-0.2511,-0.2511,-0.2556,-0.28,-0.2875,-0.2875,-0.2875,-0.2875,-0.2875,-0.2875,-0.2875,-0.2883,-0.2916,-0.2976,-0.3037,-0.3076,-0.2634,-0.1882,-0.0503,-0.0797,-0.0789,0.0496,0.1182,0.1577,0.1611,0.1606,0.1603,0.1615,0.1617,0.1718,0.1919,0.222,0.2623,0.3025,0.363,0.4133,0.4334,0.4634,0.4834,0.4834,0.4834,0.4834,0.4834,0.4834,0.4834,0.4834,0.4834,0.4834,0.4834,0.4834,0.4834,-0.6258,0.0,0.0,0.0,0.0,0.0,0.0,0.0,0.0,0.0,0.0,0.0,0.0,0.0,0.0,0.0,0.0,-0.4073,0.0,-0.3569,0.0,0.0,0.0,0.0,0.0,-0.1797,-0.1797,-0.1797,-0.1797,-0.1797,-0.1797,-0.1797,-0.1797,-0.1797,-0.1797,-0.1824,-0.188,-0.1941,-0.2003,-0.2128,-0.219,-0.2221,-0.2221,-0.2221,-0.2221,-0.2221,-0.2221,-0.2221,-0.2221,-0.2221,-0.2221,-0.2221,-0.2221,-0.2221,-0.2319,-0.2331,-0.2399,-0.2488,-0.2504,-0.2511,-0.2511,-0.2511,-0.2511,-0.2556,-0.28,-0.2875,-0.2875,-0.2875,-0.2875,-0.2875,-0.2875,-0.2875,-0.2884,-0.2925,-0.2993,-0.3061,-0.3102,-0.3174,-0.2927,-0.2219,-0.2623,-0.2623,-0.0806,0.0201,0.0801,0.111,0.1207,0.1306,0.1615,0.1617,0.1516,0.1313,0.1615,0.1917,0.2017,0.2621,0.3225,0.3729,0.4433,0.4834,0.4834,0.4834,0.4834,0.4834,0.4834,0.4834,0.4834,0.4834,0.4834,0.4834,0.4834,0.4834,0.0,0.0,0.0,-0.6203,0.0,0.0,0.0,0.0,-0.5608,0.0,-0.5414,-0.5297,0.0,0.0,0.0,0.0,0.0,0.0,0.0,0.0,0.0,0.0,0.0,0.0,0.0,-0.1797,-0.1797,-0.1797,-0.1797,-0.1797,-0.1797,-0.1797,-0.1797,-0.1797,-0.1797,-0.1824,-0.188,-0.1941,-0.2003,-0.2128,-0.219,-0.2221,-0.2221,-0.2221,-0.2221,-0.2221,-0.2221,-0.2221,-0.2221,-0.2221,-0.2221,-0.2221,-0.2221,-0.2272,-0.2279,-0.232,-0.2372,-0.2431,-0.2491,-0.2511,-0.2511,-0.2511,-0.2511,-0.2556,-0.28,-0.2875,-0.2875,-0.2875,-0.2875,-0.2875,-0.2875,-0.2875,-0.2875,-0.2876,-0.2965,-0.3061,-0.3102,-0.3174,-0.323,-0.313,-0.313,-0.2826,-0.1714,-0.1581,-0.1176,-0.01,0.0298,0.0693,0.1512,0.1617,0.1313,0.0505,0.0404,0.0606,0.1109,0.0806,0.131,0.3123,0.423,0.4834,0.4834,0.4834,0.4834,0.4834,0.4834,0.4834,0.4834,0.4834,0.4834,0.4834,0.4834,0.4834,-0.642,-0.6371,-0.6327,-0.6327,0.0,0.0,0.0,0.0,0.0,-0.5819,-0.5653,-0.5523,-0.5523,0.0,0.0,0.0,0.0,0.0,0.0,0.0,0.0,0.0,0.0,0.0,0.0,0.0,-0.1797,-0.1797,-0.1797,-0.1797,-0.1797,-0.1797,-0.1797,-0.1797,-0.1797,-0.1807,-0.1826,-0.1924,-0.1962,-0.1944,-0.2151,-0.22,-0.2161,-0.2203,-0.2221,-0.2221,-0.2221,-0.2221,-0.2221,-0.2221,-0.2221,-0.2221,-0.2221,-0.2219,-0.2316,-0.233,-0.2397,-0.2482,-0.2503,-0.2511,-0.2511,-0.2511,-0.2511,-0.2541,-0.2704,-0.2771,-0.2803,-0.2858,-0.2875,-0.2875,-0.2875,-0.2875,-0.2883,-0.2921,-0.2991,-0.3064,-0.3119,-0.3151,-0.317,-0.317,-0.317,-0.2973,-0.2673,-0.2684,-0.2198,-0.0705,-0.0502,-0.03,-0.0,0.0505,0.0707,0.0404,0.0909,0.1212,0.1414,0.0404,0.0706,0.2719,0.272,0.272,0.272,0.3122,0.3423,0.3423,0.4331,0.4834,0.4834,0.4834,0.4834,0.4834,0.4834,0.4834,-0.642,-0.642,-0.642,-0.642,-0.642,-0.6388,-0.627,0.0,-0.6174,-0.6063,-0.5835,-0.5689,-0.5624,0.0,0.0,0.0,0.0,0.0,0.0,-0.4184,0.0,0.0,0.0,0.0,0.0,-0.1797,-0.1797,-0.1797,-0.1797,-0.1797,0.0,-0.1797,-0.1797,-0.1797,-0.1797,-0.1797,-0.1797,-0.1892,-0.1931,-0.1916,-0.2119,-0.2179,-0.2162,-0.2203,-0.2221,-0.2221,-0.2221,-0.2221,-0.2221,-0.2221,-0.2221,-0.2221,-0.2221,-0.2219,-0.2315,-0.233,-0.241,-0.2511,-0.2511,-0.2511,-0.2511,-0.2511,-0.2511,-0.2525,-0.2604,-0.2704,-0.2811,-0.2892,-0.2895,-0.288,-0.2909,-0.2895,-0.2883,-0.292,-0.2991,-0.306,-0.31,-0.314,-0.3172,-0.3172,-0.3172,-0.3172,-0.3172,-0.3204,-0.2725,-0.1412,-0.121,-0.1109,-0.0806,-0.0303,-0.0101,-0.0404,-0.0,0.0202,0.0101,-0.0303,0.0101,0.1511,0.1914,0.1915,0.1613,0.282,0.3122,0.2317,0.3927,0.4834,0.4834,0.4834,0.4834,0.4834,0.4834,0.4834]},{"header":{"parameterUnit":"m.s-1","parameterCategory":1,"la1":30.6,"la2":29.2853,"lo1":-89.7004,"lo2":-87.6739,"dy":0.0162,"dx":0.0183,"nx":112,"ny":82,"refTime":"2023-08-15T06:00:00:Z","depth":0,"parameterNumber":3,"parameterNumberName":"V-component_of_WINDS"},"data":[0.0,0.0,0.0,0.0,0.0,0.0,0.0,0.0,0.0,0.0,0.0,0.0,0.0,0.0,0.0,0.0,0.0,0.0,0.0,0.0,0.0,0.0,0.0,0.0,0.0,0.0,0.0,0.0,0.0,0.0,0.0,0.0,0.0,0.0,0.0,0.0,0.0,0.0,0.0,0.0,0.0,0.0,0.0,0.0,0.0,0.0,0.0,0.0,0.0,0.0,0.0,0.0,0.0,0.0,0.0,0.0,0.0,0.0,0.0,0.0,0.0,0.0,0.0,0.0,0.0,0.0,0.0,0.0,0.0,0.0,0.0,0.0,0.0,0.0,0.0,0.0,0.0,0.0,0.0,0.0,0.0,0.0,0.0,0.0,0.0,0.0,0.0,0.0,0.0,0.0,-0.1603,-0.1455,-0.1334,-0.1232,-0.1165,-0.1499,-0.1476,-0.105,0.0,0.0,0.0,0.0,0.0,0.0,0.0,0.0,0.0,0.0,0.0,0.0,0.0,0.0,0.0,0.0,0.0,0.0,0.0,0.0,0.0,0.0,0.0,0.0,0.0,0.0,0.0,0.0,0.0,0.0,0.0,0.0,0.0,0.0,0.0,0.0,0.0,0.0,0.0,0.0,0.0,0.0,0.0,0.0,0.0,0.0,0.0,0.0,0.0,0.0,0.0,0.0,0.0,0.0,0.0,0.0,0.0,0.0,0.0,0.0,0.0,0.0,0.0,0.0,0.0,0.0,0.0,0.0,0.0,0.0,0.0,0.0,0.0,0.0,0.0,0.0,0.0,0.0,0.0,0.0,0.0,0.0,0.0,0.0,0.0,0.0,0.0,0.0,0.0,0.0,0.0,0.0,0.0,0.0,0.0,0.0,0.0,0.0,0.0,0.0,0.0,0.0,0.0,0.0,-0.2154,-0.2459,-0.2735,-0.2729,-0.2298,-0.2166,-0.2069,-0.1996,0.0,0.0,0.0,0.0,0.0,0.0,0.0,0.0,0.0,0.0,0.0,0.0,0.0,0.0,0.0,0.0,0.0,0.0,0.0,0.0,0.0,0.0,0.0,0.0,0.0,0.0,0.0,0.0,0.0,0.0,0.0,0.0,0.0,0.0,0.0,0.0,0.0,0.0,0.0,0.0,0.0,0.0,0.0,0.0,0.0,0.0,0.0,0.0,0.0,0.0,0.0,0.0,0.0,0.0,0.0,0.0,0.0,0.0,0.0,0.0,0.0,0.0,0.0,0.0,0.0,0.0,0.0,0.0,0.0,0.0,0.0,0.0,0.0,0.0,0.0,0.0,0.0,0.0,0.0,0.0,0.0,0.0,0.0,0.0,0.0,0.0,0.0,0.0,0.0,0.0,0.0,0.0,0.0,0.0,0.0,0.0,0.0,0.0,0.0,0.0,0.0,0.0,0.0,-0.2567,-0.2483,-0.2737,-0.28,-0.2736,-0.2476,-0.2551,-0.2467,-0.2233,-0.2233,0.0,0.0,0.0,0.0,0.0,0.0,0.0,0.0,0.0,0.0,0.0,0.0,0.0,0.0,0.0,0.0,0.0,0.0,0.0,0.0,0.0,0.0,0.0,0.0,0.0,0.0,0.0,0.0,0.0,0.0,0.0,0.0,0.0,0.0,0.0,0.0,0.0,0.0,0.0,0.0,0.0,0.0,0.0,0.0,0.0,0.0,0.0,0.0,0.0,0.0,0.0,0.0,0.0,0.0,0.0,0.0,0.0,0.0,0.0,0.0,0.0,0.0,0.0,0.0,0.0,0.0,0.0,0.0,0.0,0.0,0.0,0.0,0.0,0.0,0.0,0.0,0.0,0.0,0.0,0.0,0.0,0.0,0.0,0.0,0.0,0.0,0.0,0.0,0.0,0.0,0.0,0.0,0.0,0.0,0.0,0.0,0.0,0.0,0.0,0.0,0.0,0.0,-0.3261,-0.3048,-0.3158,-0.3109,-0.2983,-0.2837,-0.3092,-0.3039,-0.2574,-0.2834,0.0,0.0,0.0,0.0,0.0,0.0,0.0,0.0,0.0,0.0,0.0,0.0,0.0,0.0,0.0,0.0,0.0,0.0,0.0,0.0,0.0,0.0,0.0,0.0,0.0,0.0,0.0,0.0,0.0,0.0,0.0,0.0,0.0,0.0,0.0,0.0,0.0,0.0,0.0,0.0,0.0,0.0,0.0,0.0,0.0,0.0,0.0,0.0,0.0,0.0,0.0,0.0,0.0,0.0,0.0,0.0,0.0,0.0,0.0,0.0,0.0,0.0,0.0,0.0,0.0,0.0,0.0,0.0,0.0,0.0,0.0,0.0,0.0,0.0,0.0,0.0,0.0,0.0,0.0,0.0,0.0,0.0,0.0,0.0,0.0,0.0,0.0,0.0,0.0,0.0,0.0,0.0,0.0,0.0,0.0,0.0,0.0,0.0,0.0,0.0,0.0,0.0,-0.4142,-0.4262,-0.4304,-0.467,-0.4701,-0.4128,-0.4164,-0.3983,-0.3551,-0.3364,0.0,0.0,0.0,0.0,0.0,0.0,0.0,0.0,0.0,0.0,0.0,0.0,0.0,0.0,0.0,0.0,0.0,0.0,0.0,0.0,0.0,0.0,0.0,0.0,0.0,0.0,0.0,0.0,0.0,0.0,0.0,0.0,0.0,0.0,0.0,0.0,0.0,0.0,0.0,0.0,0.0,0.0,0.0,0.0,0.0,0.0,0.0,0.0,0.0,0.0,0.0,0.0,0.0,0.0,0.0,0.0,0.0,0.0,0.0,0.0,0.0,0.0,0.0,0.0,0.0,0.0,0.0,0.0,0.0,0.0,0.0,0.0,0.0,0.0,0.0,0.0,0.0,0.0,0.0,0.0,0.0,0.0,0.0,0.0,0.0,0.0,0.0,0.0,0.0,0.0,0.0,0.0,0.0,0.0,0.0,0.0,0.0,0.0,0.0,0.0,0.0,0.0,-0.4549,-0.4516,0.0,-0.4929,-0.504,-0.5,-0.4966,-0.47,-0.4136,0.0,0.0,0.0,0.0,0.0,0.0,0.0,0.0,0.0,0.0,0.0,0.0,0.0,0.0,0.0,0.0,0.0,0.0,0.0,0.0,0.0,0.0,0.0,0.0,0.0,0.0,0.0,0.0,0.0,0.0,0.0,0.0,0.0,0.0,0.0,0.0,0.0,0.0,0.0,0.0,0.0,0.0,0.0,0.0,0.0,0.0,0.0,0.0,0.0,0.0,0.0,0.0,0.0,0.0,0.0,0.0,0.0,0.0,0.0,0.0,0.0,0.0,0.0,0.0,0.0,0.0,0.0,0.0,0.0,0.0,0.0,0.0,0.0,0.0,0.0,0.0,0.0,0.0,0.0,0.0,0.0,0.0,0.0,0.0,0.0,0.0,0.0,0.0,0.0,0.0,0.0,0.0,0.0,0.0,0.0,0.0,0.0,0.0,0.0,0.0,0.0,0.0,-0.5554,-0.5252,-0.5137,0.0,-0.5482,-0.5536,-0.5576,-0.5524,-0.5303,-0.4739,0.0,0.0,0.0,0.0,0.0,0.0,0.0,0.0,0.0,0.0,0.0,0.0,0.0,0.0,0.0,0.0,0.0,0.0,0.0,0.0,0.0,0.0,0.0,0.0,0.0,0.0,0.0,0.0,0.0,0.0,0.0,0.0,0.0,0.0,0.0,0.0,0.0,0.0,0.0,0.0,0.0,0.0,0.0,0.0,0.0,0.0,0.0,0.0,0.0,0.0,0.0,0.0,0.0,0.0,0.0,0.0,0.0,0.0,0.0,0.0,0.0,0.0,0.0,0.0,0.0,0.0,0.0,0.0,0.0,0.0,0.0,0.0,0.0,0.0,0.0,0.0,0.0,0.0,0.0,0.0,0.0,0.0,0.0,0.0,0.0,0.0,0.0,0.0,0.0,0.0,0.0,0.0,0.0,0.0,0.0,0.0,0.0,0.0,0.0,0.0,0.0,0.0,-0.6428,-0.6424,-0.646,-0.632,-0.6503,-0.6389,-0.5757,-0.5901,-0.5819,0.0,0.0,0.0,0.0,0.0,0.0,0.0,0.0,0.0,0.0,0.0,0.0,0.0,0.0,0.0,0.0,0.0,0.0,0.0,0.0,0.0,0.0,0.0,0.0,0.0,0.0,0.0,0.0,0.0,0.0,0.0,0.0,0.0,0.0,0.0,0.0,0.0,0.0,0.0,0.0,0.0,0.0,0.0,0.0,0.0,0.0,0.0,0.0,0.0,0.0,0.0,0.0,0.0,0.0,0.0,0.0,0.0,0.0,0.0,0.0,0.0,0.0,0.0,0.0,0.0,0.0,0.0,0.0,0.0,0.0,0.0,0.0,0.0,0.0,0.0,0.0,0.0,0.0,0.0,0.0,0.0,0.0,0.0,0.0,0.0,0.0,0.0,0.0,0.0,0.0,0.0,0.0,0.0,0.0,0.0,0.0,0.0,0.0,0.0,0.0,0.0,0.0,0.0,-0.769,-0.7496,-0.7336,-0.7153,-0.7479,-0.7609,-0.727,-0.73,-0.715,-0.673,0.0,0.0,0.0,0.0,0.0,0.0,0.0,0.0,0.0,0.0,0.0,0.0,0.0,0.0,0.0,0.0,0.0,0.0,0.0,0.0,0.0,0.0,0.0,0.0,0.0,0.0,0.0,0.0,0.0,0.0,0.0,0.0,0.0,0.0,0.0,0.0,0.0,0.0,0.0,0.0,0.0,0.0,0.0,0.0,0.0,0.0,0.0,0.0,0.0,0.0,0.0,0.0,0.0,0.0,0.0,0.0,0.0,0.0,0.0,0.0,0.0,0.0,0.0,0.0,0.0,0.0,0.0,0.0,0.0,0.0,0.0,0.0,0.0,0.0,0.0,0.0,0.0,0.0,0.0,0.0,0.0,0.0,0.0,0.0,0.0,0.0,0.0,0.0,0.0,0.0,0.0,0.0,0.0,0.0,0.0,0.0,0.0,0.0,0.0,0.0,0.0,0.0,-0.8298,-0.8278,-0.8269,-0.8281,-0.8365,-0.8388,-0.8244,-0.8226,-0.8166,-0.8041,0.0,0.0,0.0,0.0,0.0,0.0,0.0,0.0,0.0,0.0,0.0,0.0,0.0,0.0,0.0,0.0,0.0,0.0,0.0,0.0,0.0,0.0,0.0,0.0,0.0,0.0,0.0,0.0,0.0,0.0,0.0,0.0,0.0,0.0,0.0,0.0,0.0,0.0,0.0,0.0,0.0,0.0,0.0,0.0,0.0,0.0,0.0,0.0,0.0,0.0,0.0,0.0,0.0,0.0,0.0,0.0,0.0,0.0,0.0,0.0,0.0,0.0,0.0,0.0,0.0,0.0,0.0,0.0,0.0,0.0,0.0,0.0,0.0,0.0,0.0,0.0,0.0,0.0,0.0,0.0,0.0,0.0,0.0,0.0,0.0,0.0,0.0,0.0,0.0,0.0,0.0,0.0,0.0,0.0,0.0,0.0,0.0,0.0,0.0,0.0,0.0,0.0,-0.861,-0.8878,-0.9208,-0.946,-0.9142,-0.8901,-0.8837,-0.8797,-0.8882,-0.9193,0.0,0.0,0.0,0.0,0.0,0.0,0.0,0.0,0.0,0.0,0.0,0.0,0.0,0.0,0.0,0.0,0.0,0.0,0.0,0.0,0.0,0.0,0.0,0.0,0.0,0.0,0.0,0.0,0.0,0.0,0.0,0.0,0.0,0.0,0.0,0.0,0.0,0.0,0.0,0.0,0.0,0.0,0.0,0.0,0.0,0.0,0.0,0.0,0.0,0.0,0.0,0.0,0.0,0.0,0.0,0.0,0.0,0.0,0.0,0.0,-1.6629,0.0,0.0,0.0,0.0,0.0,0.0,0.0,0.0,0.0,0.0,0.0,0.0,0.0,0.0,0.0,0.0,0.0,0.0,0.0,0.0,0.0,0.0,0.0,0.0,0.0,0.0,0.0,0.0,0.0,0.0,0.0,0.0,0.0,0.0,0.0,0.0,0.0,0.0,0.0,0.0,0.0,-0.995,-0.9961,-1.004,-1.0118,-1.003,-0.9922,-0.9795,-0.9518,-0.9571,-1.0091,-0.9678,0.0,0.0,0.0,0.0,0.0,0.0,0.0,0.0,0.0,0.0,0.0,0.0,0.0,0.0,0.0,0.0,0.0,0.0,0.0,0.0,0.0,0.0,0.0,0.0,0.0,0.0,0.0,0.0,0.0,0.0,0.0,0.0,0.0,0.0,0.0,0.0,0.0,0.0,0.0,0.0,0.0,0.0,0.0,0.0,0.0,0.0,0.0,0.0,0.0,0.0,0.0,0.0,0.0,0.0,0.0,0.0,0.0,0.0,0.0,0.0,-1.622,0.0,0.0,0.0,0.0,0.0,0.0,0.0,0.0,0.0,0.0,0.0,0.0,0.0,0.0,0.0,0.0,0.0,0.0,0.0,0.0,0.0,0.0,0.0,0.0,0.0,0.0,0.0,0.0,0.0,0.0,0.0,0.0,0.0,0.0,0.0,0.0,0.0,0.0,0.0,0.0,-1.0853,-1.0802,-1.0876,-1.1153,-1.0885,-1.0702,-1.0797,-1.0641,-1.062,-1.0873,-1.0604,0.0,0.0,0.0,0.0,0.0,0.0,0.0,0.0,0.0,0.0,0.0,0.0,0.0,0.0,0.0,0.0,0.0,0.0,0.0,0.0,0.0,0.0,0.0,0.0,0.0,0.0,0.0,0.0,0.0,0.0,0.0,0.0,0.0,0.0,0.0,0.0,0.0,0.0,0.0,0.0,0.0,0.0,0.0,0.0,0.0,0.0,0.0,0.0,0.0,0.0,0.0,0.0,0.0,-2.1167,-2.1437,-2.1421,-2.1769,-2.2228,-2.2535,-1.9512,-1.8031,-1.7745,-1.7574,0.0,0.0,0.0,0.0,0.0,0.0,0.0,0.0,0.0,0.0,0.0,0.0,0.0,0.0,0.0,0.0,0.0,0.0,0.0,0.0,0.0,0.0,0.0,0.0,-1.6321,-1.7719,-1.5769,0.0,0.0,0.0,0.0,0.0,0.0,0.0,0.0,0.0,0.0,0.0,-1.1621,-1.1594,-1.1833,-1.2262,-1.1934,-1.1721,-1.188,-1.1814,-1.1733,-1.1699,-1.15,-1.1311,0.0,0.0,0.0,0.0,0.0,0.0,0.0,0.0,0.0,0.0,0.0,0.0,0.0,0.0,0.0,0.0,0.0,0.0,0.0,0.0,0.0,0.0,0.0,0.0,0.0,0.0,0.0,0.0,0.0,0.0,0.0,0.0,-1.4332,-1.7394,0.0,0.0,0.0,0.0,0.0,0.0,0.0,0.0,0.0,0.0,0.0,0.0,0.0,-2.1094,-2.036,-2.1078,-2.1635,-2.2053,-2.4642,-2.5849,-2.5732,-2.216,-2.1892,-2.4239,-2.5023,0.0,-1.7535,-1.7511,0.0,0.0,0.0,0.0,0.0,0.0,0.0,0.0,0.0,0.0,0.0,0.0,0.0,0.0,0.0,0.0,0.0,0.0,0.0,0.0,0.0,0.0,-1.9019,-1.7733,-1.8074,-1.859,0.0,-1.7522,-1.6876,-1.6376,-1.6193,0.0,0.0,0.0,0.0,0.0,0.0,0.0,-1.2556,-1.2821,-1.3123,-1.3075,-1.3631,-1.375,-1.3034,-1.2605,-1.2496,-1.2754,-1.2325,-1.194,-1.1724,-1.1635,0.0,0.0,0.0,0.0,0.0,0.0,0.0,0.0,0.0,0.0,0.0,0.0,0.0,0.0,0.0,0.0,0.0,0.0,0.0,0.0,0.0,0.0,0.0,0.0,0.0,0.0,0.0,0.0,0.0,-1.5609,-1.663,-1.6227,-1.8395,-1.9884,0.0,0.0,0.0,0.0,0.0,0.0,0.0,0.0,0.0,-2.1497,-2.1991,-2.3105,-2.4763,-2.478,-2.478,-2.4797,-2.6082,-2.7726,-2.9521,-2.8404,-2.756,-2.7077,-2.7699,-2.648,-2.3786,-2.125,-2.0921,-2.2049,0.0,0.0,0.0,0.0,-2.1915,-2.1807,-1.9894,-2.0088,-2.0956,-1.9819,0.0,0.0,0.0,0.0,0.0,0.0,0.0,0.0,0.0,0.0,-2.007,-1.9314,-1.9582,-1.9952,-1.9651,-1.928,-1.8726,0.0,-1.7585,-1.7652,-1.7288,0.0,0.0,0.0,0.0,-1.5538,-1.4065,-1.4374,-1.4618,-1.4435,-1.4837,-1.4786,-1.4114,-1.3828,-1.3552,-1.3197,-1.3119,-1.2802,-1.2168,-1.231,-1.2295,0.0,0.0,0.0,0.0,0.0,0.0,0.0,0.0,0.0,0.0,0.0,0.0,0.0,0.0,0.0,0.0,0.0,0.0,0.0,0.0,0.0,0.0,0.0,0.0,0.0,0.0,0.0,0.0,-1.7522,-1.799,-1.6067,-1.8399,-2.0166,0.0,0.0,0.0,0.0,0.0,0.0,-2.5407,-2.7413,-2.6946,-2.3692,-2.4339,-2.5785,-2.7981,-2.8015,-2.8015,-2.8015,-2.8349,-2.9857,-3.2335,-3.3332,-3.2504,-3.0246,-3.0246,-3.0246,-2.9844,-2.4827,-2.2756,-2.2677,-2.2493,-2.2368,-2.2313,-2.2313,-2.2456,-2.2677,-2.2677,-2.2677,-2.2642,-2.2377,-2.0111,-1.777,-1.9362,0.0,0.0,0.0,0.0,-2.0621,-2.1016,-2.1118,-2.0926,-2.022,-2.073,-2.1245,-2.0877,-2.0795,-2.0299,0.0,-1.8831,-1.9124,-1.8893,0.0,0.0,0.0,0.0,-1.7383,-1.6009,-1.6114,-1.6217,-1.6057,-1.5976,-1.5764,-1.5197,-1.5017,-1.4631,-1.3861,-1.3949,-1.3668,-1.2827,-1.3067,-1.3113,-1.2929,0.0,0.0,0.0,0.0,0.0,0.0,0.0,0.0,0.0,0.0,0.0,0.0,0.0,0.0,0.0,0.0,0.0,0.0,0.0,0.0,0.0,0.0,0.0,0.0,0.0,0.0,0.0,0.0,0.0,-1.8815,-1.9753,0.0,0.0,0.0,0.0,-2.0407,-2.1479,-2.2276,-2.2502,-2.827,-3.0179,-2.7129,-2.9851,-3.1367,-3.1522,-3.1522,-3.1522,-3.1558,-3.2841,-3.3542,-3.3707,-3.3762,-3.3715,-3.355,-3.355,-3.355,-3.3073,-2.6713,-2.3955,-2.3753,-2.3996,-2.3917,-2.3692,-2.3692,-2.3714,-2.3714,-2.3714,-2.3714,-2.3562,-2.2615,-2.2153,-2.2006,-2.2102,-2.2164,0.0,0.0,-2.2136,-2.2181,-2.222,-2.2209,-2.1886,-2.0595,-2.1293,-2.2225,-2.2209,-2.1857,-2.1166,0.0,-1.9726,-1.9812,-1.969,0.0,-1.9244,-1.8168,-1.8313,-1.8482,-1.8338,-1.8129,-1.7892,-1.7693,-1.7422,-1.698,-1.6466,-1.5864,-1.5487,-1.5309,-1.4869,-1.4411,-1.3935,-1.392,-1.3668,-1.3085,-1.3085,0.0,0.0,0.0,0.0,0.0,0.0,0.0,0.0,0.0,0.0,0.0,0.0,0.0,0.0,0.0,0.0,0.0,0.0,0.0,0.0,0.0,0.0,0.0,0.0,0.0,0.0,0.0,0.0,-2.1985,-2.3189,0.0,-2.324,-2.2338,-2.1794,-2.1836,-2.4143,-2.6367,-2.8305,-3.0592,-3.0297,-2.701,-2.8217,-3.1282,-3.62,-3.415,-3.415,-3.6237,-3.6717,-3.6945,-3.6945,-3.6945,-3.6945,-3.6945,-3.6945,-3.6945,-3.678,-3.4486,-3.1004,-2.7163,-2.7248,-2.7226,-2.7163,-2.7163,-2.7163,-2.7163,-2.7163,-2.7163,-2.7077,-2.6736,-2.5207,-2.3399,-2.2747,-2.2569,-2.3135,-2.5864,-2.6613,-2.6401,-2.5445,-2.4822,-2.4212,-2.3405,-2.3751,-2.4526,-2.5343,-2.4374,-2.2953,-2.1642,-2.0975,-2.0581,-2.0532,-2.0085,-1.9566,-1.9207,-1.9244,-1.9295,-1.9273,-1.9109,-1.8997,-1.9035,-1.8369,-1.7733,-1.7186,-1.6854,-1.6416,-1.58,-1.5466,-1.5062,-1.4582,-1.4479,-1.434,-1.4118,-1.3847,-1.361,0.0,0.0,0.0,0.0,0.0,0.0,0.0,0.0,0.0,0.0,0.0,0.0,0.0,0.0,0.0,0.0,0.0,0.0,0.0,0.0,0.0,0.0,0.0,0.0,0.0,0.0,-2.3749,-2.441,-2.5617,-2.6151,-2.5454,-2.3967,-2.3348,-2.419,-2.7092,-3.0127,-3.3162,-3.3317,-3.2033,-2.9169,-2.893,-3.2004,-3.8652,-3.6541,-3.656,-3.8707,-3.8707,-3.875,-3.8822,-3.8822,-3.8822,-3.8822,-3.8822,-3.8822,-3.8822,-3.8822,-3.6493,-3.272,-3.1191,-3.0632,-3.0632,-3.0632,-3.0632,-3.0467,-2.936,-2.8994,-2.8994,-2.8994,-2.7567,-2.5701,-2.5033,-2.4835,-2.5412,-2.8213,-2.9062,-2.9159,-2.9259,-2.8039,-2.6609,-2.6044,-2.5801,-2.5885,-2.6744,-2.5647,-2.4205,-2.3316,-2.2052,-2.1166,-2.1401,-2.0975,-2.0581,-2.0581,-2.0189,-1.9904,-1.9904,-1.9741,-1.9632,-1.9603,-1.8959,-1.8344,-1.7854,-1.7476,-1.7146,-1.6727,-1.6373,-1.5971,-1.5499,-1.5398,-1.5174,-1.4755,-1.434,-1.4107,-1.4097,0.0,0.0,0.0,0.0,0.0,0.0,0.0,0.0,0.0,0.0,0.0,0.0,0.0,0.0,0.0,0.0,0.0,0.0,0.0,0.0,0.0,0.0,0.0,-2.4098,-2.4228,-2.491,-2.6023,-2.6939,-2.764,-2.8066,-2.6989,-2.662,-2.7457,-3.0248,-3.3252,-3.6212,-3.6409,-3.5645,-3.4018,-3.2694,-3.4163,-3.867,-3.8707,-3.8707,-3.8707,-3.8707,-3.8851,-3.9101,-3.9101,-3.9101,-3.9101,-3.911,-3.9137,-3.9137,-3.9137,-3.9687,-4.006,-3.5586,-3.3868,-3.3868,-3.3868,-3.3842,-3.333,-3.0136,-2.909,-2.9145,-2.9053,-2.9017,-2.9017,-2.9017,-2.909,-2.9145,-2.9035,-2.9215,-3.0148,-3.3231,-3.1542,-2.89,-2.8281,-2.7201,-2.6302,-2.6319,-2.5559,-2.4898,-2.4898,-2.3059,-2.1669,-2.2231,-2.2361,-2.2361,-2.231,-2.1166,0.0,-2.0373,-2.0096,-1.9797,-1.9479,-1.9236,-1.8921,-1.8458,-1.7787,-1.7585,-1.8066,-1.7626,-1.7133,-1.6676,-1.6663,-1.612,-1.4994,-1.4571,-1.4479,-1.4709,0.0,0.0,0.0,0.0,0.0,0.0,0.0,0.0,0.0,0.0,0.0,0.0,0.0,0.0,0.0,0.0,0.0,0.0,0.0,0.0,0.0,0.0,-2.7374,-2.5251,-2.7517,-2.9484,-2.9809,-3.1857,-3.3156,-3.3002,-3.2453,-3.2125,-3.2214,-3.399,-3.6007,-3.82,-3.8319,-3.8138,-3.7674,-3.7298,-3.7691,-3.896,-3.9007,-3.9007,-3.9007,-3.9007,-3.9017,-3.9101,-3.9101,-3.9101,-3.9137,-3.9819,-4.012,-4.012,-4.012,-4.0266,-4.0146,-3.6451,-3.5032,-3.5032,-3.5032,-3.4634,-3.3636,-3.0413,-3.082,-3.2395,-3.0043,-2.9283,-2.9283,-2.9283,-3.0913,-3.2284,-2.995,-2.9857,-3.0487,-3.0557,-3.0498,-3.013,-2.9057,-2.8421,-2.8247,-2.9013,-2.8037,-2.6982,-2.6965,-2.6247,-2.519,-2.3697,-2.3706,-2.3528,-2.2462,-2.1166,0.0,-2.1617,-2.0844,-2.0254,-2.033,-1.9909,-1.9493,-1.9169,-1.8793,-1.8525,-1.8341,-1.8145,-1.7933,-1.7679,-1.7679,-1.7218,-1.6164,-1.5947,-1.5487,0.0,0.0,0.0,0.0,0.0,0.0,0.0,0.0,0.0,0.0,0.0,0.0,0.0,0.0,0.0,0.0,0.0,0.0,0.0,0.0,0.0,0.0,-3.0846,-3.177,-2.9781,-3.0991,-3.234,-3.2991,-3.4778,-3.5885,-3.5717,-3.5758,-3.5789,-3.577,-3.6826,-3.7941,-3.9027,-3.9101,-3.9101,-3.9101,-3.9101,-3.9101,-3.9101,-3.9101,-3.9101,-3.9101,-3.9101,-3.9101,-3.9101,-3.9101,-3.9345,-3.9842,-4.0386,-4.0631,-4.0631,-4.0631,-4.0631,0.0,0.0,0.0,0.0,0.0,-3.519,-3.449,-3.2599,-3.3185,-3.4147,-3.0555,-2.9407,-2.9649,-3.1005,-3.1764,-3.2061,-3.1541,-3.0869,-3.0324,-3.0561,-3.0431,-3.0132,-2.9773,-2.9452,-2.9314,-2.9551,-2.9053,-2.8411,-2.8035,-2.773,0.0,-2.5334,-2.5386,-2.5323,-2.4303,-2.2435,-2.1417,-2.218,-2.1617,-2.1055,-2.0797,-2.0465,-2.0243,-2.0108,-1.9651,0.0,0.0,0.0,-1.8612,-1.8511,-1.8263,0.0,0.0,0.0,-1.6587,-1.5996,-1.5732,0.0,0.0,-1.4892,-1.4628,0.0,0.0,0.0,0.0,0.0,0.0,0.0,0.0,0.0,0.0,0.0,0.0,0.0,0.0,0.0,0.0,-3.5436,-3.7151,-3.5972,-3.4861,-3.4613,-3.586,-3.6711,-3.7181,-3.7178,-3.76,-3.7977,-3.8183,-3.8748,-3.9129,-3.9156,0.0,0.0,0.0,0.0,-3.9528,-3.9156,-3.9156,-3.9156,-3.9156,-3.9156,-3.9156,-3.9156,-3.9156,-3.9775,-4.079,-4.079,-4.079,-4.079,-4.079,-4.079,-4.0449,-3.6897,-3.552,-3.552,-3.552,-3.5771,-3.6111,-3.6111,0.0,0.0,-3.1279,-3.0375,-3.1218,-3.408,-3.2627,-3.0583,-3.3445,-3.2125,-3.0206,-3.1953,-3.0924,-2.9601,-3.0231,-3.0212,-2.9875,-2.9192,-2.9323,-2.9368,-2.8667,-2.8162,-2.7617,-2.6919,-2.7043,-2.71,-2.6503,-2.4167,-2.2457,-2.2355,-2.231,-2.1945,-2.1102,0.0,0.0,-2.1134,-2.0353,-2.0047,-2.0532,-1.9869,-1.942,-1.9376,-1.8835,-1.8498,-1.8432,-1.8058,-1.7868,-1.7785,-1.7358,-1.7164,-1.7122,-1.58,-1.5287,0.0,0.0,0.0,0.0,0.0,0.0,0.0,0.0,0.0,0.0,0.0,0.0,0.0,0.0,0.0,-3.7187,-3.8009,-3.842,-3.9413,-3.99,-3.9898,-3.9282,-4.0145,-4.0441,-3.963,-3.9105,-3.8865,-3.8913,-3.9045,-3.9229,-3.9483,-3.9483,-4.0595,-4.2965,-4.3295,-4.2181,-3.952,-3.9483,-3.9483,-3.9483,0.0,0.0,-3.9483,-3.9483,-3.9981,-4.079,-4.079,-4.079,-4.079,-4.079,-4.079,-4.0462,-3.7015,-3.5651,-3.5651,-3.5651,-3.7409,-3.9767,-3.9767,-3.797,-3.5523,-3.4744,-3.6337,-3.87,-3.9341,-3.6764,0.0,-3.4349,-3.3493,-3.2188,-3.1294,-3.0711,-3.0222,-2.9739,-3.0068,-3.0617,-3.1098,-3.0551,-3.0129,-3.0622,-2.9357,-2.8139,-2.7995,-2.7502,-2.6585,-2.4923,-2.4144,-2.3465,-2.2644,-2.2215,-2.1924,-2.1807,-2.1458,-2.1243,-2.1339,-2.1086,-2.0943,-2.0975,-2.1049,-2.1044,-2.106,-2.1061,-2.0892,-2.0529,-2.0325,-2.0034,-1.9611,-1.8961,-1.8673,-1.8617,-1.6764,-1.5996,0.0,0.0,0.0,0.0,0.0,0.0,0.0,0.0,0.0,0.0,0.0,-3.036,0.0,0.0,-3.6369,-4.0813,-4.0605,-4.0377,-4.1701,-4.2618,-4.2604,-4.1128,-4.1465,-4.1455,-4.0648,-3.9761,-3.9202,-3.9101,-3.9256,-4.0143,-4.1961,-4.2055,-4.2725,-4.421,-4.4411,-4.3726,-4.2074,-4.2055,-4.1229,-3.9602,-3.9602,-4.0696,-4.2642,-4.096,-4.0425,-4.079,-4.079,-4.079,-4.079,-4.079,-4.079,-4.0462,-3.7038,-3.5704,-3.5704,-3.5704,-3.6767,-3.8237,-3.8237,-3.7135,-3.5974,-3.7696,-3.9398,-4.079,-4.079,-3.9065,-3.6742,-3.5071,-3.4258,-3.3624,-3.2709,-3.1272,-3.0099,-3.0188,-3.0429,-3.086,-3.1637,-3.1335,-3.0941,-3.0917,-2.9978,-2.8916,-2.8076,-2.7817,-2.7256,-2.5962,-2.4396,-2.3216,-2.2701,-2.2436,-2.2309,-2.2298,-2.2096,-2.1936,-2.1957,-2.1688,-2.146,-2.126,-2.163,-2.1774,-2.1545,-2.196,-2.1948,-2.145,-2.1193,-2.0891,-2.0599,-2.0021,-1.9726,-1.9726,-1.8706,-1.7968,0.0,0.0,0.0,0.0,0.0,0.0,0.0,0.0,-2.9564,-3.1001,-3.2713,-3.4352,-3.5603,-3.7456,-3.9925,-4.3455,-4.3024,-4.255,-4.3434,-4.4172,-4.4086,-4.2565,-4.2379,-4.2137,-4.1651,-4.0857,-4.0307,-4.016,-4.0386,-4.1698,-4.4364,-4.4515,-4.4515,-4.4515,-4.4515,-4.4515,-4.4515,-4.4515,-4.3182,-4.0534,-4.0722,-4.2221,-4.4736,-4.2028,-4.079,-4.0829,-4.1487,-4.139,-4.079,-4.079,-4.079,-4.052,-3.7773,-3.669,-3.6613,-3.5936,-3.5704,-3.5704,-3.5704,-3.6129,-3.7135,-3.9901,-4.079,-4.079,-4.079,-4.0339,-3.9258,-3.6554,-3.5447,-3.4952,-3.4433,-3.2378,-3.0551,-3.0956,-3.1235,-3.1592,-3.2162,-3.2311,-3.2102,-3.1385,-3.0688,-2.9774,-2.8429,-2.8361,-2.8102,-2.6958,-2.4833,-2.3189,-2.2816,-2.2799,-2.2747,-2.2632,-2.2605,-2.2579,-2.2542,-2.2321,-2.2115,-2.1829,-2.2427,-2.2617,-2.2274,-2.2864,-2.2892,-2.2382,-2.1994,-2.175,-2.1615,-2.1109,-2.0869,-2.0869,-2.0869,-2.0147,-2.6776,-2.6517,-2.6885,-2.8435,-2.8966,-3.0059,0.0,0.0,-3.4942,-3.5789,-3.7295,-3.8472,-3.8466,-4.0539,-4.2919,-4.4963,-4.4921,-4.4652,-4.4786,-4.5027,-4.5044,-4.4605,-4.435,-4.4168,-4.4111,-4.3999,-4.3924,-4.3896,-4.3924,-4.412,-4.4496,-4.4515,-4.4515,-4.4515,-4.4515,-4.4515,-4.4515,-4.4515,-4.4327,-4.3951,-4.4729,-4.3791,-4.1351,-4.0965,-4.079,-4.0965,-4.3943,-4.3537,-4.079,-4.079,-4.079,-4.0752,-4.0384,-4.023,-3.9862,-3.6826,-3.5704,-3.5704,-3.5704,-3.7696,-4.0288,-4.0674,-4.079,-4.079,-4.079,-4.0733,-4.0582,-4.021,-3.8516,-3.646,-3.4955,-3.4211,-3.3396,-3.1607,-3.263,-3.4004,-3.4083,-3.4101,-3.4083,-3.3976,-3.2166,-3.0541,-3.0312,-2.9669,-2.825,-2.5499,-2.5344,-2.4944,-2.327,-2.3063,-2.2958,-2.2712,-2.2685,-2.2659,-2.2579,-2.3095,-2.3386,-2.3357,-2.4258,-2.4763,-2.4695,-2.496,-2.4914,-2.446,-2.4172,-2.3845,-2.3486,-2.279,-2.245,-2.2517,-2.2465,-2.1622,-2.7756,-2.8611,-2.9913,0.0,-3.2363,-3.4287,-3.6029,-3.6825,-3.7528,-3.8761,-4.0449,-4.1817,-4.2202,-4.3613,-4.4957,0.0,-4.5675,-4.558,-4.5533,-4.563,-4.566,-4.5552,-4.543,-4.5128,-4.4578,-4.4515,-4.4632,-4.4943,-4.4685,-4.4515,-4.4515,-4.4988,-4.5246,-4.5246,-4.5246,-4.5285,-4.5376,-4.5376,-4.5376,-4.5376,-4.5736,-4.5173,-4.3757,-4.1779,-4.0856,-4.0934,-4.233,-4.2156,-4.1011,-4.302,-4.3835,-4.3835,-4.3835,-4.2613,-4.0682,-3.922,-3.7406,-3.5704,-3.5704,-3.6632,-3.7831,-3.7831,-3.7831,-3.7831,-3.7831,-3.9224,-4.0384,-3.8392,-3.8527,-3.9095,-3.8386,-3.8159,-3.7893,-3.7006,-3.5628,-3.4847,-3.6115,-3.5343,-3.4404,-3.44,-3.2814,-3.1281,-3.0756,-2.993,-2.8769,-2.7048,-2.6849,-2.638,-2.4921,-2.4361,-2.3798,-2.301,-2.3215,-2.3377,-2.3295,-2.3961,-2.435,-2.435,-2.5125,-2.5411,-2.5113,-2.5636,-2.5684,-2.5153,-2.4823,-2.4502,-2.4256,-2.3736,-2.3489,-2.3516,-2.3489,-2.3113,-2.8906,0.0,0.0,-3.3804,-3.622,-3.8455,-3.9421,-4.0273,-4.1188,-4.2341,-4.3669,-4.4631,-4.4744,-4.552,-4.6024,-4.5736,-4.5871,-4.5986,-4.5922,-4.5975,-4.5647,-4.4715,-4.3763,-4.3266,-4.3504,-4.351,-4.4064,-4.5379,-4.5142,-4.4905,-4.4905,-4.5519,-4.5867,-4.5867,-4.5867,-4.5886,-4.5997,-4.5997,-4.5997,-4.5997,-4.5997,-4.5511,-4.4501,-4.2034,-4.0907,-4.0907,-4.0907,-4.0907,-4.1082,-4.3569,-4.4579,-4.4579,-4.4579,-4.3666,-4.2296,-4.2261,-3.9453,-3.5704,-3.5704,-3.5704,-3.5704,-3.5704,-3.5704,-3.5704,-3.5704,-3.7425,-3.8876,-3.64,-3.7483,-3.9379,-3.9379,-3.9379,-3.9379,-3.9379,-3.7801,-3.6537,-3.7437,-3.6471,-3.5368,-3.4997,-3.3577,-3.2231,-3.1512,-3.0478,-2.9638,-2.9283,-2.8614,-2.7541,-2.5909,-2.4969,-2.4244,-2.3614,-2.3932,-2.4191,-2.4257,-2.493,-2.534,-2.5227,-2.5853,-2.6058,-2.5664,-2.6168,-2.6208,-2.5647,-2.5307,-2.502,-2.4823,-2.4477,-2.4369,-2.4369,-2.4369,-2.4369,0.0,0.0,-3.3317,-3.8391,-4.0327,-4.1869,-4.5246,-4.6687,-4.7307,-4.7298,-4.7332,-4.6877,-4.5202,-4.5611,-4.5923,-4.5078,-4.554,-4.5997,-4.5997,-4.5997,-4.4773,-4.1451,-3.813,-3.7402,0.0,-4.1014,-4.2383,-4.5733,-4.5956,-4.5956,-4.5956,-4.5986,-4.5997,-4.5997,-4.5997,-4.5997,-4.5997,-4.5997,-4.5997,-4.5997,-4.5997,-4.4248,-4.1043,-4.0946,-4.0907,-4.0907,-4.0907,-4.0907,-4.0907,-4.1005,-4.1043,-4.1043,-4.1043,-4.3025,-4.5841,-4.5841,-4.1546,-3.5704,-3.5704,-3.5704,-3.5704,-3.5704,-3.5704,-3.5704,-3.5704,-3.5762,-3.582,-3.5723,-3.5762,-3.5839,-3.5839,-3.5839,-3.5839,-3.5839,-3.8284,-3.9971,-3.7643,-3.7681,-3.7787,-3.6487,-3.4785,-3.3449,-3.3181,-3.1752,-3.0949,-3.1755,-3.0482,-2.8422,-2.558,-2.4306,-2.3934,-2.4671,-2.4761,-2.4945,-2.5411,-2.6117,-2.6398,-2.6087,-2.6671,-2.7068,-2.7019,-2.6925,-2.6708,-2.6295,-2.6049,-2.5779,-2.5368,-2.5221,-2.5237,-2.5368,-2.5221,-2.5221,-3.2631,0.0,-3.8645,-4.156,-4.38,-4.5741,-4.748,-4.7745,-4.7584,-4.7576,-4.7108,-4.5816,-4.2919,-4.2617,-4.252,-4.1598,-4.4078,-4.6123,-4.6123,-4.617,-4.4052,-3.8273,-3.8603,0.0,0.0,0.0,0.0,-4.252,-4.4715,-4.5997,-4.5997,-4.5997,-4.5997,-4.5997,-4.5997,-4.5997,-4.5997,-4.5997,-4.5997,-4.5997,-4.5997,-4.421,-4.0907,-4.0907,-4.0907,-4.0907,-4.0907,-4.0907,-4.0907,-4.0907,-4.0907,-4.0907,-4.0907,-4.1607,-4.2889,-4.5161,-4.3082,-3.8821,-3.6551,-3.5766,-3.5766,-3.5766,-3.5766,-3.5766,-3.5766,-3.5747,-3.5704,-3.5704,-3.5704,-3.5704,-3.5704,-3.5704,-3.5704,-3.5704,-3.6574,-3.7185,-3.6349,-3.7041,-3.7604,-3.6898,-3.54,-3.4086,-3.3562,-3.2765,-3.1986,-3.125,-3.0163,-2.8891,-2.7377,-2.6248,-2.5677,-2.5889,-2.6263,-2.6495,-2.6616,-2.7307,-2.761,-2.7309,-2.7455,-2.7444,-2.7181,-2.707,-2.6957,-2.6759,-2.6418,-2.6173,-2.5994,-2.5668,-2.5519,-2.5481,-2.5427,-2.5427,-3.5838,-3.9244,-4.247,-4.5122,-4.7275,-4.8816,-4.9062,-4.8788,-4.8024,-4.648,-4.5501,-4.3759,-3.9978,-3.9278,-3.8983,-3.8061,-4.1217,-4.4358,-4.5997,-4.6269,-4.4633,-4.016,-4.0855,-4.1441,0.0,0.0,0.0,-4.0849,-4.4074,-4.5997,-4.5997,-4.5997,-4.5997,-4.5997,-4.5997,-4.5997,-4.5997,-4.5997,-4.5997,-4.5997,-4.5997,-4.421,-4.0907,-4.0907,-4.0907,-4.0907,-4.0907,-4.0907,-4.0907,-4.0907,-4.0907,-4.0907,-4.0907,-4.0907,-4.1179,-4.3374,-4.2792,-4.0402,-3.6984,-3.5799,-3.5799,-3.5799,-3.5799,-3.5799,-3.5799,-3.5775,-3.5737,-3.5715,-3.5704,-3.5704,-3.5704,-3.5704,-3.5704,-3.5704,-3.5704,-3.5704,-3.5704,-3.6331,-3.6838,-3.6584,-3.5698,-3.4808,-3.4239,-3.3828,-3.2985,-3.1179,-3.0839,-3.0163,-2.8464,-2.7359,-2.6831,-2.7087,-2.7398,-2.7638,-2.7749,-2.8214,-2.835,-2.8075,-2.7992,-2.7811,-2.743,-2.7321,-2.7195,-2.7023,-2.6742,-2.6607,-2.6555,-2.6279,-2.612,-2.6033,-2.6033,-2.6033,-3.9688,-4.2386,-4.4795,-4.8865,-5.051,-5.0899,-5.0069,-4.9777,-4.8505,-4.4374,-4.2707,-4.0701,0.0,0.0,-3.5486,-3.4746,-3.7219,-4.0854,-4.5503,-4.6241,-4.6261,0.0,0.0,0.0,0.0,0.0,0.0,-4.0974,0.0,-4.6007,-4.5997,-4.5997,-4.5997,-4.5997,-4.5997,-4.5997,-4.5997,-4.5997,-4.5997,-4.5997,-4.5997,-4.4307,-4.116,-4.0985,-4.0907,-4.0907,-4.0907,-4.0907,-4.0907,-4.0907,-4.0907,-4.0907,-4.0907,-4.0907,-4.0907,-4.0907,-4.0907,-4.0441,-3.7197,-3.5954,-3.5799,-3.5799,-3.5799,-3.5799,-3.5799,-3.5799,-3.5793,-3.5716,-3.5704,-3.5704,-3.5695,-3.5715,-3.5695,-3.5695,-3.5704,-3.5704,-3.5704,-3.5704,-3.5723,-3.58,-3.582,-3.5662,-3.5197,-3.487,-3.3947,-3.1749,-3.2477,-3.2117,-2.8783,-2.7681,-2.7457,-2.8183,-2.82,-2.8336,-2.8787,-2.8837,-2.8676,-2.835,-2.8324,-2.8183,-2.7829,-2.7707,-2.7482,-2.7149,-2.7055,-2.704,-2.7007,-2.7007,-2.7007,-2.7007,-2.7007,-2.7007,-4.2144,-4.536,-4.8377,-4.9489,-4.9963,-5.0099,-4.9878,-4.7396,-4.4679,-4.2971,-3.9253,-3.5435,0.0,0.0,0.0,-3.3551,-3.5507,0.0,-4.3667,-4.5473,0.0,-4.4524,0.0,-4.381,-4.301,-4.301,0.0,0.0,-4.525,-4.6164,-4.6007,-4.5997,-4.5997,-4.5997,-4.5997,-4.5997,-4.5997,-4.5997,-4.5997,-4.5997,-4.5997,-4.553,-4.4598,-4.2053,-4.0907,-4.0907,-4.0907,-4.0907,-4.0907,-4.0907,-4.0907,-4.0907,-4.0907,-4.0907,-4.0907,-4.0907,-4.0907,-4.0771,-3.9897,-3.7935,-3.5799,-3.5799,-3.5799,-3.5799,-3.5799,-3.5799,-3.5793,-3.5716,-3.5704,-3.5706,-3.5766,-3.5765,-3.5756,-3.5718,-3.5697,-3.5704,-3.5704,-3.5704,-3.6071,-3.7328,-3.745,-3.6881,-3.5499,-3.5548,-3.5153,-3.3299,-3.322,-3.2383,-2.9607,-2.9568,-2.9603,-2.9211,-2.9155,-2.917,-2.9233,-2.9249,-2.9123,-2.8827,-2.8718,-2.8529,-2.8264,-2.8166,-2.7946,-2.7642,-2.7612,-2.743,-2.707,-2.707,-2.7055,-2.7007,-2.7007,-2.7007,-4.5007,-4.7831,-5.0229,-5.0229,-5.0248,-4.9698,-4.7462,-4.4841,-4.191,-3.8449,-3.5037,0.0,-2.9484,0.0,0.0,0.0,0.0,0.0,-4.0976,-4.3099,-4.4218,0.0,-4.5135,0.0,-4.4192,-4.4855,-4.5343,0.0,-4.5948,-4.624,-4.615,-4.6123,-4.6123,-4.6123,-4.6123,-4.6091,-4.5997,-4.5997,-4.5997,-4.5997,-4.5997,-4.5997,-4.588,-4.2461,-4.0907,-4.0907,0.0,-4.0907,-4.0907,-4.0907,-4.0907,-4.0907,-4.0907,-4.0907,-4.0907,-4.0907,-4.0907,-4.0907,-4.0907,-3.9645,-3.8033,-3.8033,-3.7023,-3.5799,-3.5799,-3.5799,-3.5782,-3.5757,-3.6823,-3.7657,-3.617,-3.617,-3.6414,-3.5881,-3.5718,-3.5697,-3.5695,-3.6889,-3.8033,-3.8172,-3.7501,-3.6871,-3.6614,-3.6144,-3.5278,-3.3691,-3.3791,-3.3239,-3.0996,-3.0711,-3.0579,-3.0111,-2.9736,-2.9492,-2.9453,-2.9453,-2.9372,-2.9203,-2.9101,-2.8906,-2.8597,-2.8529,-2.835,-2.8037,-2.7897,-2.7713,-2.7444,-2.7293,-2.7233,-2.7169,-2.7154,-2.7122,-4.7773,-4.9707,-5.0867,-5.077,-5.05,-4.8991,-4.4214,-4.2059,-3.9295,-3.3024,0.0,-2.9434,-2.7077,-2.6675,-2.666,-2.6476,0.0,-3.2302,-3.8875,-4.0741,-4.2642,-4.5914,-4.6293,-4.63,-4.63,-4.63,-4.63,-4.63,-4.63,-4.63,-4.63,-4.63,-4.63,-4.63,-4.63,-4.622,-4.6047,-4.6047,-4.6047,-4.6047,-4.6047,-4.6047,-4.5949,-4.2974,-4.1613,-4.1594,-4.1118,-4.0924,-4.0924,-4.0924,-4.0924,-4.0924,-4.0924,-4.0915,-4.0907,-4.0907,-4.0907,-4.0907,-4.0907,-4.0907,-4.0907,-4.0907,-3.8887,-3.6479,-3.6479,-3.6479,-3.6382,-3.5935,-3.811,-3.9936,-3.7197,-3.686,-3.7065,-3.6218,-3.5862,-3.5708,-3.5716,-3.8268,-4.0044,-3.8225,-3.6875,-3.643,-3.7657,-3.6523,-3.5017,-3.3737,-3.4281,-3.4282,-3.2632,-3.1577,-3.0938,-3.0826,-3.0037,-2.9512,-2.9512,-2.9512,-2.9472,-2.9412,-2.9412,-2.9251,-2.8883,-2.8883,-2.87,-2.8376,-2.8156,-2.7992,-2.7936,-2.763,-2.7469,-2.7452,-2.7376,-2.7313,-4.932,-5.0171,-5.0751,-5.0074,-4.8314,-4.5974,-4.2918,-3.8868,0.0,0.0,-2.8991,-2.7052,-2.5925,-2.5725,-2.687,-3.0327,0.0,0.0,0.0,0.0,-4.4015,0.0,0.0,0.0,0.0,0.0,0.0,0.0,0.0,-4.63,-4.63,-4.63,-4.63,-4.63,-4.63,-4.6273,-4.626,-4.626,-4.626,-4.626,-4.626,-4.626,-4.624,-4.5636,-4.5362,-4.5206,-4.2319,0.0,-4.107,-4.107,-4.107,-4.107,-4.107,-4.0994,-4.0907,-4.0907,-4.0907,-4.0907,-4.0907,-4.0907,-4.0907,-4.0907,-4.0499,-4.0014,-4.0014,-4.0014,-3.9431,-3.6595,-3.7256,-3.9023,-3.982,-3.8063,-3.6276,-3.7023,-3.647,-3.5782,-3.5773,-3.7383,-3.8305,-3.655,-3.7095,-3.7471,-3.6327,-3.6221,-3.5959,-3.4945,-3.4718,-3.4532,-3.4207,-3.2818,-3.1615,-3.0959,-3.0152,-2.9645,-2.9588,-2.9588,-2.955,-2.9492,-2.9472,-2.9433,-2.9312,-2.9291,-2.9104,-2.87,-2.8652,-2.8504,-2.8219,-2.7954,-2.78,-2.78,-2.7569,-2.7421,-5.0094,-5.0616,-5.0712,-4.99,-4.7753,-4.4697,-4.0346,0.0,0.0,0.0,-2.6962,-2.5956,-2.5573,0.0,0.0,0.0,0.0,0.0,0.0,0.0,0.0,0.0,0.0,0.0,0.0,0.0,0.0,0.0,0.0,-4.63,-4.63,-4.63,-4.63,-4.63,-4.63,-4.63,-4.63,-4.63,-4.63,-4.63,-4.63,-4.63,-4.63,-4.63,-4.5304,-4.3509,-4.183,-4.1108,-4.1108,-4.1108,-4.1108,-4.1108,-4.1108,-4.1011,-4.0907,-4.0907,-4.0907,-4.0907,-4.0907,-4.0907,-4.0907,-4.0907,-4.0907,-4.0907,-4.0907,-4.0907,-4.0558,-3.8926,-3.9062,-3.947,-3.8499,-3.8343,-3.8149,-3.6906,-3.6207,-3.6284,-3.8071,-3.7702,-3.6984,-3.6731,-3.685,-3.6726,-3.5854,-3.5913,-3.5861,-3.5254,-3.5015,-3.4832,-3.4626,-3.3531,-3.2461,-3.1616,-3.0809,-3.0133,-2.9683,-2.9645,-2.9626,-2.955,-2.955,-2.9511,-2.9412,-2.9412,-2.9291,-2.9119,-2.8984,-2.8808,-2.8664,-2.8316,-2.8156,-2.8156,-2.784,-2.7701,-5.0229,-5.077,-5.0674,-4.9668,-4.7192,-4.3518,-3.7928,-3.4389,0.0,0.0,-2.5511,-2.5511,-2.5511,0.0,0.0,0.0,0.0,0.0,0.0,0.0,0.0,0.0,0.0,0.0,0.0,0.0,0.0,0.0,0.0,-4.63,-4.63,-4.63,-4.63,-4.63,-4.63,-4.63,-4.63,-4.63,-4.63,-4.63,-4.63,-4.63,-4.63,-4.63,-4.4406,-4.1147,-4.1888,-4.2201,-4.2162,-4.14,-4.1108,-4.1108,-4.1108,-4.1047,-4.0941,-4.0906,-4.0907,-4.0907,-4.0907,-4.0907,-4.0907,-4.0907,-4.0907,-4.0907,-4.0907,-4.0907,-4.0907,-4.0907,-4.0907,-4.0286,-3.7586,-3.8615,-3.9587,-3.6537,-3.6362,-3.7625,-4.0325,-3.8518,-3.6576,-3.7353,-3.6731,-3.5996,-3.5757,-3.5699,-3.5566,-3.5273,-3.5165,-3.5015,-3.4708,-3.4078,-3.3325,-3.2461,-3.1504,-3.0584,-2.9758,-2.9701,-2.9683,-2.9626,-2.9626,-2.9569,-2.9433,-2.9433,-2.9431,-2.9388,-2.9181,-2.9093,-2.9071,-2.8713,-2.8522,-2.8522,-2.8183,-2.802,-4.9552,-5.0345,-5.0519,-4.8914,-4.5413,-4.1197,-3.6806,0.0,0.0,-2.6072,-2.5511,-2.5511,-2.5511,-2.5568,-2.6113,0.0,0.0,-3.0214,0.0,0.0,0.0,0.0,0.0,0.0,0.0,0.0,0.0,0.0,-4.63,-4.63,-4.63,-4.63,-4.63,-4.63,-4.63,-4.63,-4.63,-4.63,-4.63,-4.63,-4.63,-4.63,-4.63,-4.63,-4.4406,-4.1283,-4.4445,-4.5812,0.0,-4.2415,-4.1108,-4.1108,-4.1108,-4.1085,-4.107,-4.0929,-4.0907,-4.0907,-4.0907,-4.0907,-4.0907,-4.0907,-4.0907,-4.0907,-4.0907,-4.0907,-4.0907,-4.0907,-4.0907,-4.083,-4.0519,-3.9548,-3.8149,-3.6246,-3.8169,-4.0519,-4.083,-3.9451,-3.8033,-3.7586,-3.7217,-3.6723,-3.5939,-3.5639,-3.5469,-3.5311,-3.5078,-3.4889,-3.479,-3.4609,-3.417,-3.3381,-3.186,-3.0584,-2.9758,-2.9701,-2.9701,-2.9701,-2.9701,-2.9645,-2.9588,-2.9588,-2.9511,-2.9392,-2.9372,-2.9351,-2.9347,-2.9071,-2.8938,-2.8957,-2.8597,-2.8402,-4.8121,-4.9146,-4.9243,-4.8566,-4.4813,-4.0288,-3.6555,0.0,0.0,-2.6033,-2.5511,-2.5499,-2.5503,-2.5518,-2.5783,0.0,0.0,0.0,0.0,0.0,0.0,0.0,0.0,0.0,0.0,0.0,0.0,0.0,-4.63,-4.63,-4.63,-4.63,-4.63,-4.63,-4.63,-4.63,-4.63,-4.63,-4.63,-4.63,-4.63,-4.63,-4.63,-4.63,-4.5539,-4.4192,-4.3469,-4.4367,0.0,-4.2533,-4.1108,-4.1108,-4.1108,-4.1108,-4.1081,-4.0957,-4.0907,-4.0907,-4.0907,-4.0907,-4.0907,-4.0907,-4.0907,-4.0907,-4.0907,-4.0907,-4.0907,-4.0907,-4.0907,-4.0907,-4.0907,-4.0402,-3.9723,-3.9023,-3.9917,-4.0907,-4.0907,-4.0383,-3.9625,-3.8693,-3.8441,-3.7974,-3.68,-3.6512,-3.623,-3.5534,-3.5297,-3.5149,-3.4982,-3.487,-3.443,-3.3559,-3.237,-3.1297,-3.049,-2.9983,-2.9701,-2.9701,-3.0152,-3.0396,-3.0319,-3.0824,-3.1046,-3.0966,-3.0966,-3.0966,-3.0963,-3.0318,-3.0012,-3.0009,-2.9168,-2.9064,-4.5548,-4.725,-4.7947,-4.7695,-4.3808,-3.9204,0.0,0.0,0.0,-2.5917,-2.5511,-2.5507,-2.5505,-2.5544,-2.5601,0.0,0.0,-2.6591,0.0,0.0,0.0,0.0,0.0,0.0,0.0,0.0,0.0,0.0,-4.6295,-4.63,-4.63,-4.63,-4.63,-4.63,-4.63,-4.63,-4.63,-4.63,-4.63,-4.63,-4.63,-4.63,-4.63,-4.63,-4.63,-4.6163,-4.3704,-4.4036,0.0,-4.2533,-4.1108,-4.1108,-4.1108,-4.1108,-4.1081,-4.0957,-4.0907,-4.0907,-4.0907,-4.0907,-4.0907,-4.0907,-4.0907,-4.0907,-4.0907,-4.0907,-4.0907,-4.0907,-4.0907,-4.0907,-4.0907,-4.0907,-4.0907,-4.0907,-4.0907,-4.0907,-4.0907,-4.0907,-4.0597,-3.9548,-3.914,-3.8576,-3.7314,-3.6887,-3.6444,-3.5684,-3.547,-3.5336,-3.5152,-3.5,-3.4661,-3.3979,-3.3109,-3.2221,-3.1335,-3.0527,-3.0152,-3.0396,-3.0941,-3.1221,-3.1202,-3.1763,-3.2079,-3.2037,-3.2037,-3.2019,-3.1998,-3.1379,-3.1099,-3.1057,-3.0231,-3.0111,-4.1603,-4.4543,-4.6902,-4.6032,-4.2009,-3.756,0.0,0.0,-2.6489,-2.5666,-2.5511,-2.5507,-2.5505,-2.5544,-2.5593,-2.5605,-2.5667,0.0,0.0,0.0,0.0,0.0,0.0,0.0,0.0,0.0,0.0,0.0,-4.6269,0.0,-4.63,-4.63,-4.63,-4.63,-4.63,-4.63,-4.63,-4.63,-4.63,-4.63,-4.63,-4.63,-4.63,-4.63,-4.63,-4.63,-4.6261,-4.6261,0.0,-4.2533,-4.1108,-4.1108,-4.1108,-4.1108,-4.1081,-4.0957,-4.0907,-4.0907,-4.0907,-4.0907,-4.0907,-4.0907,-4.0907,-4.0907,-4.0907,-4.0907,-4.0907,-4.0907,-4.0907,-4.0907,-4.0907,-4.0907,-4.0907,-4.0907,-4.0907,-4.0907,-4.0907,-4.0907,-4.0655,-3.9858,-3.9004,-3.813,-3.7256,-3.6382,-3.5793,-3.5718,-3.5526,-3.535,-3.5232,-3.5016,-3.4908,-3.4889,-3.4169,-3.3261,-3.2181,-3.1354,-3.1241,-3.2011,-3.2086,-3.2086,-3.2086,-3.2105,-3.2103,-3.2098,-3.2098,-3.2058,-3.1998,-3.1979,-3.1979,-3.1979,-3.1915,-3.17,-3.6922,-3.847,-3.9359,-3.9649,-3.6748,-3.3479,-3.2106,0.0,-2.6459,-2.5665,-2.5498,-2.5518,-2.5554,-2.559,-2.5625,-2.5667,-2.5695,0.0,0.0,0.0,0.0,0.0,0.0,0.0,0.0,0.0,0.0,0.0,-4.6216,-4.6238,-4.6238,-4.6287,-4.63,-4.63,-4.63,-4.63,-4.63,-4.63,-4.63,-4.63,-4.63,-4.63,-4.63,-4.63,-4.63,-4.63,-4.63,-4.63,-4.6027,-4.2533,-4.1108,-4.1108,-4.1108,-4.1108,-4.1088,-4.1042,-4.0974,-4.0907,-4.0907,-4.0907,-4.0907,-4.0907,-4.0953,-4.1047,-4.1047,-4.0967,-4.0907,-4.0907,-4.0907,-4.0907,-4.0907,-4.0907,-4.0907,-4.0907,-4.0907,-4.0907,-4.0907,-4.0907,-4.0655,-3.9858,-3.9917,-3.947,-3.745,-3.7372,-3.7169,-3.5939,-3.5688,-3.557,-3.5432,-3.5311,-3.5174,-3.5038,-3.4277,-3.358,-3.3089,-3.2335,-3.192,-3.2086,-3.2668,-3.2987,-3.2987,-3.3513,-3.3813,-3.3811,-3.3811,-3.3811,-3.377,-3.3227,-3.2662,-3.2077,-3.2577,-3.2732,0.0,-3.4234,-3.5336,-3.582,-3.3634,0.0,0.0,0.0,-2.6103,-2.5608,-2.5525,-2.555,-2.5581,-2.561,-2.5615,-2.5695,-2.5699,0.0,0.0,0.0,0.0,0.0,0.0,0.0,0.0,0.0,0.0,-4.6196,-4.6196,-4.6196,-4.6196,-4.6231,-4.6268,-4.6303,-4.63,-4.63,-4.63,-4.63,-4.63,-4.63,-4.63,-4.63,-4.63,-4.63,-4.63,-4.63,-4.63,-4.5558,0.0,-4.2006,-4.1108,-4.1108,-4.1108,-4.1108,-4.1108,-4.1108,-4.1057,-4.0986,-4.0986,-4.0986,-4.0986,-4.0986,-4.1022,-4.1108,-4.1108,-4.1,-4.0907,-4.0907,-4.0907,-4.0907,-4.0907,-4.0907,-4.0907,-4.0907,-4.0907,-4.0907,-4.0907,-4.0907,-4.0752,-4.0247,-4.0053,-3.9451,-3.7858,-3.7508,-3.7042,-3.5954,-3.5737,-3.5657,-3.5507,-3.5443,-3.532,-3.5162,-3.4649,-3.4274,-3.4131,-3.3337,-3.2902,-3.3125,-3.3631,-3.3911,-3.3851,-3.432,-3.4602,-3.4602,-3.4602,-3.4602,-3.4602,-3.4095,-3.3567,-3.3016,-3.3481,-3.3661,0.0,0.0,0.0,0.0,0.0,0.0,0.0,0.0,0.0,-2.5506,-2.5564,-2.5593,-2.5605,-2.561,-2.5639,-2.5695,0.0,0.0,0.0,0.0,0.0,0.0,0.0,0.0,0.0,0.0,0.0,-4.6196,-4.6196,-4.6196,-4.6196,-4.6196,-4.6234,-4.6293,-4.629,-4.6306,-4.63,-4.63,-4.63,-4.63,-4.63,-4.63,-4.628,-4.6046,-4.5929,0.0,-4.6183,-4.4328,-4.1108,-4.1108,-4.1108,-4.1108,-4.1108,-4.1108,-4.1108,-4.1108,-4.1108,-4.1108,-4.1108,-4.1108,-4.1108,-4.1108,-4.1108,-4.1108,-4.1108,-4.1,-4.0907,-4.0907,-4.0907,-4.0907,-4.0907,-4.0907,-4.0907,-4.0907,-4.0907,-4.0907,-4.0907,-4.0907,-4.0907,-4.0907,-3.9606,-3.8441,-3.8324,-3.6964,-3.5877,-3.5818,-3.5737,-3.5667,-3.5519,-3.5457,-3.535,-3.5226,-3.5209,-3.5176,-3.511,-3.4299,-3.4093,-3.4771,-3.4788,-3.4747,-3.4623,-3.4602,-3.4602,-3.4602,-3.4602,-3.4602,-3.4602,-3.4602,-3.4561,-3.4517,-3.4517,-3.4473,-2.3971,0.0,-2.6768,-2.7426,-2.7136,0.0,0.0,0.0,0.0,0.0,0.0,0.0,-2.5667,0.0,0.0,0.0,0.0,0.0,0.0,0.0,0.0,0.0,0.0,0.0,0.0,0.0,-4.6196,-4.6196,-4.6196,-4.6196,-4.6196,-4.6196,-4.6203,-4.6221,-4.6212,-4.625,-4.63,-4.63,-4.63,-4.63,-4.63,-4.63,-4.6202,-4.3548,-4.2318,-4.2474,-4.5148,-4.4328,-4.1108,-4.1108,-4.1108,-4.1108,-4.1108,-4.1108,-4.1108,-4.1108,-4.1108,-4.1108,-4.1108,-4.1108,-4.1108,-4.1108,-4.1108,-4.1108,-4.1108,-4.1,-4.0907,-4.0907,-4.0907,-4.0907,-4.0907,-4.0907,-4.0907,-4.0907,-4.0907,-4.0907,-4.0907,-4.0907,-4.0907,-4.0907,-4.0072,-3.8965,-3.7644,-3.7061,-3.6576,-3.5896,-3.5782,-3.5747,-3.5648,-3.5538,-3.5438,-3.5364,-3.5258,-3.5193,-3.5176,-3.492,-3.4775,-3.4809,-3.4788,-3.4747,-3.4623,-3.4602,-3.4602,-3.4602,-3.4602,-3.4602,-3.4602,-3.4602,-3.4583,-3.458,-3.458,-3.4561,-2.2721,-2.3552,-2.4409,-2.5279,-2.5511,-2.5499,0.0,0.0,0.0,0.0,0.0,0.0,0.0,0.0,0.0,0.0,0.0,0.0,0.0,0.0,0.0,0.0,0.0,0.0,0.0,0.0,-4.6196,-4.6196,-4.6196,-4.6196,-4.6196,-4.6196,-4.6196,-4.6196,-4.6195,-4.6225,-4.625,-4.6276,-4.63,-4.63,-4.63,-4.63,-4.6183,-4.2689,-4.1108,-4.1205,-4.3099,-4.2845,-4.1108,-4.1108,-4.1108,-4.1108,-4.1108,-4.1108,-4.1108,-4.1108,-4.1108,-4.1108,-4.1108,-4.1108,-4.1108,-4.1108,-4.1108,-4.1108,-4.1108,-4.1057,-4.0987,-4.0987,-4.0987,-4.0987,-4.0987,-4.0987,-4.0987,-4.0987,-4.0987,-4.0967,-4.0906,-4.0907,-4.0907,-4.0907,-4.013,-3.9004,-3.7547,-3.7178,-3.6945,-3.6479,-3.6401,-3.6511,-3.6802,-3.6057,-3.5631,-3.5965,-3.5519,-3.5209,-3.5209,-3.516,-3.5092,-3.4946,-3.4946,-3.4868,-3.4687,-3.4687,-3.4666,-3.4602,-3.4602,-3.4602,-3.4602,-3.4602,-3.4602,-3.4602,-3.4602,-3.4602,-2.2732,-2.3502,-2.4249,-2.5248,-2.5499,-2.5499,0.0,0.0,0.0,0.0,0.0,0.0,0.0,0.0,0.0,0.0,0.0,0.0,0.0,0.0,0.0,0.0,0.0,0.0,0.0,-4.6196,-4.6196,-4.6196,-4.6196,-4.6196,-4.6196,-4.6196,-4.6196,-4.6196,-4.6196,-4.615,-4.6,-4.6191,-4.628,-4.628,-4.628,-4.6007,-4.5401,-4.2453,-4.1107,-4.1105,0.0,0.0,-4.1108,-4.1108,-4.1108,-4.1108,-4.1108,-4.1108,-4.1108,-4.1108,-4.1108,-4.1108,-4.1108,-4.1108,-4.1108,-4.1108,-4.1108,-4.1108,-4.1108,-4.1108,-4.1108,-4.1108,-4.1108,-4.1108,-4.1108,-4.1108,-4.1108,-4.1108,-4.1108,-4.107,-4.0964,-4.0932,-4.0924,-4.0897,-4.0111,-3.9062,-3.7838,-3.7236,-3.7023,-3.7372,-3.7411,-3.7568,-3.7986,-3.6679,-3.5926,-3.6469,-3.5741,-3.5226,-3.5209,-3.5209,-3.5176,-3.5127,-3.5092,-3.502,-3.4829,-3.4809,-3.4749,-3.4647,-3.4645,-3.4623,-3.4623,-3.4623,-3.4602,-3.4602,-3.4602,-3.4602,-2.2571,-2.3085,-2.3564,-2.5111,-2.5499,-2.5499,0.0,0.0,0.0,0.0,0.0,0.0,0.0,0.0,0.0,0.0,0.0,0.0,0.0,0.0,0.0,0.0,0.0,0.0,-4.6176,-4.6196,-4.6196,-4.6196,-4.6196,-4.6196,-4.6196,-4.6196,-4.6196,-4.6196,-4.6196,-4.5852,-4.5105,-4.5844,-4.6226,-4.6226,-4.6226,-4.4704,-4.1876,-4.1345,-4.1091,-4.11,0.0,-4.1108,-4.1108,-4.1108,-4.1108,-4.1108,-4.1108,-4.1108,-4.1108,-4.1108,-4.1108,-4.1108,-4.1108,-4.1108,-4.1108,-4.1108,-4.1108,-4.1108,-4.1108,-4.1108,-4.1108,-4.1108,-4.1108,-4.1108,-4.1108,-4.1108,-4.1108,-4.1108,-4.1108,-4.1085,-4.1074,-4.107,-4.1047,-4.0924,-4.0752,-4.013,-3.8538,-3.7003,-3.6653,-3.8596,-3.8887,-3.8499,-3.7413,-3.693,-3.6439,-3.5753,-3.5493,-3.532,-3.5209,-3.5209,-3.5193,-3.5193,-3.5127,-3.5039,-3.4889,-3.4889,-3.487,-3.4851,-3.479,-3.4768,-3.4768,-3.4666,-3.4602,-3.4602,-3.4602,-3.4602,-2.3373,-2.4049,-2.4593,-2.542,-2.5574,-2.5557,-2.555,0.0,0.0,0.0,0.0,0.0,0.0,0.0,0.0,0.0,0.0,0.0,0.0,0.0,0.0,0.0,0.0,-4.5163,-4.6098,-4.6196,-4.6196,-4.6196,-4.6196,-4.6196,-4.6196,-4.6196,-4.6196,-4.6196,-4.6196,-4.6001,-4.5611,-4.4169,-4.4052,-4.526,-4.4033,-4.263,-4.1091,-4.1094,-4.1108,-4.1097,0.0,-4.1103,-4.1105,-4.1107,-4.1108,-4.1108,-4.1108,-4.1108,-4.1108,-4.1108,-4.1108,-4.1108,-4.1108,-4.1108,-4.1108,-4.1108,-4.1108,-4.1108,-4.1108,-4.1108,-4.1108,-4.1108,-4.1108,-4.1108,-4.1108,-4.1108,-4.1108,-4.1108,-4.1108,-4.1108,-4.1108,-4.1108,-4.1066,-4.0924,-4.0907,-4.0655,-3.9878,-3.8576,-3.7994,-3.9043,-3.9353,-3.9392,-3.9179,-3.7957,-3.7058,-3.6928,-3.5945,-3.5273,-3.5209,-3.5209,-3.5209,-3.5209,-3.5145,-3.5075,-3.5001,-3.4945,-3.4908,-3.4908,-3.487,-3.483,-3.4788,-3.4747,-3.4666,-3.4602,-3.4602,-3.4846,-2.3995,-2.4695,-2.5279,-2.5617,0.0,-2.5607,-2.5557,0.0,0.0,0.0,0.0,0.0,0.0,0.0,0.0,0.0,0.0,0.0,0.0,0.0,-4.2564,-4.3487,-4.3955,-4.4734,-4.6059,-4.6196,-4.6196,-4.6196,-4.6196,-4.6196,-4.6196,-4.6001,-4.5903,-4.5903,-4.5689,-4.5494,-4.528,-4.2689,-4.2299,-4.4072,-4.2065,-4.111,-4.1097,-4.1108,-4.1105,-4.111,-4.111,-4.111,-4.1103,-4.109,-4.1105,-4.1091,-4.1108,-4.1105,-4.1108,-4.1108,-4.1108,-4.1108,-4.1108,-4.1108,-4.1108,-4.1108,-4.1108,-4.1108,-4.1108,-4.1108,-4.1108,-4.1108,-4.1108,-4.1108,-4.1108,-4.1108,-4.1108,-4.1108,-4.1108,-4.1108,-4.1108,-4.1108,-4.107,-4.0979,-4.0957,-4.0941,-4.0917,-4.0189,-3.9606,-3.9606,-3.982,-4.0208,-4.083,-3.9111,-3.7854,-3.7815,-3.6675,-3.5875,-3.5832,-3.5436,-3.5286,-3.5496,-3.5257,-3.5127,-3.5127,-3.5019,-3.4982,-3.4982,-3.4908,-3.487,-3.481,-3.4788,-3.48,-3.4902,-3.4902,-3.5353,-2.3786,-2.3961,-2.4292,-2.5426,0.0,0.0,-2.5691,-2.5695,0.0,0.0,0.0,0.0,0.0,0.0,0.0,0.0,0.0,0.0,0.0,0.0,-4.5864,-4.5942,-4.5981,-4.6059,-4.6196,-4.6196,-4.6196,-4.6196,-4.6196,-4.6196,-4.6196,-4.5436,-4.4988,-4.4988,-4.4208,-4.341,-4.2591,-4.2338,-4.2455,-4.2903,-4.1675,-4.111,-4.111,-4.1103,-4.1103,-4.111,-4.111,-4.111,-4.1091,-4.1103,-4.1101,-4.1097,-4.1104,-4.1101,-4.1108,-4.1108,-4.1108,-4.1108,-4.1108,-4.1108,-4.1108,-4.1108,-4.1108,-4.1108,-4.1108,-4.1108,-4.1108,-4.1108,-4.1108,-4.1108,-4.1108,-4.1108,-4.1108,-4.1108,-4.1108,-4.1108,-4.1108,-4.1108,-4.1108,-4.1081,-4.1081,-4.1057,-4.0915,-4.083,-4.0771,-4.0771,-4.0791,-4.083,-4.0888,-4.0102,-3.887,-3.717,-3.7575,-3.7919,-3.7732,-3.6154,-3.5553,-3.6375,-3.5632,-3.5193,-3.5193,-3.5174,-3.5193,-3.5193,-3.5001,-3.4908,-3.4889,-3.471,-3.5036,-3.5803,-3.5803,-3.6235,-2.4822,-2.5017,-2.5134,-2.5582,0.0,0.0,0.0,0.0,0.0,0.0,0.0,0.0,0.0,0.0,0.0,0.0,0.0,0.0,0.0,-4.5864,-4.6196,-4.6196,-4.5709,-4.5397,-4.5397,-4.489,-4.4579,-4.4579,-4.4579,-4.4579,-4.4579,-4.4267,-4.4091,-4.4091,-4.378,-4.3442,-4.3111,-4.2572,-4.2357,-4.2474,-4.1559,-4.111,-4.111,-4.111,-4.111,-4.111,-4.111,-4.111,-4.111,-4.111,-4.1091,-4.1097,-4.109,-4.1091,-4.1108,-4.1108,-4.1108,-4.1108,-4.1108,-4.1108,-4.1108,-4.1108,-4.1108,-4.1108,-4.1108,-4.1108,-4.1108,-4.1108,-4.1108,-4.1108,-4.1108,-4.1108,-4.1108,-4.1108,-4.1108,-4.1108,-4.1108,-4.1108,-4.1108,-4.1108,-4.1108,-4.1081,-4.1028,-4.0964,-4.0907,-4.0907,-4.0907,-4.0907,-4.0907,-4.0635,-3.9947,-3.8653,-3.8208,-3.7973,-3.7905,-3.7204,-3.668,-3.6509,-3.5687,-3.5209,-3.5209,-3.5209,-3.5209,-3.5209,-3.5124,-3.5285,-3.5703,-3.5644,-3.5953,-3.6648,-3.6648,-3.708,-2.5543,-2.5699,-2.5699,0.0,0.0,0.0,0.0,0.0,0.0,0.0,0.0,0.0,0.0,0.0,0.0,0.0,0.0,0.0,0.0,-4.5163,-4.5592,-4.5397,-4.4695,-4.4306,-4.4462,-4.3955,-4.3598,-4.3598,-4.3598,-4.3598,-4.3598,-4.3344,-4.3189,-4.3189,-4.2942,-4.2806,-4.2806,-4.2221,-4.1773,-4.15,-4.0955,-4.0682,-4.0682,-4.0584,-4.0526,-4.0545,-4.0935,-4.111,-4.111,-4.111,-4.111,-4.1109,-4.1093,-4.1108,-4.1094,-4.1092,-4.1108,-4.1108,-4.1108,-4.1108,-4.1108,-4.1108,-4.1108,-4.1108,-4.1108,-4.1108,-4.1108,-4.1108,-4.1108,-4.1108,-4.1108,-4.1108,-4.1108,-4.1108,-4.1108,-4.1108,-4.1108,-4.1108,-4.1108,-4.1108,-4.1108,-4.1108,-4.1108,-4.1017,-4.0957,-4.0917,-4.0907,-4.0907,-4.0907,-4.0907,-4.0655,-4.0003,-3.8769,-3.8204,-3.87,-3.815,-3.7515,-3.6929,-3.6088,-3.5496,-3.5209,-3.5209,-3.5209,-3.5209,-3.5176,-3.551,-3.6236,-3.6196,-3.6684,-3.7612,-3.7566,-3.7976,-2.5699,-2.5699,-2.5699,0.0,0.0,0.0,0.0,0.0,0.0,0.0,0.0,0.0,0.0,0.0,0.0,-3.9084,-4.1169,-4.2591,-4.3461,-4.413,-4.4267,-4.3663,-4.3117,-4.3,-4.352,-4.3559,-4.3539,-4.3539,-4.3539,-4.3539,-4.3539,-4.2728,-4.226,-4.226,-4.15,-4.1091,-4.1091,-4.1091,-4.0643,-3.9786,-3.9786,-3.9786,-3.9786,-3.9435,-3.9292,-3.9351,-4.0545,-4.1052,-4.1052,-4.1052,-4.1052,-4.105,-4.1054,-4.1072,-4.1101,-4.1055,-4.106,-4.1091,-4.1111,-4.1108,-4.1108,-4.1108,-4.1108,-4.1108,-4.1108,-4.1108,-4.1108,-4.1108,-4.1108,-4.1108,-4.1108,-4.1108,-4.1108,-4.1108,-4.1108,-4.1108,-4.1108,-4.1108,-4.1108,-4.1108,-4.1108,-4.1108,-4.1108,-4.1127,-4.1081,-4.0943,-4.0907,-4.0907,-4.0907,-4.0907,-4.0907,-4.0907,-3.9305,-3.8868,-4.0467,-3.8965,-3.7862,-3.771,-3.6948,-3.6126,-3.5248,-3.5209,-3.5209,-3.5209,-3.5126,-3.5492,-3.631,-3.6255,-3.7068,-3.8698,-3.859,-3.8939,-2.5699,-2.5699,0.0,0.0,0.0,0.0,0.0,0.0,0.0,0.0,0.0,0.0,0.0,0.0,0.0,-3.7253,-3.8831,-4.0857,-4.2767,-4.3877,-4.413,-4.3156,-4.2182,-4.1675,-4.1831,-4.074,-4.0019,-4.0019,-4.0019,-4.0019,-4.0019,-3.9766,-3.963,-3.963,-3.9396,-3.9279,-3.9279,-3.9279,-3.9143,-3.8889,-3.8889,-3.9084,-3.9415,-3.8519,-3.8344,-3.8694,-3.7818,-3.7448,-3.7448,-3.7448,-3.7448,-3.7434,-3.7441,-3.8938,-4.0812,-3.8397,-3.9037,-4.1091,-4.1107,-4.1108,-4.1108,-4.1108,-4.1108,-4.1108,-4.1108,-4.1108,-4.1108,-4.1108,-4.1108,-4.1108,-4.1108,-4.1108,-4.1108,-4.1108,-4.1108,-4.1108,-4.1108,-4.1108,-4.1108,-4.1108,-4.1108,-4.1108,-4.1108,-4.3138,-4.3911,-4.1427,-4.0953,-4.0907,-4.0907,-4.0907,-4.0907,-4.0907,-4.0391,-4.0227,-4.0706,-4.0087,-3.9141,-3.792,-3.7534,-3.67,-3.5267,-3.5209,-3.5209,-3.5209,-3.5176,-3.5848,-3.7224,-3.7186,-3.8002,-3.9551,-3.9488,-3.9577,-2.5699,0.0,0.0,0.0,0.0,0.0,0.0,0.0,0.0,0.0,0.0,0.0,0.0,-3.8285,0.0,-3.8305,-3.9123,-4.0506,-4.1929,-4.2728,-4.2883,-4.2202,-4.111,-4.0214,-3.9747,-3.8987,-3.8363,-3.8013,-3.8305,-3.8344,-3.7993,-3.8305,-3.85,-3.85,-3.85,-3.85,-3.85,-3.85,-3.8324,-3.7974,-3.7974,-3.7974,-3.7935,-3.7603,-3.7448,-3.7409,-3.6356,-3.5908,-3.5908,-3.5908,-3.5908,-3.6045,-3.7428,-3.926,-4.0674,-3.7235,-3.8141,-4.1103,-4.1103,-4.1091,-4.1094,-4.1094,-4.0173,-3.9078,-3.9078,-4.0015,-4.1108,-4.1108,-4.1108,-4.1108,-4.1108,-4.1108,-4.1108,-4.1108,-4.1108,-4.1108,-4.1108,-4.1108,-4.1108,-4.1108,-4.222,-4.3177,-4.3177,-4.3762,-4.3528,-4.142,-4.1,-4.0907,-4.0907,-4.0907,-4.0907,-4.0907,-4.0868,-4.0834,-4.08,-4.0648,-3.9952,-3.8541,-3.8358,-3.7682,-3.6323,-3.5911,-3.5725,-3.5725,-3.6031,-3.6837,-3.8156,-3.8156,-3.8804,-4.0057,-4.0015,-3.9933,0.0,0.0,0.0,0.0,0.0,0.0,0.0,0.0,0.0,0.0,0.0,0.0,0.0,-4.111,-4.1071,-4.0955,-4.1033,-4.111,-4.111,-4.111,-4.111,-4.111,-3.9844,-3.8578,-3.7545,-3.7935,-3.7896,-3.6999,-3.7759,-3.7876,-3.696,-3.7681,-3.809,-3.8032,-3.811,-3.8149,-3.8149,-3.8149,-3.7798,-3.7077,-3.6999,-3.6551,-3.5811,-3.6688,-3.6649,-3.5908,-3.5908,-3.5908,-3.5908,-3.5908,-3.5908,-3.6201,-3.9396,-4.0623,-4.0234,-3.7077,-3.811,-4.111,-4.111,-4.0882,-4.062,-4.0632,-3.852,-3.5982,-3.5994,-3.818,-4.0639,-4.0639,-4.0639,-4.0717,-4.101,-4.1108,-4.1108,-4.1108,-4.1108,-4.1108,-4.1108,-4.1108,-4.1186,-4.1518,-4.4133,-4.63,-4.63,-4.3665,-4.1459,-4.1147,-4.0987,-4.0936,-4.1014,-4.0946,-4.0927,-4.1005,-4.0946,-4.0878,-4.0812,-4.08,-4.0377,-3.938,-3.9249,-3.8823,-3.7943,-3.7089,-3.6623,-3.6623,-3.733,-3.8132,-3.9011,-3.9011,-3.9451,-4.031,-4.0176,-4.0117,0.0,0.0,0.0,0.0,0.0,0.0,0.0,0.0,0.0,0.0,0.0,0.0,0.0,-4.111,-4.0799,-3.9838,-4.0487,-4.111,-4.111,-4.111,-4.111,-4.111,-3.8461,-3.6532,-3.6298,-3.6376,-3.6006,-3.4934,-3.585,-3.5986,-3.4895,-3.5012,-3.4934,-3.4506,-3.5109,-3.5441,-3.5441,-3.5441,-3.5694,-3.6162,-3.548,-3.5051,-3.4915,-3.5772,-3.6084,-3.5908,-3.5908,-3.5908,-3.5908,-3.5908,-3.5908,-3.5967,-3.6727,-3.7019,-3.6921,-3.6181,-3.811,-4.111,-4.111,-3.9307,-3.7028,-3.7016,-3.6518,-3.5932,-3.5989,-3.6521,-3.7106,-3.7106,-3.7106,-3.7711,-4.0405,-4.1108,-4.1108,-4.1108,-4.1108,-4.1108,-4.1108,-4.1108,-4.1908,-4.4641,-4.5792,-4.63,-4.63,-4.5675,-4.425,-4.1518,-4.1022,-4.1232,-4.1902,-4.1362,-4.116,-4.184,-4.1315,-4.0878,-4.0878,-4.0834,-4.0421,-3.9499,-3.9341,-3.8901,-3.8086,-3.7655,-3.7445,-3.7445,-3.7617,-3.8132,-3.9011,-3.9011,-3.9451,-4.031,-4.0253,-4.0215,0.0,0.0,0.0,0.0,0.0,0.0,0.0,0.0,0.0,0.0,0.0,0.0,-3.926,-3.9669,-3.9727,-3.9351,-3.9376,-3.9221,-3.8694,-3.8617,-3.8617,-3.8617,-3.7019,-3.5577,-3.4778,-3.47,-3.4272,-3.3278,-3.4369,-3.4525,-3.3259,-3.359,-3.3687,-3.3414,-3.3804,-3.4018,-3.4018,-3.4018,-3.4252,-3.47,-3.4233,-3.4018,-3.4057,-3.4895,-3.5285,-3.5304,-3.5713,-3.5908,-3.5908,-3.5908,-3.5908,-3.5908,-3.5908,-3.5908,-3.5908,-3.5908,-3.7058,-3.8617,-3.8617,-3.7428,-3.5908,-3.5908,-3.5908,-3.5904,-3.5945,-3.5975,-3.5991,-3.5991,-3.7184,-3.8843,-4.0639,-4.1108,-4.1108,-4.1108,-4.1108,-4.1108,-4.1108,-4.1108,-4.1635,-4.345,-4.5168,-4.5773,-4.4094,-4.5187,-4.5301,-4.2362,-4.2354,-4.2578,-4.2337,-4.1871,-4.174,-4.2196,-4.145,-4.0907,-4.0907,-4.0868,-4.0654,-4.0188,-4.006,-3.9837,-3.9424,-3.9206,-3.8876,-3.8427,-3.876,-3.9164,-3.9623,-3.9623,-3.9871,-4.031,-4.031,-4.0253,0.0,0.0,0.0,0.0,0.0,0.0,0.0,0.0,0.0,0.0,0.0,0.0,-3.7701,-3.8032,-3.8422,-3.887,-3.8013,-3.698,-3.6025,-3.5655,-3.5577,-3.5869,-3.5908,-3.5109,-3.3142,-3.2947,-3.2655,-3.1934,-3.322,-3.3414,-3.1953,-3.2557,-3.2947,-3.2947,-3.3103,-3.3186,-3.3186,-3.3186,-3.3239,-3.3395,-3.3244,-3.3186,-3.3205,-3.3863,-3.4252,-3.4428,-3.5168,-3.546,-3.548,-3.5616,-3.5675,-3.5694,-3.583,-3.5908,-3.5908,-3.5908,-3.5908,-3.5908,-3.5908,-3.5908,-3.5908,-3.5908,-3.5908,-3.5908,-3.5908,-3.5942,-3.5971,-3.5971,-3.8444,-4.1108,-4.1108,-4.1108,-4.1108,-4.1108,-4.1108,-4.1108,-4.1108,-4.1108,-4.1108,-4.1108,-4.3665,-4.5031,-4.2435,-4.4231,-4.5356,-4.3397,-4.3821,-4.3972,-4.2896,-4.2493,-4.2346,-4.2482,-4.1546,-4.0907,-4.0907,-4.0907,-4.0907,-4.0907,-4.0848,-4.0823,-4.0823,-4.0688,-4.0265,-3.9484,-4.0051,-4.0345,-4.0345,-4.0328,-4.0328,-4.0328,-4.0328,-4.031,0.0,0.0,0.0,0.0,0.0,0.0,0.0,0.0,0.0,0.0,0.0,-3.659,-3.809,-3.7837,-3.7409,-3.7467,-3.6727,-3.6064,-3.5928,-3.4642,-3.4272,-3.5733,-3.5908,-3.4642,-3.1466,-3.1149,-3.1091,-3.0974,-3.2557,-3.2771,-3.1057,-3.1072,-3.1149,-3.1149,-3.1875,-3.227,-3.227,-3.227,-3.2659,-3.3395,-3.264,-3.227,-3.2289,-3.2387,-3.2854,-3.357,-3.3687,-3.3726,-3.3785,-3.4486,-3.4778,-3.4856,-3.5616,-3.5908,-3.5908,-3.5908,-3.5908,-3.5908,-3.5908,-3.5908,-3.5908,-3.5908,-3.5908,-3.5908,-3.5908,-3.5904,-3.5903,-3.5903,-3.8416,-4.1108,-4.1108,-4.1108,-4.1108,-4.1108,-4.1108,-4.1108,-4.1108,-4.1108,-4.1108,-4.1108,-4.2708,-4.4387,-4.5421,-4.5168,-4.4715,-4.4399,-4.4036,-4.3983,-4.4484,-4.3227,-4.258,-4.3272,-4.1868,-4.0907,-4.0907,-4.0907,-4.0907,-4.0907,-4.0898,-4.0888,-4.0888,-4.0815,-4.0718,-4.059,-4.0563,-4.0564,-4.0564,-4.0438,-4.0392,-4.0392,-4.0392,-4.0362,0.0,0.0,0.0,0.0,0.0,0.0,0.0,0.0,0.0,0.0,0.0,-3.4155,-3.5402,-3.5324,-3.5071,-3.5071,-3.4739,-3.4369,-3.4038,-3.3902,-3.3648,-3.3103,-3.3044,-3.246,-3.0955,-3.0799,-3.0604,-3.0117,-3.0648,-3.0511,-2.9396,-2.9338,-2.9338,-2.9338,-2.9713,-3.0141,-3.0648,-3.0648,-3.1076,-3.1934,-3.1544,-3.1369,-3.1369,-3.1369,-3.1856,-3.2698,-3.3186,-3.32,-3.2986,-3.4135,-3.4506,-3.4486,-3.5499,-3.5908,-3.5908,-3.5908,-3.5908,-3.5908,-3.5908,-3.5908,-3.5908,-3.5908,-3.5908,-3.5908,-3.5908,-3.5908,-3.5908,-3.5908,-3.8417,-4.1108,-4.1101,-4.1108,-4.1108,-4.1108,-4.1108,-4.1108,-4.1108,-4.1108,-4.1108,-4.1108,-4.222,-4.3645,-4.5109,-4.4641,-4.4094,-4.4094,-4.4692,-4.4922,-4.4313,-4.3961,-4.37,-4.3564,-4.2391,-4.1432,-4.0946,-4.0907,-4.0907,-4.0907,-4.0907,-4.0907,-4.0907,-4.0878,-4.0858,-4.0858,-4.07,-4.0588,-4.0588,-4.0545,-4.0515,-4.0515,-4.0515,-4.0504,0.0,0.0,0.0,0.0,0.0,0.0,0.0,0.0,0.0,0.0,-3.0044,-3.131,-3.1953,-3.2791,-3.3395,-3.3395,-3.32,-3.2986,-3.2752,-3.3083,-3.281,-3.1403,-3.0974,-3.0799,-3.0799,-3.039,-3.0039,-2.9844,-2.9109,-2.8621,-2.8544,-2.8329,-2.8193,-2.8193,-2.8193,-2.8505,-2.9162,-2.9162,-2.9611,-3.0468,-3.0468,-3.0468,-3.0487,-3.0701,-3.1149,-3.1773,-3.246,-3.2479,-3.2187,-3.3687,-3.4174,-3.4116,-3.5402,-3.5908,-3.5908,-3.5908,-3.5908,-3.5908,-3.5908,-3.5908,-3.5908,-3.5908,-3.5908,-3.5908,-3.5908,-3.6512,-3.7038,-3.6142,-3.8402,-4.1091,-4.1108,-4.1108,-4.1108,-4.1108,-4.1108,-4.1186,-4.1479,-4.1537,-4.1615,-4.1927,-4.2728,-4.3626,-4.4465,-4.4465,-4.4289,-4.4055,-4.5324,-4.5812,-4.4497,-4.4674,-4.4637,-4.3987,-4.308,-4.217,-4.1296,-4.1238,-4.114,-4.0907,-4.0907,-4.0907,-4.0907,-4.0907,-4.0907,-4.0907,-4.0742,-4.0668,-4.0668,-4.0662,-4.0648,-4.0648,-4.0648,-4.0635,0.0,0.0,0.0,0.0,0.0,0.0,0.0,0.0,0.0,0.0,-2.7764,-2.8427,-2.8466,-3.1174,-3.3395,-3.3395,-3.2718,-3.2445,-3.3239,-3.1973,-3.1325,-3.2304,-3.1461,-3.0799,-3.0799,-2.9299,-2.9007,-3.0604,-2.8719,-2.8056,-2.9357,-2.8656,-2.8193,-2.8193,-2.8193,-2.8212,-2.8271,-2.8271,-2.8719,-2.9572,-2.9572,-2.9572,-2.9591,-3.0409,-3.0789,-3.0787,-3.0886,-3.0916,-3.1013,-3.2752,-3.3453,-3.3609,-3.5265,-3.5908,-3.5908,-3.5908,-3.5908,-3.5908,-3.5908,-3.5908,-3.5908,-3.5908,-3.5908,-3.5908,-3.5908,-3.8207,-4.0136,-3.6824,-3.8402,-4.1091,-4.1108,-4.1108,-4.1108,-4.1108,-4.1108,-4.14,-4.2474,-4.2708,-4.306,-4.4192,-4.468,-4.4816,-4.4641,-4.546,-4.587,-4.507,-4.5714,-4.6234,-4.6094,-4.5384,-4.4857,-4.474,-4.3947,-4.3083,-4.2209,-4.2131,-4.1781,-4.0946,-4.0907,-4.0907,-4.0907,-4.0907,-4.0907,-4.0907,-4.0898,-4.0878,-4.0878,-4.0815,-4.0788,-4.0788,-4.0788,-4.072,0.0,0.0,0.0,0.0,0.0,0.0,0.0,0.0,0.0,0.0,-2.679,-2.7374,-2.7374,-2.8836,-3.0063,-3.0063,-3.0278,-3.0531,-3.0843,-3.0843,-3.0955,-3.1364,-3.1052,-3.0799,-3.0799,-2.9727,-2.9065,-2.9124,-2.7862,-2.7063,-2.7063,-2.6771,-2.6595,-2.6595,-2.6595,-2.6848,-2.7355,-2.792,-2.8641,-2.9494,-2.9494,-2.9786,-3.0331,-3.0662,-3.0769,-3.0703,-3.0734,-3.0748,-3.0827,-3.2018,-3.2822,-3.3451,-3.4617,-3.5402,-3.5908,-3.5908,-3.5908,-3.5908,-3.5908,-3.5908,-3.5908,-3.5908,-3.5908,-3.5908,-3.5908,-3.8324,-4.037,-3.6883,-3.7603,-3.9516,-3.9914,-4.0545,-4.1093,-4.1092,-4.1101,-4.1205,-4.1615,-4.2591,-4.3626,-4.4445,-4.4816,-4.4797,-4.4133,-4.4367,-4.4524,-4.4211,-4.4914,-4.5434,-4.5367,-4.5573,-4.548,-4.4876,-4.4511,-4.3976,-4.3102,-4.252,-4.2073,-4.1743,-4.1218,-4.0907,-4.0907,-4.0907,-4.116,-4.1723,-4.1723,-4.1451,-4.0907,-4.0878,-4.0868,-4.0868,-4.0868,-4.0848,0.0,0.0,0.0,0.0,0.0,0.0,0.0,0.0,0.0,0.0,-2.6128,-2.6498,-2.6498,-2.6965,-2.755,-2.8115,-2.8699,-2.9065,-2.9065,-2.9552,-2.9922,-2.9922,-2.9922,-2.9922,-2.9922,-2.9143,-2.8505,-2.8212,-2.7141,0.0,-2.6128,-2.5855,-2.5699,-2.5699,-2.5699,-2.6089,-2.6887,-2.7219,-2.794,-2.9065,-2.9065,-2.9513,-3.037,-3.0662,-3.0769,-3.0703,-3.0703,-3.0704,-3.0775,-3.1644,-3.2337,-3.2986,-3.4144,-3.4954,-3.5499,-3.5791,-3.5908,-3.5908,-3.5908,-3.5908,-3.5908,-3.5908,-3.5908,-3.5908,-3.5908,-3.7525,-3.9123,-3.7974,-3.8052,-3.8725,-3.9715,-4.0524,-4.1104,-4.1094,-4.1101,-4.1205,-4.1596,-4.2279,-4.3216,-4.4484,-4.4875,-4.4719,-4.384,-4.4192,-4.4367,-4.3782,-4.4699,-4.5414,-4.5328,-4.5845,-4.5947,-4.5304,-4.5211,-4.4851,-4.4015,-4.3413,-4.2811,-4.2228,-4.1665,-4.1335,-4.1335,-4.1335,-4.1743,-4.2617,-4.2636,-4.2345,-4.1762,-4.1471,-4.1335,-4.1335,-4.1335,-4.149,0.0,0.0,0.0,0.0,0.0,0.0,0.0,0.0,0.0,-2.5699,-2.5699,-2.5699,-2.5699,-2.5699,-2.6225,-2.7862,-2.8154,-2.8154,-2.8154,-2.8173,-2.8193,-2.8193,-2.8193,-2.8193,-2.8193,-2.7413,-2.7258,-2.8095,-2.6634,-2.605,-2.6829,-2.6128,-2.5699,-2.5699,-2.5699,-2.6069,-2.6868,-2.6089,-2.6537,-2.8193,-2.8193,-2.868,-2.9572,-3.0409,-3.0769,-3.0703,-3.0703,-3.0704,-3.0775,-3.1605,-3.1987,-3.2168,-3.3891,-3.4583,-3.47,-3.5577,-3.5908,-3.5908,-3.5908,-3.5908,-3.5908,-3.5908,-3.5908,-3.5908,-3.5908,-3.5908,-3.6629,-4.0058,-3.9844,-3.8967,-4.0662,-4.1091,-4.1096,-4.1107,-4.113,-4.1439,-4.2552,-4.1967,-4.1967,-4.4543,-4.5051,-4.4758,-4.3899,-4.5148,-4.5695,-4.3997,-4.5187,-4.6253,-4.6211,-4.6203,-4.6162,-4.6102,-4.6037,-4.5686,-4.4889,-4.4812,-4.4074,-4.2384,-4.2248,-4.2228,-4.2228,-4.2228,-4.2656,-4.353,-4.3549,-4.3549,-4.3549,-4.2656,-4.2228,-4.2228,-4.2228,-4.2694,-2.571,0.0,0.0,0.0,0.0,0.0,0.0,0.0,0.0,-2.5699,-2.5699,-2.5699,-2.5699,-2.5699,-2.5855,-2.6322,-2.6887,-2.7258,-2.7258,-2.7803,-2.8193,-2.8193,-2.8193,-2.8193,-2.8193,-2.7413,-2.7004,0.0,-2.6283,-2.5796,-2.603,-2.5816,-2.5699,-2.5699,-2.5699,-2.5816,-2.603,-2.5816,-2.6537,-2.8193,-2.8193,-2.8987,-3.0448,-3.0682,-3.0769,-3.0703,-3.0703,-3.0704,-3.0717,-3.0963,-3.1423,-3.2129,-3.3287,-3.4096,-3.47,-3.5577,-3.5908,-3.5908,-3.5908,-3.5908,-3.5908,-3.5908,-3.5908,-3.5908,-3.5908,-3.5908,-3.6356,-3.8597,-3.9786,-4.0487,-4.0974,-4.109,-4.1107,-4.1093,-4.1732,-4.2415,-4.2728,-4.3235,-4.4094,-4.5636,-4.5948,-4.5656,-4.4797,-4.5031,-4.5207,-4.4719,-4.5051,-4.5551,-4.6133,-4.6203,-4.6162,-4.6102,-4.6037,-4.5899,-4.5686,-4.5122,-4.4598,-4.4112,-4.3491,-4.3141,-4.3141,-4.3141,-4.3549,-4.4423,-4.4443,-4.4443,-4.4443,-4.3569,-4.3141,-4.3141,-4.3141,-4.3277,0.0,0.0,0.0,0.0,0.0,0.0,-2.5699,-2.5699,-2.5699,0.0,-2.5699,-2.5699,-2.5699,-2.5699,-2.5699,-2.5699,-2.6089,-2.64,-2.64,-2.6848,-2.716,-2.716,-2.716,-2.716,-2.716,-2.6693,-2.64,-2.64,-2.5952,-2.5699,-2.5699,-2.5699,-2.5699,-2.5699,-2.5699,-2.5699,-2.5699,-2.603,-2.6868,-2.8193,-2.8563,-2.9455,-3.0799,-3.0799,-3.0774,-3.0739,-3.0739,-3.0748,-3.0736,-3.0734,-3.1026,-3.1584,-3.2897,-3.3687,-3.4252,-3.5441,-3.5908,-3.5908,-3.5908,-3.5908,-3.5908,-3.5908,-3.5908,-3.5908,-3.5908,-3.5908,-3.6103,-3.7136,-3.9182,-4.111,-4.111,-4.11,-4.1101,-4.1094,-4.1619,-4.222,-4.2692,-4.3352,-4.4231,-4.5519,-4.5753,-4.5597,-4.509,-4.5304,-4.5421,-4.5051,-4.5304,-4.5711,-4.6186,-4.622,-4.619,-4.6146,-4.6084,-4.6027,-4.6007,-4.5569,-4.5161,-4.4812,-4.4326,-4.4035,-4.4035,-4.4035,-4.4443,-4.5278,-4.5297,-4.5297,-4.5297,-4.4443,-4.4035,-4.4054,-4.4384,-4.454,0.0,0.0,0.0,0.0,0.0,0.0,-2.5699,-2.5699,-2.5699,-2.5699,-2.5699,-2.5699,-2.5671,-2.5671,-2.5671,-2.5671,-2.5671,-2.5675,-2.5699,-2.5699,-2.5699,-2.5699,-2.5699,-2.5699,-2.5699,-2.5699,-2.5699,-2.5699,-2.5699,-2.5699,-2.5699,-2.5699,-2.5699,-2.5699,-2.5699,-2.5738,-2.5835,-2.6537,-2.7394,-2.8349,-2.9124,-2.9961,-3.0799,-3.0799,-3.0799,-3.0799,-3.0799,-3.0799,-3.0799,-3.0799,-3.0769,-3.0884,-3.2591,-3.3264,-3.3453,-3.5129,-3.5752,-3.5772,-3.5869,-3.5908,-3.5908,-3.5908,-3.5908,-3.5908,-3.5908,-3.5908,-3.5986,-3.6376,-3.8714,-4.111,-4.111,-4.111,-4.1091,-4.1091,-4.1191,-4.1562,-4.2585,-4.2809,-4.3196,-4.4504,-4.4816,-4.4894,-4.4972,-4.5636,-4.5929,-4.5246,-4.5792,-4.63,-4.63,-4.6245,-4.6195,-4.6203,-4.6146,-4.6075,-4.6007,-4.5997,-4.5686,-4.4986,-4.4928,-4.4928,-4.4928,-4.4928,-4.5258,-4.5977,-4.5997,-4.5997,-4.5997,-4.5278,-4.4928,-4.4948,-4.5666,-4.5997,0.0,0.0,0.0,0.0,0.0,0.0,-2.5699,-2.5699,-2.5699,0.0,-2.5699,-2.5667,-2.5565,-2.554,-2.554,-2.554,-2.554,-2.5576,-2.5675,-2.5699,-2.5699,-2.5699,-2.5699,-2.5699,-2.5699,-2.5699,-2.5699,-2.5699,-2.5699,-2.5699,-2.5699,-2.5699,-2.5699,-2.5699,-2.5699,-2.6011,-2.6654,-2.6829,-2.7686,-2.924,-2.9416,-2.9961,-3.0799,-3.0799,-3.0799,-3.0799,-3.0799,-3.0799,-3.0799,-3.0799,-3.0799,-3.0891,-3.1934,-3.2348,-3.2562,-3.4233,-3.4856,-3.4954,-3.5655,-3.5908,-3.5908,-3.5908,-3.5908,-3.5908,-3.5908,-3.5908,-3.6493,-3.9298,-4.0584,-4.111,-4.111,-4.111,-4.1095,-4.1097,-4.1794,-4.2539,-4.2753,-4.2802,-4.2884,-4.3177,-4.3626,-4.4172,-4.4875,-4.5148,-4.5421,-4.5968,-4.6183,-4.63,-4.63,-4.6245,-4.6195,-4.6203,-4.6146,-4.6075,-4.6007,-4.5997,-4.5919,-4.5783,-4.5763,-4.5763,-4.5763,-4.5763,-4.5841,-4.5997,-4.5997,-4.5997,-4.5997,-4.5841,-4.5763,-4.5763,-4.5919,-4.5997,0.0,0.0,0.0,-2.5659,0.0,0.0,0.0,-2.5543,-2.5543,-2.5543,-2.5543,-2.5531,-2.546,-2.548,-2.5504,-2.5504,-2.5565,-2.5615,-2.5695,-2.5699,-2.5699,-2.5699,-2.5699,-2.5699,-2.5699,-2.5699,-2.5699,-2.5699,-2.5699,-2.5699,-2.5699,-2.5699,-2.5699,-2.5699,-2.5699,-2.6089,-2.6887,-2.7336,-2.8212,-2.9513,-2.9942,-3.037,-3.0799,-3.0799,-3.0799,-3.0799,-3.0799,-3.0799,-3.0799,-3.0799,-3.0799,-3.0896,-3.1758,-3.2367,-3.2893,-3.4135,-3.4876,-3.5304,-3.5752,-3.5908,-3.5908,-3.5908,-3.5908,-3.5908,-3.5908,-3.7116,-3.887,-4.0604,-4.111,-4.111,-4.111,-4.111,-4.1109,-4.1101,-4.1967,-4.2873,-4.318,-4.3242,-4.3258,-4.3241,-4.2786,-4.2903,-4.4524,-4.5265,-4.5792,-4.6222,-4.63,-4.63,-4.63,-4.6273,-4.6236,-4.6209,-4.6169,-4.6111,-4.6066,-4.6017,-4.5997,-4.5997,-4.5997,-4.5997,-4.5997,-4.5997,-4.5997,-4.5997,-4.5997,-4.5997,-4.5997,-4.5997,-4.5997,-4.5997,-4.5997,-4.5997,0.0,0.0,0.0,0.0,0.0,-2.5387,0.0,0.0,0.0,0.0,0.0,0.0,0.0,0.0,0.0,0.0,0.0,0.0,0.0,-2.5639,0.0,-2.5699,-2.5699,-2.5699,-2.5699,-2.5699,-2.5699,-2.5699,-2.5699,-2.5699,-2.5699,-2.5699,-2.5699,-2.5699,-2.5699,-2.6167,-2.7141,-2.7842,-2.8714,-2.9766,-3.0468,-3.0799,-3.0799,-3.0799,-3.0799,-3.0799,-3.0799,-3.0799,-3.0799,-3.0799,-3.0799,-3.0877,-3.1563,-3.2284,-3.3025,-3.3999,-3.4817,-3.546,-3.5791,-3.5908,-3.5908,-3.5908,-3.5908,-3.6025,-3.6707,-3.887,-4.111,-4.111,-4.111,-4.111,-4.111,-4.111,-4.1103,-4.1109,-4.1964,-4.2961,-4.3548,-4.3696,-4.3807,-4.4145,-4.2786,-4.224,-4.425,-4.5168,-4.5773,-4.6222,-4.6163,-4.6105,-4.628,-4.63,-4.6273,-4.6211,-4.6203,-4.6169,-4.6102,-4.6037,-4.6007,-4.5997,-4.5997,-4.5997,-4.5997,-4.5997,-4.5997,-4.5997,-4.5997,-4.5997,-4.5997,-4.5997,-4.5997,-4.5997,-4.5997,-4.5997,0.0,0.0,0.0,0.0,-2.5967,0.0,0.0,0.0,-2.5387,-2.5387,0.0,0.0,0.0,0.0,0.0,0.0,0.0,0.0,-2.543,-2.5493,-2.5571,-2.5695,-2.5699,-2.5699,-2.5699,-2.5699,-2.5699,-2.5699,-2.5699,-2.5699,-2.5699,-2.5699,-2.5699,-2.5699,-2.5699,-2.6459,-2.8037,-2.8154,-2.9026,-3.0643,-3.074,-3.0799,-3.0799,-3.0799,-3.0799,-3.0799,-3.0799,-3.0799,-3.0799,-3.0799,-3.0799,-3.0799,-3.0916,-3.1013,-3.1291,-3.2927,-3.359,-3.3902,-3.5382,-3.5908,-3.5908,-3.5908,-3.5908,-3.6473,-3.9571,-4.0799,-4.111,-4.111,-4.111,-4.111,-4.111,-4.111,-4.1091,-4.1097,-4.1974,-4.2942,-4.35,-4.3654,-4.4158,-4.5704,-4.4602,-4.3665,-4.4465,-4.3821,-4.3899,-4.5987,-4.5636,-4.5421,-4.6202,-4.63,-4.6273,-4.6211,-4.6206,-4.6177,-4.6102,-4.6093,-4.6047,-4.6007,-4.5997,-4.5997,-4.5997,-4.5997,-4.5997,-4.5997,-4.5997,-4.5997,-4.5997,-4.5997,-4.5997,-4.5997,-4.5997,-4.5997,0.0,0.0,0.0,0.0,0.0,0.0,-2.6109,0.0,-2.584,0.0,0.0,0.0,0.0,0.0,0.0,0.0,-2.534,0.0,0.0,0.0,-2.551,0.0,0.0,0.0,-2.5699,-2.5699,-2.5699,-2.5699,-2.5699,-2.5699,-2.5699,-2.5699,-2.5699,-2.5699,-2.5699,-2.6264,-2.7433,-2.7959,-2.8812,-3.0039,-3.0565,-3.0799,-3.0799,-3.0799,-3.0799,-3.0799,-3.0799,-3.0799,-3.0799,-3.0799,-3.0799,-3.0799,-3.0799,-3.1427,-3.2401,-3.3122,-3.4018,-3.4954,-3.5655,-3.5908,-3.5908,-3.5908,-3.5908,-3.6551,-4.0039,-4.111,-4.111,-4.111,-4.111,-4.111,-4.111,-4.111,-4.1227,-4.1695,-4.2552,-4.3429,-4.3994,-4.4668,-4.5371,-4.6091,-4.5657,-4.5227,-4.5485,-4.5141,-4.5168,-4.6144,-4.5987,-4.589,-4.6241,-4.63,-4.6296,-4.6269,-4.6216,-4.6195,-4.6151,-4.6127,-4.6084,-4.6066,-4.6017,-4.5997,-4.5997,-4.5997,-4.5997,-4.5997,-4.5997,-4.5997,-4.5997,-4.5997,-4.5997,-4.5997,-4.5997,-4.5997,-2.944,0.0,0.0,0.0,0.0,0.0,0.0,0.0,0.0,0.0,0.0,0.0,0.0,0.0,0.0,0.0,0.0,-2.5359,0.0,-2.5395,0.0,0.0,0.0,0.0,0.0,-2.5699,-2.5699,-2.5699,-2.5699,-2.5699,-2.5699,-2.5699,-2.5699,-2.5699,-2.5699,-2.6089,-2.6887,-2.7764,-2.8641,-2.9513,-3.037,-3.0799,-3.0799,-3.0799,-3.0799,-3.0799,-3.0799,-3.0799,-3.0799,-3.0799,-3.0799,-3.0799,-3.0799,-3.1758,-3.3161,-3.3336,-3.4311,-3.5577,-3.5811,-3.5908,-3.5908,-3.5908,-3.5908,-3.6551,-4.0039,-4.111,-4.111,-4.111,-4.111,-4.111,-4.111,-4.111,-4.1247,-4.1831,-4.2806,-4.378,-4.4364,-4.5397,-4.6196,-4.6197,-4.6195,-4.6195,-4.6204,-4.5976,-4.5911,-4.6237,-4.6078,-4.6036,-4.6261,-4.63,-4.6303,-4.629,-4.6261,-4.621,-4.6206,-4.6156,-4.6118,-4.6099,-4.6037,-4.5997,-4.5997,-4.5997,-4.5997,-4.5997,-4.5997,-4.5997,-4.5997,-4.5997,-4.5997,-4.5997,-4.5997,-4.5997,0.0,0.0,0.0,-2.8872,0.0,0.0,0.0,0.0,-2.6383,0.0,-2.5746,-2.5191,0.0,0.0,0.0,0.0,0.0,0.0,0.0,0.0,0.0,0.0,0.0,0.0,0.0,-2.5699,-2.5699,-2.5699,-2.5699,-2.5699,-2.5699,-2.5699,-2.5699,-2.5699,-2.5699,-2.6089,-2.6887,-2.7764,-2.8641,-2.9513,-3.037,-3.0799,-3.0799,-3.0799,-3.0799,-3.0799,-3.0799,-3.0799,-3.0799,-3.0799,-3.0799,-3.0799,-3.0799,-3.15,-3.2596,-3.3181,-3.3921,-3.4759,-3.5616,-3.5908,-3.5908,-3.5908,-3.5908,-3.6551,-4.0039,-4.111,-4.111,-4.111,-4.111,-4.111,-4.111,-4.111,-4.111,-4.113,-4.2396,-4.378,-4.4364,-4.5397,-4.6196,-4.6203,-4.6203,-4.6203,-4.6199,-4.5285,-4.4926,-4.6035,-4.5546,-4.5346,-4.6186,-4.63,-4.629,-4.6306,-4.6307,-4.6265,-4.6217,-4.6204,-4.6173,-4.6105,-4.6036,-4.5997,-4.5997,-4.5997,-4.5997,-4.5997,-4.5997,-4.5997,-4.5997,-4.5997,-4.5997,-4.5997,-4.5997,-4.5997,-3.0204,-2.9975,-2.9765,-2.9765,0.0,0.0,0.0,0.0,0.0,-2.7377,-2.6593,-2.5982,-2.5982,0.0,0.0,0.0,0.0,0.0,0.0,0.0,0.0,0.0,0.0,0.0,0.0,0.0,-2.5699,-2.5699,-2.5699,-2.5699,-2.5699,-2.5699,-2.5699,-2.5699,-2.5699,-2.5835,-2.6108,-2.7511,-2.8056,-2.7803,-2.9825,-3.0507,-2.9961,-3.0546,-3.0799,-3.0799,-3.0799,-3.0799,-3.0799,-3.0799,-3.0799,-3.0799,-3.0799,-3.1739,-3.3122,-3.3317,-3.4272,-3.5499,-3.5791,-3.5908,-3.5908,-3.5908,-3.5908,-3.6337,-3.8675,-3.963,-4.0078,-4.0877,-4.111,-4.111,-4.111,-4.111,-4.1227,-4.1773,-4.2767,-4.3819,-4.4598,-4.5066,-4.5338,-4.5338,-4.5338,-4.5352,-4.5331,-4.5507,-4.5767,-4.6147,-4.5974,-4.5897,-4.6191,-4.6267,-4.6303,-4.6307,-4.63,-4.6293,-4.6267,-4.6268,-4.6225,-4.6111,-4.6131,-4.6131,-4.6131,-4.6086,-4.6064,-4.6064,-4.6027,-4.5997,-4.5997,-4.5997,-4.5997,-4.5997,-4.5997,-4.5997,-3.0204,-3.0204,-3.0204,-3.0204,-3.0204,-3.0051,-2.9497,0.0,-2.8739,-2.8223,-2.7453,-2.6765,-2.646,0.0,0.0,0.0,0.0,0.0,0.0,-2.534,0.0,0.0,0.0,0.0,0.0,-2.5699,-2.5699,-2.5699,-2.5699,-2.5699,0.0,-2.5699,-2.5699,-2.5699,-2.5699,-2.5699,-2.5699,-2.7063,-2.7608,-2.7394,-2.9377,-3.0214,-2.9981,-3.0546,-3.0799,-3.0799,-3.0799,-3.0799,-3.0799,-3.0799,-3.0799,-3.0799,-3.0799,-3.1739,-3.3103,-3.3317,-3.4467,-3.5908,-3.5908,-3.5908,-3.5908,-3.5908,-3.5908,-3.6103,-3.7233,-3.8675,-4.0195,-4.1364,-4.1403,-4.1188,-4.1598,-4.1403,-4.1227,-4.1753,-4.2767,-4.376,-4.4325,-4.491,-4.5358,-4.5358,-4.5358,-4.5358,-4.5358,-4.5825,-4.6209,-4.6209,-4.6195,-4.6198,-4.6204,-4.6249,-4.6269,-4.6268,-4.6269,-4.6269,-4.6269,-4.6249,-4.6191,-4.6147,-4.6152,-4.6171,-4.6202,-4.6105,-4.6086,-4.6133,-4.6044,-4.5997,-4.5997,-4.5997,-4.5997,-4.5997,-4.5997,-4.5997]}]]